[[{"header":{"parameterUnit":"m.s-1","parameterCategory":1,"la1":30.6,"la2":29.2853,"lo1":-89.7004,"lo2":-87.6739,"dy":0.0162,"dx":0.0183,"nx":112,"ny":82,"refTime":"2023-05-12T06:00:00:Z","depth":0,"parameterNumber":2,"parameterNumberName":"U-component_of_WINDS"},"data":[0.0,0.0,0.0,0.0,0.0,0.0,0.0,0.0,0.0,0.0,0.0,0.0,0.0,0.0,0.0,0.0,0.0,0.0,0.0,0.0,0.0,0.0,0.0,0.0,0.0,0.0,0.0,0.0,0.0,0.0,0.0,0.0,0.0,0.0,0.0,0.0,0.0,0.0,0.0,0.0,0.0,0.0,0.0,0.0,0.0,0.0,0.0,0.0,0.0,0.0,0.0,0.0,0.0,0.0,0.0,0.0,0.0,0.0,0.0,0.0,0.0,0.0,0.0,0.0,0.0,0.0,0.0,0.0,0.0,0.0,0.0,0.0,0.0,0.0,0.0,0.0,0.0,0.0,0.0,0.0,0.0,0.0,0.0,0.0,0.0,0.0,0.0,0.0,0.0,0.0,-2.0199,-2.4125,-3.3451,-3.8107,-3.4873,-3.4545,-2.976,-1.8682,0.0,0.0,0.0,0.0,0.0,0.0,0.0,0.0,0.0,0.0,0.0,0.0,0.0,0.0,0.0,0.0,0.0,0.0,0.0,0.0,0.0,0.0,0.0,0.0,0.0,0.0,0.0,0.0,0.0,0.0,0.0,0.0,0.0,0.0,0.0,0.0,0.0,0.0,0.0,0.0,0.0,0.0,0.0,0.0,0.0,0.0,0.0,0.0,0.0,0.0,0.0,0.0,0.0,0.0,0.0,0.0,0.0,0.0,0.0,0.0,0.0,0.0,0.0,0.0,0.0,0.0,0.0,0.0,0.0,0.0,0.0,0.0,0.0,0.0,0.0,0.0,0.0,0.0,0.0,0.0,0.0,0.0,0.0,0.0,0.0,0.0,0.0,0.0,0.0,0.0,0.0,0.0,0.0,0.0,0.0,0.0,0.0,0.0,0.0,0.0,0.0,0.0,0.0,0.0,-2.1312,-3.0565,-3.5171,-3.6776,-3.4769,-3.0725,-2.5314,-1.8335,0.0,0.0,0.0,0.0,0.0,0.0,0.0,0.0,0.0,0.0,0.0,0.0,0.0,0.0,0.0,0.0,0.0,0.0,0.0,0.0,0.0,0.0,0.0,0.0,0.0,0.0,0.0,0.0,0.0,0.0,0.0,0.0,0.0,0.0,0.0,0.0,0.0,0.0,0.0,0.0,0.0,0.0,0.0,0.0,0.0,0.0,0.0,0.0,0.0,0.0,0.0,0.0,0.0,0.0,0.0,0.0,0.0,0.0,0.0,0.0,0.0,0.0,0.0,0.0,0.0,0.0,0.0,0.0,0.0,0.0,0.0,0.0,0.0,0.0,0.0,0.0,0.0,0.0,0.0,0.0,0.0,0.0,0.0,0.0,0.0,0.0,0.0,0.0,0.0,0.0,0.0,0.0,0.0,0.0,0.0,0.0,0.0,0.0,0.0,0.0,0.0,0.0,0.0,-1.9271,-2.3103,-3.2032,-3.4563,-3.4793,-3.2671,-2.8579,-2.3363,-1.6912,-1.6796,0.0,0.0,0.0,0.0,0.0,0.0,0.0,0.0,0.0,0.0,0.0,0.0,0.0,0.0,0.0,0.0,0.0,0.0,0.0,0.0,0.0,0.0,0.0,0.0,0.0,0.0,0.0,0.0,0.0,0.0,0.0,0.0,0.0,0.0,0.0,0.0,0.0,0.0,0.0,0.0,0.0,0.0,0.0,0.0,0.0,0.0,0.0,0.0,0.0,0.0,0.0,0.0,0.0,0.0,0.0,0.0,0.0,0.0,0.0,0.0,0.0,0.0,0.0,0.0,0.0,0.0,0.0,0.0,0.0,0.0,0.0,0.0,0.0,0.0,0.0,0.0,0.0,0.0,0.0,0.0,0.0,0.0,0.0,0.0,0.0,0.0,0.0,0.0,0.0,0.0,0.0,0.0,0.0,0.0,0.0,0.0,0.0,0.0,0.0,0.0,0.0,0.0,-2.1751,-2.446,-3.1515,-3.2777,-3.2206,-2.9935,-2.7122,-2.2496,-1.5451,-1.4051,0.0,0.0,0.0,0.0,0.0,0.0,0.0,0.0,0.0,0.0,0.0,0.0,0.0,0.0,0.0,0.0,0.0,0.0,0.0,0.0,0.0,0.0,0.0,0.0,0.0,0.0,0.0,0.0,0.0,0.0,0.0,0.0,0.0,0.0,0.0,0.0,0.0,0.0,0.0,0.0,0.0,0.0,0.0,0.0,0.0,0.0,0.0,0.0,0.0,0.0,0.0,0.0,0.0,0.0,0.0,0.0,0.0,0.0,0.0,0.0,0.0,0.0,0.0,0.0,0.0,0.0,0.0,0.0,0.0,0.0,0.0,0.0,0.0,0.0,0.0,0.0,0.0,0.0,0.0,0.0,0.0,0.0,0.0,0.0,0.0,0.0,0.0,0.0,0.0,0.0,0.0,0.0,0.0,0.0,0.0,0.0,0.0,0.0,0.0,0.0,0.0,0.0,-2.1132,-2.462,-2.992,-2.9924,-2.8844,-2.712,-2.6029,-2.2162,-1.4558,-1.281,0.0,0.0,0.0,0.0,0.0,0.0,0.0,0.0,0.0,0.0,0.0,0.0,0.0,0.0,0.0,0.0,0.0,0.0,0.0,0.0,0.0,0.0,0.0,0.0,0.0,0.0,0.0,0.0,0.0,0.0,0.0,0.0,0.0,0.0,0.0,0.0,0.0,0.0,0.0,0.0,0.0,0.0,0.0,0.0,0.0,0.0,0.0,0.0,0.0,0.0,0.0,0.0,0.0,0.0,0.0,0.0,0.0,0.0,0.0,0.0,0.0,0.0,0.0,0.0,0.0,0.0,0.0,0.0,0.0,0.0,0.0,0.0,0.0,0.0,0.0,0.0,0.0,0.0,0.0,0.0,0.0,0.0,0.0,0.0,0.0,0.0,0.0,0.0,0.0,0.0,0.0,0.0,0.0,0.0,0.0,0.0,0.0,0.0,0.0,0.0,0.0,0.0,-1.9402,-2.2778,-2.7401,-2.759,-2.676,-2.5144,-2.1806,-1.7886,-1.3465,0.0,0.0,0.0,0.0,0.0,0.0,0.0,0.0,0.0,0.0,0.0,0.0,0.0,0.0,0.0,0.0,0.0,0.0,0.0,0.0,0.0,0.0,0.0,0.0,0.0,0.0,0.0,0.0,0.0,0.0,0.0,0.0,0.0,0.0,0.0,0.0,0.0,0.0,0.0,0.0,0.0,0.0,0.0,0.0,0.0,0.0,0.0,0.0,0.0,0.0,0.0,0.0,0.0,0.0,0.0,0.0,0.0,0.0,0.0,0.0,0.0,0.0,0.0,0.0,0.0,0.0,0.0,0.0,0.0,0.0,0.0,0.0,0.0,0.0,0.0,0.0,0.0,0.0,0.0,0.0,0.0,0.0,0.0,0.0,0.0,0.0,0.0,0.0,0.0,0.0,0.0,0.0,0.0,0.0,0.0,0.0,0.0,0.0,0.0,0.0,0.0,0.0,-1.6202,-1.8127,-2.0815,-2.5107,-2.5019,-2.4058,-2.2494,-1.8428,-1.4798,-1.2041,0.0,0.0,0.0,0.0,0.0,0.0,0.0,0.0,0.0,0.0,0.0,0.0,0.0,0.0,0.0,0.0,0.0,0.0,0.0,0.0,0.0,0.0,0.0,0.0,0.0,0.0,0.0,0.0,0.0,0.0,0.0,0.0,0.0,0.0,0.0,0.0,0.0,0.0,0.0,0.0,0.0,0.0,0.0,0.0,0.0,0.0,0.0,0.0,0.0,0.0,0.0,0.0,0.0,0.0,0.0,0.0,0.0,0.0,0.0,0.0,0.0,0.0,0.0,0.0,0.0,0.0,0.0,0.0,0.0,0.0,0.0,0.0,0.0,0.0,0.0,0.0,0.0,0.0,0.0,0.0,0.0,0.0,0.0,0.0,0.0,0.0,0.0,0.0,0.0,0.0,0.0,0.0,0.0,0.0,0.0,0.0,0.0,0.0,0.0,0.0,0.0,0.0,-1.6994,-1.7473,-1.906,-2.3196,-2.2173,-2.05,-1.892,-1.643,-1.3546,0.0,0.0,0.0,0.0,0.0,0.0,0.0,0.0,0.0,0.0,0.0,0.0,0.0,0.0,0.0,0.0,0.0,0.0,0.0,0.0,0.0,0.0,0.0,0.0,0.0,0.0,0.0,0.0,0.0,0.0,0.0,0.0,0.0,0.0,0.0,0.0,0.0,0.0,0.0,0.0,0.0,0.0,0.0,0.0,0.0,0.0,0.0,0.0,0.0,0.0,0.0,0.0,0.0,0.0,0.0,0.0,0.0,0.0,0.0,0.0,0.0,0.0,0.0,0.0,0.0,0.0,0.0,0.0,0.0,0.0,0.0,0.0,0.0,0.0,0.0,0.0,0.0,0.0,0.0,0.0,0.0,0.0,0.0,0.0,0.0,0.0,0.0,0.0,0.0,0.0,0.0,0.0,0.0,0.0,0.0,0.0,0.0,0.0,0.0,0.0,0.0,0.0,0.0,-1.3682,-1.5412,-1.7457,-1.9926,-1.9742,-1.8772,-1.7101,-1.4107,-1.1421,-0.9321,0.0,0.0,0.0,0.0,0.0,0.0,0.0,0.0,0.0,0.0,0.0,0.0,0.0,0.0,0.0,0.0,0.0,0.0,0.0,0.0,0.0,0.0,0.0,0.0,0.0,0.0,0.0,0.0,0.0,0.0,0.0,0.0,0.0,0.0,0.0,0.0,0.0,0.0,0.0,0.0,0.0,0.0,0.0,0.0,0.0,0.0,0.0,0.0,0.0,0.0,0.0,0.0,0.0,0.0,0.0,0.0,0.0,0.0,0.0,0.0,0.0,0.0,0.0,0.0,0.0,0.0,0.0,0.0,0.0,0.0,0.0,0.0,0.0,0.0,0.0,0.0,0.0,0.0,0.0,0.0,0.0,0.0,0.0,0.0,0.0,0.0,0.0,0.0,0.0,0.0,0.0,0.0,0.0,0.0,0.0,0.0,0.0,0.0,0.0,0.0,0.0,0.0,-1.2158,-1.3884,-1.5808,-1.7837,-1.7762,-1.6896,-1.5212,-1.2331,-1.0,-0.861,0.0,0.0,0.0,0.0,0.0,0.0,0.0,0.0,0.0,0.0,0.0,0.0,0.0,0.0,0.0,0.0,0.0,0.0,0.0,0.0,0.0,0.0,0.0,0.0,0.0,0.0,0.0,0.0,0.0,0.0,0.0,0.0,0.0,0.0,0.0,0.0,0.0,0.0,0.0,0.0,0.0,0.0,0.0,0.0,0.0,0.0,0.0,0.0,0.0,0.0,0.0,0.0,0.0,0.0,0.0,0.0,0.0,0.0,0.0,0.0,0.0,0.0,0.0,0.0,0.0,0.0,0.0,0.0,0.0,0.0,0.0,0.0,0.0,0.0,0.0,0.0,0.0,0.0,0.0,0.0,0.0,0.0,0.0,0.0,0.0,0.0,0.0,0.0,0.0,0.0,0.0,0.0,0.0,0.0,0.0,0.0,0.0,0.0,0.0,0.0,0.0,0.0,-1.1781,-1.2673,-1.4085,-1.6507,-1.6043,-1.4913,-1.3323,-1.0965,-0.9146,-0.8102,0.0,0.0,0.0,0.0,0.0,0.0,0.0,0.0,0.0,0.0,0.0,0.0,0.0,0.0,0.0,0.0,0.0,0.0,0.0,0.0,0.0,0.0,0.0,0.0,0.0,0.0,0.0,0.0,0.0,0.0,0.0,0.0,0.0,0.0,0.0,0.0,0.0,0.0,0.0,0.0,0.0,0.0,0.0,0.0,0.0,0.0,0.0,0.0,0.0,0.0,0.0,0.0,0.0,0.0,0.0,0.0,0.0,0.0,0.0,0.0,-1.8518,-1.8287,0.0,0.0,0.0,0.0,0.0,0.0,0.0,0.0,0.0,0.0,0.0,0.0,0.0,0.0,0.0,0.0,0.0,0.0,0.0,0.0,0.0,0.0,0.0,0.0,0.0,0.0,0.0,0.0,0.0,0.0,0.0,0.0,0.0,0.0,0.0,0.0,0.0,0.0,0.0,0.0,-1.0093,-1.0895,-1.2091,-1.4008,-1.4008,-1.3229,-1.1574,-0.9776,-0.8393,-0.7512,-0.7632,0.0,0.0,0.0,0.0,0.0,0.0,0.0,0.0,0.0,0.0,0.0,0.0,0.0,0.0,0.0,0.0,0.0,0.0,0.0,0.0,0.0,0.0,0.0,0.0,0.0,0.0,0.0,0.0,0.0,0.0,0.0,0.0,0.0,0.0,0.0,0.0,0.0,0.0,0.0,0.0,0.0,0.0,0.0,0.0,0.0,0.0,0.0,0.0,0.0,0.0,0.0,0.0,0.0,0.0,0.0,0.0,0.0,0.0,0.0,-2.0899,-2.0259,0.0,0.0,0.0,0.0,0.0,0.0,0.0,0.0,0.0,0.0,0.0,0.0,0.0,0.0,0.0,0.0,0.0,0.0,0.0,0.0,0.0,0.0,0.0,0.0,0.0,0.0,0.0,0.0,0.0,0.0,0.0,0.0,0.0,0.0,0.0,0.0,0.0,0.0,0.0,0.0,-1.0014,-1.0499,-1.1531,-1.3555,-1.3103,-1.2269,-1.1424,-0.9506,-0.793,-0.6884,-0.7022,0.0,0.0,0.0,0.0,0.0,0.0,0.0,0.0,0.0,0.0,0.0,0.0,0.0,0.0,0.0,0.0,0.0,0.0,0.0,0.0,0.0,0.0,0.0,0.0,0.0,0.0,0.0,0.0,0.0,0.0,0.0,0.0,0.0,0.0,0.0,0.0,0.0,0.0,0.0,0.0,0.0,0.0,0.0,0.0,0.0,0.0,0.0,0.0,0.0,0.0,0.0,0.0,0.0,-2.5339,-2.5676,-2.6243,-2.6539,-2.5738,-2.4104,-2.435,-2.3025,-2.0629,-2.0794,0.0,0.0,0.0,0.0,0.0,0.0,0.0,0.0,0.0,0.0,0.0,0.0,0.0,0.0,0.0,0.0,0.0,0.0,0.0,0.0,0.0,0.0,-1.3269,-1.4366,-1.4583,-1.4258,-1.3129,0.0,0.0,0.0,0.0,0.0,0.0,0.0,0.0,0.0,0.0,0.0,-1.0092,-1.048,-1.1418,-1.3355,-1.2496,-1.1678,-1.1392,-0.9314,-0.7543,-0.6482,-0.5996,-0.6126,0.0,0.0,0.0,0.0,0.0,0.0,0.0,0.0,0.0,0.0,0.0,0.0,0.0,0.0,0.0,0.0,0.0,0.0,0.0,0.0,0.0,0.0,0.0,0.0,0.0,0.0,0.0,0.0,0.0,0.0,0.0,0.0,-1.7824,-1.9527,0.0,0.0,0.0,0.0,0.0,0.0,0.0,0.0,0.0,0.0,0.0,0.0,0.0,-2.3509,-2.5457,-2.6688,-2.7954,-2.9241,-2.9903,-3.0212,-3.022,-2.9689,-2.9368,-2.9148,-2.9175,0.0,-1.9903,-1.966,0.0,0.0,0.0,0.0,0.0,0.0,0.0,0.0,0.0,0.0,0.0,0.0,0.0,0.0,0.0,0.0,0.0,0.0,0.0,0.0,0.0,0.0,-1.56,-1.4512,-1.4735,-1.4968,-1.4155,-1.3778,-1.3164,-1.1629,-1.0996,-1.0383,0.0,0.0,0.0,0.0,0.0,0.0,-0.8495,-0.9737,-1.0721,-1.1037,-1.1466,-1.118,-0.9818,-0.8136,-0.7073,-0.6935,-0.5571,-0.5148,-0.5954,-0.6445,0.0,0.0,0.0,0.0,0.0,0.0,0.0,0.0,0.0,0.0,0.0,0.0,0.0,0.0,0.0,0.0,0.0,0.0,0.0,0.0,0.0,0.0,0.0,0.0,0.0,0.0,0.0,0.0,0.0,-1.8054,-1.9246,-1.9072,-1.9837,-1.9546,0.0,0.0,0.0,0.0,0.0,0.0,0.0,0.0,0.0,-2.4487,-2.5992,-2.7343,-2.861,-2.9916,-3.1042,-3.196,-3.2287,-3.2435,-3.2375,-3.1629,-3.09,-3.0259,-2.982,-2.6941,-2.2555,-2.2605,-2.1475,-1.964,0.0,0.0,0.0,0.0,-1.7186,-1.6849,-1.6839,-1.6415,-1.5819,-1.5673,0.0,0.0,0.0,0.0,0.0,0.0,0.0,-1.2082,-1.2343,-1.3964,-1.5496,-1.5449,-1.6011,-1.6309,-1.5613,-1.4981,-1.4021,-1.2156,-1.1532,-1.0988,-0.9904,-0.9435,0.0,0.0,0.0,-1.0227,-1.1078,-1.1773,-1.221,-1.227,-1.1768,-1.1,-0.9925,-0.8045,-0.6872,-0.6872,-0.5427,-0.4715,-0.5062,-0.5656,-0.6292,0.0,0.0,0.0,0.0,0.0,0.0,0.0,0.0,0.0,0.0,0.0,0.0,0.0,0.0,0.0,0.0,0.0,0.0,0.0,0.0,0.0,0.0,0.0,0.0,0.0,0.0,0.0,0.0,-2.0209,-2.0749,-1.9384,-2.1387,-2.1528,0.0,0.0,0.0,0.0,0.0,0.0,-2.4766,-2.5487,-2.6736,-2.8681,-3.0277,-3.1467,-3.2312,-3.2919,-3.3645,-3.4491,-3.4143,-3.4084,-3.4201,-3.3456,-3.2285,-3.0894,-3.018,-2.8101,-2.5193,-2.4815,-2.3243,-2.0923,-1.965,-1.8701,-1.8052,-1.8192,-1.7914,-1.7527,-1.7592,-1.7178,-1.6516,-1.5883,-1.5121,-1.412,-1.2303,0.0,0.0,0.0,0.0,-1.2013,-1.342,-1.4492,-1.5417,-1.6257,-1.7051,-1.7404,-1.6621,-1.5989,-1.5024,-1.3075,-1.2397,-1.1832,-1.0832,-1.0085,0.0,-1.0057,-1.0734,-1.1623,-1.2725,-1.2854,-1.2877,-1.298,-1.1754,-1.0592,-0.9707,-0.7873,-0.671,-0.6511,-0.5215,-0.447,-0.4491,-0.5055,-0.5531,-0.5908,0.0,0.0,0.0,0.0,0.0,0.0,0.0,0.0,0.0,0.0,0.0,0.0,0.0,0.0,0.0,0.0,0.0,0.0,0.0,0.0,0.0,0.0,0.0,0.0,0.0,0.0,0.0,0.0,0.0,-2.1982,-2.3904,0.0,0.0,0.0,0.0,-2.3663,-2.5931,-2.8159,-3.0133,-3.08,-3.2019,-3.3964,-3.4753,-3.5712,-3.6954,-3.5857,-3.5886,-3.7099,-3.5886,-3.5625,-3.6141,-3.5508,-3.4205,-3.237,-3.1704,-2.961,-2.6491,-2.4182,-2.2182,-2.0528,-1.9429,-1.9446,-1.9916,-1.8605,-1.8099,-1.7869,-1.6557,-1.5634,-1.5256,-1.6584,-1.6177,-1.4862,-1.3371,-1.2431,0.0,0.0,-1.2464,-1.3217,-1.4035,-1.528,-1.6365,-1.656,-1.7311,-1.7738,-1.6797,-1.6443,-1.5889,-1.4377,-1.2953,-1.2,-1.1909,0.0,-1.073,-0.9952,-1.0616,-1.1213,-1.1217,-1.1315,-1.139,-1.1329,-1.0679,-0.9672,-0.8235,-0.7243,-0.6403,-0.5709,-0.4856,-0.4414,-0.4409,-0.4446,-0.4846,-0.5705,-0.6134,0.0,0.0,0.0,0.0,0.0,0.0,0.0,0.0,0.0,0.0,0.0,0.0,0.0,0.0,0.0,0.0,0.0,0.0,0.0,0.0,0.0,0.0,0.0,0.0,0.0,0.0,0.0,0.0,-2.5902,-2.8305,0.0,-2.5113,-2.6096,-2.7139,-2.7606,-2.8838,-3.0403,-3.2357,-3.3655,-3.5022,-3.6561,-3.7411,-3.8057,-3.8522,-3.7622,-3.7418,-3.7883,-3.7418,-3.7099,-3.6896,-3.5415,-3.3703,-3.1756,-3.0335,-2.81,-2.5429,-2.4552,-2.3363,-2.1992,-2.1215,-2.0606,-2.0112,-2.0015,-1.973,-1.9335,-1.8809,-1.8185,-1.7403,-1.629,-1.5089,-1.3855,-1.2902,-1.2464,-1.2346,-1.2789,-1.343,-1.4188,-1.5044,-1.5669,-1.613,-1.6405,-1.6727,-1.6894,-1.6548,-1.6466,-1.6299,-1.5795,-1.3684,-1.2158,-1.2621,-1.1335,-1.0791,-1.2389,-1.2523,-1.2765,-1.3674,-1.3828,-1.3319,-1.1853,-1.1515,-1.0393,-0.7948,-0.7036,-0.6287,-0.5573,-0.4812,-0.4399,-0.4411,-0.4348,-0.449,-0.4807,-0.4958,-0.5419,0.0,0.0,0.0,0.0,0.0,0.0,0.0,0.0,0.0,0.0,0.0,0.0,0.0,0.0,0.0,0.0,0.0,0.0,0.0,0.0,0.0,0.0,0.0,0.0,0.0,-2.6993,-2.8917,-2.856,-3.1171,-3.1693,-2.8403,-2.9441,-3.0497,-3.0966,-3.1931,-3.3254,-3.5036,-3.6138,-3.7217,-3.8242,-3.8887,-3.9247,-3.9395,-3.8494,-3.8102,-3.8202,-3.7999,-3.768,-3.7244,-3.5735,-3.4109,-3.2365,-3.048,-2.8187,-2.5752,-2.5317,-2.4389,-2.3171,-2.2533,-2.1801,-2.1054,-2.1278,-2.122,-2.0967,-2.0553,-1.9711,-1.8491,-1.6559,-1.5211,-1.4209,-1.3572,-1.3369,-1.3456,-1.3919,-1.4383,-1.4906,-1.5505,-1.5667,-1.5767,-1.6036,-1.6147,-1.6188,-1.6105,-1.6284,-1.6369,-1.6044,-1.4257,-1.3011,-1.3508,-1.1987,-1.1466,-1.3775,-1.3479,-1.355,-1.5093,-1.4662,-1.3634,-1.2158,-1.1793,-1.0428,-0.7446,-0.7466,-0.6881,-0.5213,-0.5098,-0.4876,-0.437,-0.434,-0.4279,-0.4264,-0.4586,-0.5117,-0.5846,0.0,0.0,0.0,0.0,0.0,0.0,0.0,0.0,0.0,0.0,0.0,0.0,0.0,0.0,0.0,0.0,0.0,0.0,0.0,0.0,0.0,0.0,0.0,-2.654,-2.8976,-3.0557,-3.008,-3.239,-3.2767,-2.9465,-3.1806,-3.3543,-3.3599,-3.5299,-3.6841,-3.8158,-3.8255,-3.857,-3.9139,-3.9156,-3.9321,-3.969,-3.8415,-3.7884,-3.8231,-3.7585,-3.7295,-3.7273,-3.6606,-3.559,-3.4283,-3.2367,-3.0074,-2.7637,-2.6387,-2.5164,-2.392,-2.32,-2.2888,-2.283,-2.2236,-2.2359,-2.2656,-2.1452,-1.9798,-1.8114,-1.7446,-1.6808,-1.614,-1.5515,-1.5312,-1.5312,-1.5327,-1.5283,-1.5313,-1.5374,-1.5358,-1.5328,-1.5448,-1.5653,-1.574,-1.5536,-1.5952,-1.6097,-1.5074,-1.4671,-1.4479,-1.4502,-1.3368,-1.2814,-1.3786,-1.3287,0.0,-1.5052,-1.3365,-1.2,-1.2009,-1.138,-0.9732,-0.6734,-0.8506,-0.8215,-0.4537,-0.5643,-0.5794,-0.4348,-0.4282,-0.4258,-0.4237,-0.5076,-0.5898,-0.6712,0.0,0.0,0.0,0.0,0.0,0.0,0.0,0.0,0.0,0.0,0.0,0.0,0.0,0.0,0.0,0.0,0.0,0.0,0.0,0.0,0.0,-2.5215,-2.857,-2.9613,-3.1448,-3.3302,-3.4977,-3.5993,-3.6146,-3.5052,-3.5684,-3.5999,-3.5638,-3.6075,-3.6519,-3.6919,-3.756,-3.8002,-3.8206,-3.7977,-3.8498,-3.969,-3.7372,-3.7119,-3.8928,-3.7625,-3.711,-3.7273,-3.6141,-3.4956,-3.3678,-3.2164,-3.0335,-2.839,-2.807,-2.7169,-2.5778,-2.3722,-2.2888,-2.2888,-2.2707,-2.2156,-2.154,-2.1685,-2.0465,-1.8753,-1.8143,-1.7795,-1.7446,-1.6314,-1.595,-1.5863,-1.5428,-1.5283,-1.5298,-1.5313,-1.5313,-1.5298,-1.5343,-1.5403,-1.5418,-1.5373,-1.5522,-1.5459,-1.4737,-1.4204,-1.3952,-1.4296,-1.2801,-1.2332,-1.4652,-1.3536,-1.2947,-1.4372,-1.3198,-1.2281,-1.2477,-1.2159,-1.0838,-0.822,-0.8779,-0.7806,-0.4379,-0.495,-0.5048,-0.4203,-0.414,-0.4358,-0.476,-0.5505,-0.6243,0.0,0.0,0.0,0.0,0.0,0.0,0.0,0.0,0.0,0.0,0.0,0.0,0.0,0.0,0.0,0.0,0.0,0.0,0.0,0.0,0.0,0.0,-2.7383,-3.056,-3.2301,-3.4288,-3.6152,-3.7693,-3.7817,-3.7642,-3.7367,-3.7063,-3.6757,-3.643,-3.6405,-3.6405,-3.6405,-3.6896,-3.7222,-3.7222,-3.7052,-3.7386,-3.8133,-3.6569,-3.643,-3.7681,-3.6777,-3.6314,-3.6222,-3.5232,-3.4207,-3.3253,-3.2245,-3.0728,-2.8951,-2.8738,-2.7911,-2.6594,0.0,0.0,0.0,0.0,-2.2788,-2.1133,-2.2062,-2.0959,-1.9014,-1.8404,-1.8201,-1.7998,-1.6936,-1.643,-1.6124,-1.5792,-1.5486,-1.5283,-1.5283,-1.5283,-1.5283,-1.5283,-1.5283,-1.5283,-1.5283,-1.5328,-1.5257,-1.4906,-1.4322,0.0,-1.3933,-1.2496,-1.2054,-1.412,-1.3149,-1.2602,-1.378,-1.2978,-1.2238,-1.2078,-1.2215,-1.1227,-0.8546,-0.9351,0.0,0.0,0.0,-0.5388,-0.4146,-0.4309,0.0,0.0,0.0,-0.6505,-0.6933,-0.7184,0.0,0.0,-0.8079,-0.8187,0.0,0.0,0.0,0.0,0.0,0.0,0.0,0.0,0.0,0.0,0.0,0.0,0.0,0.0,0.0,0.0,-2.9623,-3.1984,-3.4328,-3.6831,-3.8497,-3.8582,-3.8287,-3.7917,-3.7692,-3.6967,-3.6533,-3.6458,-3.6408,-3.6405,-3.6405,-3.6405,0.0,0.0,0.0,-3.6243,-3.6131,-3.5869,-3.5742,-3.571,-3.5534,-3.5277,-3.4893,-3.419,-3.3593,-3.3071,-3.2513,-3.1108,-2.9197,-2.8765,-2.7813,-2.6526,-2.598,-2.5832,-2.589,-2.5575,-2.3659,-2.1394,-2.2504,0.0,0.0,-1.8579,-1.8357,-1.8172,-1.7505,-1.682,-1.6314,-1.6227,-1.5763,-1.5283,-1.5283,-1.5283,-1.5283,-1.5283,-1.5283,-1.5283,-1.5283,-1.5283,-1.5283,-1.5196,-1.4703,-1.4108,-1.3496,-1.2434,-1.1978,-1.289,-1.2405,-1.2288,-1.3184,-1.2665,-1.2004,-1.1468,-1.1963,0.0,-0.8477,-1.0091,-0.9467,-0.5361,-0.6316,-0.6167,-0.4266,-0.4767,-0.5103,-0.5103,-0.6208,-0.6806,-0.6806,-0.733,-0.7605,-0.7612,-0.797,-0.8099,0.0,0.0,0.0,0.0,0.0,0.0,0.0,0.0,0.0,0.0,0.0,0.0,0.0,0.0,0.0,-2.7132,-3.0614,-3.3209,-3.4106,-3.6767,-3.8334,-3.756,-3.7939,-3.8246,-3.7982,-3.7593,-3.7195,-3.6747,-3.6538,-3.6405,-3.6405,-3.6405,-3.6405,-3.6405,-3.5931,-3.604,-3.6776,-3.5142,-3.5029,-3.6402,-3.5204,0.0,-3.5411,-3.438,-3.3837,-3.3647,-3.2609,-3.0835,-2.8752,-2.8634,-2.7508,-2.5853,-2.5664,-2.5977,-2.6329,-2.4244,-2.3084,-2.2569,-2.2801,-2.1228,-1.9159,-1.9595,-1.9362,-1.8811,-1.8201,-1.7534,0.0,-1.6356,-1.5763,-1.5283,-1.5283,-1.5283,-1.5283,-1.5283,-1.5283,-1.5283,-1.5283,-1.5283,-1.5138,-1.4587,-1.4384,-1.4108,-1.3496,-1.2769,-1.2315,-1.2504,-1.2,-1.1847,-1.25,-1.2028,-1.1914,-1.2571,-1.2549,-1.1925,-1.0602,-1.0641,-0.9487,-0.6524,-0.6138,-0.5596,-0.4712,-0.574,-0.6342,-0.6342,-0.7054,-0.7409,-0.7409,-0.7554,-0.7605,-0.7605,-0.7687,-0.7805,0.0,0.0,0.0,0.0,0.0,0.0,0.0,0.0,0.0,0.0,0.0,-2.1367,-2.2871,0.0,-2.6426,-2.8574,-3.1122,-3.2974,-3.3417,-3.5329,-3.6733,-3.7012,-3.7743,-3.8066,-3.7849,-3.7292,-3.6875,-3.6603,-3.6349,-3.6193,-3.6193,-3.631,-3.6405,-3.6405,-3.6107,-3.5911,-3.5827,-3.4799,-3.4481,-3.4832,-3.4108,-3.3669,-3.3497,-3.262,-3.2097,-3.1834,-3.106,-2.9671,-2.793,-2.7712,-2.6149,-2.3924,-2.4966,-2.6155,-2.7031,-2.4444,-2.3252,-2.2839,-2.232,-2.1248,-2.0059,-1.9835,-1.9679,-1.9498,-1.897,-1.8298,-1.7511,-1.6661,-1.6096,-1.5689,-1.537,-1.5283,-1.5283,-1.5283,-1.5283,-1.5283,-1.5283,-1.5283,-1.5196,-1.4877,-1.479,-1.4602,-1.3977,-1.3586,-1.3253,-1.2947,-1.2366,-1.2047,-1.2354,-1.2134,-1.2013,-1.2219,-1.2364,-1.1995,-1.0892,-0.9749,-0.8539,-0.7221,-0.6246,-0.5575,-0.5273,-0.6189,-0.669,-0.669,-0.7301,-0.7605,-0.7605,-0.7605,-0.7605,-0.7605,-0.7605,-0.7657,0.0,0.0,0.0,0.0,0.0,0.0,0.0,-1.9453,-1.9844,-2.1525,-2.2852,-2.4199,-2.5712,-2.7278,-2.8848,-3.0547,-3.1797,-3.2637,-3.2871,-3.4002,-3.5146,-3.5938,-3.6962,-3.7557,-3.7348,-3.6792,-3.6481,-3.6481,-3.6134,-3.5908,-3.5908,-3.6193,-3.631,-3.631,-3.6358,-3.583,-3.4726,-3.468,-3.4173,-3.3111,-3.2968,-3.2441,-3.1512,-3.0783,-3.0206,-2.9742,-2.8924,-2.7927,-2.6836,-2.5792,-2.3861,-2.1753,-2.3494,-2.5047,-2.6115,-2.434,-2.3393,-2.2828,-2.2011,-2.1383,-2.0811,-1.9893,-1.9688,-1.9741,-1.9248,-1.8558,-1.7723,-1.675,-1.6225,-1.583,-1.5273,-1.5172,-1.5273,-1.535,-1.5481,-1.5554,-1.55,-1.5457,-1.5428,-1.5312,-1.5283,-1.5138,-1.4587,-1.45,-1.4253,-1.3496,-1.2931,-1.2586,-1.2586,-1.2586,-1.2395,-1.1925,-1.2192,-1.1878,-1.0604,-0.8952,-0.7822,-0.7438,-0.6454,-0.5783,-0.5546,-0.6148,-0.6567,-0.669,-0.7163,-0.7496,-0.7605,-0.7605,-0.7605,-0.7605,-0.7605,-0.7605,-1.6048,-1.5886,-1.6794,-1.9965,-2.0,-2.0215,0.0,-2.457,-2.4668,-2.6016,-2.7305,-2.8379,-2.8965,-2.9863,-3.1094,-3.2793,-3.3516,-3.375,-3.3398,-3.4727,-3.4962,-3.279,-3.4823,-3.6356,-3.6379,-3.6606,-3.6769,-3.6769,-3.6039,-3.562,-3.562,-3.5908,-3.6051,-3.6051,-3.6288,-3.583,-3.4726,-3.468,-3.4173,-3.3111,-3.2566,-3.224,-3.2064,-3.0557,-2.9854,-2.9628,-2.6971,-2.5769,-2.5343,-2.1986,-2.0342,-2.0062,-2.032,-2.0525,-2.0834,-2.1878,-2.2643,-2.312,-2.2906,-2.1747,-2.0367,-2.0301,-1.9631,-1.874,-1.816,-1.7534,-1.69,-1.6254,-1.5655,-1.5101,-1.4533,-1.4763,-1.5195,-1.5567,-1.6067,-1.6389,-1.6147,-1.6111,-1.5921,-1.5399,-1.5283,-1.5283,-1.5196,-1.5196,-1.4776,-1.3583,-1.3321,-1.3292,-1.3292,-1.3292,-1.3263,-1.3176,-1.2727,-1.1878,-1.0604,-0.9812,-0.8639,-0.6922,-0.6661,-0.6079,-0.494,-0.5499,-0.6084,-0.669,-0.6777,-0.7054,-0.7605,-0.7605,-0.7605,-0.7605,-0.7605,-0.7605,-1.7929,-1.8168,-1.9012,-2.0778,-2.1953,-2.3169,-2.4941,-2.5605,-2.6269,-2.7812,-2.916,-3.0195,-3.0625,-3.1621,-3.2519,-3.2988,-3.3828,-3.4199,-3.3516,-3.38,-3.3415,-3.1612,-3.2566,-3.3649,-3.4352,-3.4305,-3.4513,-3.5098,-3.4714,-3.4702,-3.5332,-3.562,-3.5764,-3.5764,-3.586,-3.5434,-3.4272,-3.4272,-3.3816,-3.2853,-3.2603,-3.2239,-3.1687,-3.0382,-2.9076,-2.7832,-2.7027,-2.6424,-2.582,-2.2924,-2.0939,-1.9811,-1.9811,-1.9811,-1.9938,-2.091,-2.2048,-2.2987,-2.2029,-2.1773,-2.1825,-2.119,-2.0641,-2.0074,-1.9208,-1.8489,-1.7693,-1.6478,-1.6147,-1.6009,-1.5397,-1.5406,-1.5604,-1.578,-1.6007,-1.607,-1.5652,-1.5574,-1.5445,-1.5077,-1.501,-1.5071,-1.5253,-1.5573,-1.5515,-1.4631,-1.4166,-1.3905,-1.3905,-1.3905,-1.3905,-1.3905,-1.3366,-1.2599,-1.1676,-1.0701,-0.9773,-0.8961,-0.7859,-0.717,-0.701,-0.6532,-0.6415,-0.669,-0.6328,-0.6438,-0.7083,-0.7083,-0.7243,-0.7605,-0.7605,-0.7605,-1.8561,-1.9117,-2.0069,-2.1736,-2.3694,-2.5487,-2.6317,-2.7266,-2.8262,-2.9258,-3.041,-3.123,-3.1172,-3.2012,-3.2734,-3.2793,-3.3672,-3.4121,-3.3516,-3.3164,-3.2305,-3.0547,-3.0529,-3.0954,-3.1519,-3.2066,-3.2701,-3.3475,-3.3526,-3.3845,-3.4605,-3.5163,-3.5476,-3.5476,-3.5572,-3.5104,-3.4023,-3.385,-3.3325,-3.2413,-3.2116,-3.163,-3.0973,-2.9788,-2.8411,-2.6952,-2.7178,-2.6977,-2.6273,-2.3376,-2.1267,-1.9811,-1.9811,-1.9811,-1.9861,-2.0289,-2.1393,-2.2493,-2.1468,-2.1896,-2.2716,-2.1739,-2.1198,-2.0716,-1.9846,-1.8996,-1.8041,-1.6669,-1.6421,-1.6413,-1.5792,-1.5721,-1.5891,-1.6022,-1.6155,-1.6086,-1.5487,-1.5478,-1.5457,-1.4976,-1.4886,-1.5021,-1.5386,-1.5705,-1.5791,-1.5519,-1.495,-1.4527,-1.4558,-1.4587,-1.45,-1.4326,-1.3919,-1.325,-1.225,-1.1136,-1.0285,-0.9725,-0.8228,-0.7482,-0.7787,-0.6916,-0.6415,-0.6415,-0.5956,-0.5928,-0.6415,-0.6603,-0.6916,-0.7359,-0.7525,-0.7605,-1.6293,-1.6844,-1.8327,-2.3278,-2.5094,-2.6458,-2.9368,-3.1055,-3.1777,-3.0996,-3.1523,-3.1738,-3.0469,-3.0644,-3.1367,-3.2598,-3.3164,-3.3457,-3.3418,-3.3418,-3.2305,-2.9336,-2.8945,-2.8667,-2.795,-3.0621,-3.2389,-3.2441,-3.2921,-3.325,-3.325,-3.4507,-3.5211,-3.5211,-3.5476,-3.5104,-3.4023,-3.3482,-3.2671,-3.1613,-3.0598,-3.0081,-2.9982,-2.851,-2.7927,-2.7996,-2.6977,-2.6524,-2.6147,-2.1719,-1.9861,-1.9811,-1.9811,-1.9811,-1.9811,-1.9811,-2.0564,-2.1619,-2.2096,-2.2272,-2.225,-2.1672,-2.0742,-1.9736,-1.9183,-1.8278,-1.7295,-1.6669,-1.6141,-1.5608,-1.5074,-1.5326,-1.583,-1.627,-1.6769,-1.6955,-1.6143,-1.6434,-1.6496,-1.5316,-1.5073,-1.5262,-1.5802,-1.5469,-1.5306,-1.5829,-1.5424,-1.5125,-1.525,-1.5254,-1.5022,-1.4355,-1.4268,-1.3528,-1.1693,-1.0915,-0.9696,-0.7807,-0.7083,-0.6444,-0.5806,-0.5743,-0.5743,-0.5743,-0.5714,-0.5714,-0.5743,-0.6386,-0.6719,-0.6748,-0.733,-0.7605,-1.6552,-1.8485,-2.0774,-2.3283,-2.6211,-2.8728,-2.9777,-3.1153,-3.1934,-3.1074,-3.0644,-3.0215,-2.9492,-2.9941,-3.0762,-3.1777,-3.3027,-3.3652,-3.3086,-3.3008,-3.1992,-2.9238,-2.8926,-2.8594,-2.7806,-2.8645,-2.9693,-3.0642,-3.0879,-3.1438,-3.2487,-3.2707,-3.2937,-3.3203,-3.2742,-3.2471,-3.2418,-3.1595,-3.1219,-3.1327,-3.0442,-2.9598,-2.886,-2.8357,-2.7717,-2.7077,-2.7394,-2.7178,-2.6273,-2.3251,-2.1114,-1.9811,-1.9811,-1.9811,-1.9811,-1.9811,-2.0514,-2.1546,-2.1694,-2.1995,-2.2272,-2.2096,-2.1518,-2.074,-1.9811,-1.9284,-1.8807,-1.7903,-1.7225,-1.6794,-1.6619,-1.6396,-1.6267,-1.6435,-1.6583,-1.6548,-1.5949,-1.6252,-1.6364,-1.547,-1.5586,-1.5827,-1.59,-1.6108,-1.6496,-1.7064,-1.5991,-1.4995,-1.4687,-1.4651,-1.4552,-1.433,-1.4302,-1.3856,-1.2803,-1.2086,-1.125,-1.0251,-0.9206,-0.8541,-0.8369,-0.7552,-0.6993,-0.6764,-0.6291,-0.6141,-0.6357,-0.6557,-0.6875,-0.7301,-0.7496,-0.7828,-1.775,-1.9908,-2.2233,-2.4227,-2.7176,-2.9798,-3.0257,-3.1299,-3.1758,-3.0273,-2.9258,-2.8379,-2.748,-2.7637,-2.8398,-2.9902,-3.1074,-3.1973,-3.25,-3.2168,-3.1309,-2.9805,-2.9199,-2.8652,-2.7949,-2.7891,-2.8305,-2.923,-2.9814,-3.0601,-3.1581,-3.1741,-3.1905,-3.2211,-3.1345,-3.0882,-3.0864,-2.9895,-2.9414,-2.9268,-2.907,-2.8787,-2.8382,-2.8191,-2.7361,-2.6144,-2.7087,-2.7153,-2.6323,-2.4054,-2.2268,-2.0941,-2.0387,-2.0011,-1.9811,-1.9811,-2.0388,-2.1245,-2.1418,-2.1845,-2.2347,-2.2518,-2.2096,-2.1393,-2.0865,-2.0439,-1.9962,-1.9284,-1.8555,-1.8003,-1.8204,-1.7827,-1.7378,-1.7378,-1.7378,-1.7177,-1.6446,-1.6722,-1.6863,-1.5971,-1.6063,-1.6272,-1.6147,-1.6461,-1.6817,-1.7015,-1.6079,-1.5228,-1.4928,-1.4718,-1.4528,-1.4327,-1.43,-1.3932,-1.3017,-1.2557,-1.1965,-1.1161,-1.0162,-0.9613,-0.9647,-0.8685,-0.7921,-0.7455,-0.6978,-0.6711,-0.6713,-0.6678,-0.6917,-0.7437,-0.7483,-0.7721,-1.9711,-2.1086,-2.2616,-2.5862,-2.7933,-2.9513,-3.0707,-3.152,-3.123,-2.8691,-2.7422,-2.6269,-2.457,-2.4004,-2.4609,-2.7148,-2.7787,-2.8922,-3.1758,-3.1152,-3.0527,-3.0879,-2.9805,-2.8828,-2.8379,-2.832,-2.832,-2.8301,-2.9654,-3.0488,-3.0549,-3.1497,-3.2023,-3.2045,-3.1215,-3.0308,-2.9441,-2.8508,-2.7327,-2.5819,-2.6712,-2.7551,-2.8331,-2.7845,-2.6771,-2.5335,-2.6094,-2.643,-2.6255,-2.3992,-2.3065,-2.297,-2.1462,-2.0435,-1.981,-1.9811,-2.0162,-2.0767,-2.1295,-2.182,-2.2347,-2.2844,-2.2372,-2.1619,-2.2121,-2.1568,-2.0767,-2.0742,-1.9936,-1.9208,-1.971,-1.9459,-1.9033,-1.9033,-1.9033,-1.8707,-1.7702,-1.7877,-1.7903,-1.6751,-1.6525,-1.65,-1.6525,-1.6525,-1.6346,-1.5819,-1.5743,-1.5798,-1.5927,-1.5443,-1.4887,-1.436,-1.4306,-1.376,-1.2446,-1.2365,-1.1828,-1.0582,-0.9999,-0.9678,-0.9652,-0.9132,-0.8498,-0.7777,-0.7777,-0.7445,-0.6808,-0.6851,-0.6985,-0.7185,-0.7315,-0.7435,-2.1042,-2.2901,-2.4679,-2.5331,-2.7217,-2.8867,-2.8734,-2.8678,-2.8239,-2.671,-2.4894,-2.332,-2.2204,-2.3008,-2.4316,-2.5957,-2.8652,-3.0918,-3.2012,-3.2695,-3.2656,-3.1504,-3.0781,-2.9961,-2.8867,-2.8769,-2.8633,-2.832,-2.8647,-2.9144,-2.9798,-2.9793,-2.9916,-3.0238,-2.9144,-2.8594,-2.8747,-2.792,-2.6933,-2.5777,-2.6027,-2.6057,-2.5883,-2.5487,-2.5301,-2.53,-2.5535,-2.5606,-2.5436,-2.3296,-2.2696,-2.294,-2.1297,-2.0523,-2.028,-1.9936,-2.0135,-2.0582,-2.084,-2.127,-2.1719,-2.187,-2.1995,-2.2046,-2.1769,-2.1794,-2.182,-2.1393,-2.0817,-2.0314,-2.044,-2.0037,-1.961,-1.961,-1.9284,-1.8933,-1.8632,-1.8682,-1.8456,-1.7375,-1.6823,-1.6626,-1.7074,-1.6798,-1.645,-1.6321,-1.63,-1.6027,-1.5274,-1.5043,-1.4736,-1.4207,-1.4156,-1.3839,-1.3055,-1.2962,-1.265,-1.1847,-1.1307,-1.0788,-1.0293,-0.9767,-0.9252,-0.8752,-0.8752,-0.8549,-0.8125,-0.808,-0.8109,-0.8207,-0.8246,-0.8505,-2.2798,-2.4437,-2.5696,-2.552,-2.6756,-2.7804,-2.686,-2.6556,-2.5927,-2.4117,-2.2438,-2.1055,-1.9982,-2.0762,-2.2148,-2.3978,-2.6621,-2.9219,-3.1562,-3.2012,-3.2168,-3.2324,-3.1484,-3.0449,-2.9316,-2.9199,-2.8945,-2.834,-2.8457,-2.8769,-2.9258,-2.9238,-2.9219,-2.9277,-2.8276,-2.7396,-2.6685,-2.6073,-2.5367,-2.4616,-2.502,-2.4955,-2.4486,-2.4328,-2.4315,-2.4323,-2.3586,-2.3231,-2.3135,-2.1969,-2.1623,-2.1666,-2.0618,-2.007,-1.9837,-1.9861,-1.9932,-2.0073,-2.043,-2.0784,-2.1112,-2.1418,-2.1694,-2.1945,-2.187,-2.2246,-2.2569,-2.2297,-2.182,-2.1443,-2.1694,-2.1317,-2.0916,-2.0916,-2.069,-2.0362,-2.0162,-2.0112,-1.9861,-1.9007,-1.8179,-1.7779,-1.8355,-1.7978,-1.7528,-1.7277,-1.725,-1.6848,-1.5743,-1.5412,-1.5035,-1.45,-1.4223,-1.3946,-1.3609,-1.3341,-1.3039,-1.2672,-1.2141,-1.1548,-1.0875,-1.0335,-0.9822,-0.9342,-0.9305,-0.9205,-0.8987,-0.8713,-0.8657,-0.8779,-0.853,-0.8639,-2.4642,-2.5681,-2.6164,-2.6003,-2.6504,-2.6679,-2.5208,-2.475,-2.3938,-2.1472,-2.0196,-1.9238,-1.8125,-1.8383,-1.9592,-2.2187,-2.3769,-2.623,-3.0723,-3.0469,-3.0644,-3.2832,-3.1777,-3.0527,-2.957,-2.9492,-2.9121,-2.8281,-2.8594,-2.8867,-2.8906,-2.9219,-2.9141,-2.8594,-2.7812,-2.6426,-2.4355,-2.3965,-2.3574,-2.3101,-2.395,-2.4091,-2.3638,-2.3742,-2.3487,-2.2862,-2.131,-2.0546,-2.0427,-2.0496,-2.0362,-2.002,-1.978,-1.9403,-1.9135,-1.9662,-1.9625,-1.9398,-1.9997,-2.0223,-2.0404,-2.1159,-2.1418,-2.1594,-2.2146,-2.2619,-2.302,-2.307,-2.271,-2.2376,-2.285,-2.2625,-2.2276,-2.2276,-2.2314,-2.2171,-2.1694,-2.1468,-2.1295,-2.0893,-1.9886,-1.9259,-1.9736,-1.9409,-1.8907,-1.8405,-1.8356,-1.798,-1.6829,-1.6174,-1.5593,-1.506,-1.4601,-1.4249,-1.4116,-1.3591,-1.3221,-1.3077,-1.2564,-1.1946,-1.1311,-1.0773,-1.0192,-0.9603,-0.9579,-0.9563,-0.9497,-0.9043,-0.89,-0.9058,-0.8597,-0.8462,-2.5666,-2.6515,-2.6969,-2.5886,-2.6201,-2.6166,-2.3921,-2.2564,-2.1389,-1.9928,-1.8672,-1.7754,-1.7539,-1.8691,-2.0391,-2.2633,-2.4727,-2.707,-3.0019,-3.0859,-3.1211,-3.1309,-3.1074,-3.041,-2.916,-2.9023,-2.8691,-2.7885,-2.8164,-2.8555,-2.8906,-2.8652,-2.7988,-2.6855,-2.6328,-2.5371,-2.3906,-2.3828,-2.3574,-2.3101,-2.3256,-2.3126,-2.2692,-2.2401,-2.2066,-2.1649,-2.0919,-2.0194,-1.9583,-2.0106,-2.0126,-1.9771,-1.9613,-1.9483,-1.939,-1.9164,-1.897,-1.8836,-1.9102,-1.9184,-1.9372,-2.048,-2.1144,-2.1594,-2.2146,-2.2343,-2.2518,-2.297,-2.2628,-2.2158,-2.2255,-2.2207,-2.2134,-2.2134,-2.2209,-2.2268,-2.2196,-2.1443,-2.0943,-2.1295,-2.0439,-1.9685,-1.9786,-1.9736,-1.9484,-1.8933,-1.9133,-1.8958,-1.7887,-1.6932,-1.617,-1.5618,-1.5487,-1.506,-1.4191,-1.3888,-1.353,-1.2955,-1.2372,-1.1786,-1.1157,-1.0611,-1.0067,-0.9523,-0.9523,-0.951,-0.951,-0.9414,-0.9379,-0.9418,-0.9322,-0.9286,-2.6091,-2.6735,-2.6954,-2.5813,-2.5041,-2.4039,-2.2091,-2.0276,-1.854,-1.7153,-1.651,-1.6148,-1.592,-1.7572,-1.9414,-2.0898,-2.2773,-2.5098,-2.8105,-2.8711,-2.9258,-3.0391,-3.0332,-2.9863,-2.9004,-2.8711,-2.8418,-2.8027,-2.7969,-2.7949,-2.793,-2.7519,-2.6914,-2.6074,-2.5625,-2.4883,-2.3809,-2.3789,-2.3574,-2.3101,-2.3101,-2.2769,-2.2187,-2.1973,-2.1543,-2.0957,-2.0723,-2.037,-1.9977,-1.9805,-1.9666,-1.9444,-1.8916,-1.8762,-1.8871,-1.8934,-1.8791,-1.8668,-1.9069,-1.9011,-1.8888,-1.9546,-2.0013,-2.037,-2.0404,-2.084,-2.135,-2.1614,-2.1632,-2.1596,-2.1596,-2.1596,-2.1596,-2.1596,-2.154,-2.1504,-2.1412,-2.1063,-2.0807,-2.1009,-2.0527,-2.0245,-2.0791,-2.0653,-2.0422,-2.0202,-2.0246,-1.9943,-1.8882,-1.8066,-1.7171,-1.6076,-1.5703,-1.533,-1.4828,-1.4428,-1.3938,-1.3307,-1.3003,-1.244,-1.156,-1.099,-1.0447,-0.9918,-0.9918,-0.9918,-0.9918,-0.9918,-0.9918,-0.9918,-0.963,-0.951,-2.6249,-2.6691,-2.672,-2.5608,-2.4163,-2.2438,-2.0539,-1.8579,-1.6629,-1.4968,-1.4857,-1.4995,-1.4683,-1.6325,-1.8105,-1.9238,-2.0488,-2.2559,-2.6094,-2.6406,-2.709,-2.9375,-2.9512,-2.9258,-2.8828,-2.8496,-2.8223,-2.8027,-2.7461,-2.7051,-2.6894,-2.6387,-2.5859,-2.5284,-2.498,-2.4434,-2.3652,-2.3652,-2.3477,-2.3101,-2.3101,-2.2695,-2.1894,-2.1894,-2.1406,-2.0605,-2.0605,-2.0546,-2.037,-1.9687,-1.9258,-1.8965,-1.8379,-1.8174,-1.8296,-1.8655,-1.8621,-1.8468,-1.9019,-1.889,-1.8538,-1.8563,-1.8879,-1.917,-1.8873,-1.9483,-2.0251,-2.0305,-2.0546,-2.0805,-2.0805,-2.0837,-2.0901,-2.1028,-2.091,-2.0728,-2.0623,-2.0687,-2.0728,-2.0623,-2.0488,-2.0587,-2.13,-2.1174,-2.0949,-2.0894,-2.0861,-2.0457,-1.9401,-1.8845,-1.8057,-1.6736,-1.6091,-1.5635,-1.5434,-1.4931,-1.4406,-1.3812,-1.3647,-1.3125,-1.2114,-1.156,-1.1015,-1.0471,-1.0485,-1.0485,-1.0485,-1.0485,-1.0399,-1.0279,-0.987,-0.9606,-2.6224,-2.6515,-2.6617,-2.5052,-2.4396,-2.3267,-1.9909,-1.8246,-1.6911,-1.5001,-1.4857,-1.5087,-1.505,-1.6027,-1.7467,-1.9531,-1.9668,-2.0859,-2.4707,-2.5566,-2.6328,-2.7787,-2.8535,-2.8809,-2.8398,-2.832,-2.7969,-2.7187,-2.5996,-2.5693,-2.6406,-2.5644,-2.4871,-2.4004,-2.3926,-2.3691,-2.3159,-2.3159,-2.314,-2.3101,-2.3101,-2.2695,-2.1894,-2.1894,-2.1406,-2.0605,-2.0605,-2.0273,-1.9767,-1.9844,-1.918,-1.8164,-1.8422,-1.832,-1.8017,-1.809,-1.8051,-1.8059,-1.8133,-1.8113,-1.8034,-1.7672,-1.8166,-1.894,-1.9044,-1.9373,-1.9798,-1.9913,-1.9925,-1.9901,-1.9901,-2.0063,-2.0323,-2.0728,-2.0696,-2.0623,-2.059,-2.0623,-2.0623,-2.059,-2.06,-2.0421,-1.9963,-2.0317,-2.0471,-1.9921,-2.0142,-1.9972,-1.8903,-1.8599,-1.8349,-1.7878,-1.7242,-1.6446,-1.5463,-1.5257,-1.4906,-1.4347,-1.3804,-1.324,-1.2643,-1.2114,-1.1584,-1.1039,-1.1015,-1.1015,-1.1015,-1.1015,-1.0774,-1.0303,-1.0255,-0.9966,-2.7178,-2.7573,-2.7246,-2.5674,-2.3688,-2.1455,-1.8874,-1.6783,-1.5003,-1.3616,-1.3607,-1.3879,-1.4105,-1.5177,-1.6476,-1.775,-1.7818,-1.873,-2.1562,-2.2129,-2.3203,-2.5849,-2.6641,-2.7344,-2.8203,-2.7832,-2.7168,-2.6259,-2.5273,-2.4824,-2.5176,-2.4629,-2.4023,-2.3418,-2.3398,-2.3276,-2.3101,-2.3101,-2.3101,-2.3101,-2.3101,-2.2695,-2.1894,-2.1894,-2.1406,-2.0605,-2.0605,-2.0468,-2.0195,-1.9727,-1.9336,-1.8948,-1.8422,-1.813,-1.8008,-1.8008,-1.8008,-1.8008,-1.8008,-1.8008,-1.7988,-1.7812,-1.8015,-1.8306,-1.7937,-1.8197,-1.8638,-1.8701,-1.8843,-1.9031,-1.9031,-1.9065,-1.9198,-1.9375,-1.9309,-1.9177,-1.9044,-1.9144,-1.9177,-1.9044,-1.921,-1.9345,-1.9426,-1.9652,-1.9879,-2.0036,-2.0136,-2.0008,-1.9603,-1.9204,-1.882,-1.835,-1.7878,-1.7332,-1.6662,-1.6566,-1.6013,-1.4856,-1.4526,-1.4045,-1.3216,-1.2685,-1.2138,-1.1592,-1.1584,-1.1584,-1.1584,-1.1584,-1.1303,-1.0774,-1.0461,-1.0015,-2.682,-2.7229,-2.6925,-2.55,-2.2693,-1.9813,-1.7955,-1.5613,-1.3623,-1.2819,-1.2928,-1.3188,-1.3333,-1.4663,-1.5905,-1.6357,-1.6709,-1.7584,-1.9629,-2.0019,-2.1152,-2.3984,-2.4707,-2.5644,-2.7363,-2.7109,-2.6465,-2.5605,-2.4727,-2.4238,-2.4238,-2.3828,-2.3457,-2.3101,-2.3101,-2.3101,-2.3101,-2.3101,-2.3101,-2.3101,-2.3101,-2.2711,-2.207,-2.1934,-2.1484,-2.0762,-2.0664,-2.0605,-2.0566,-1.9959,-1.959,-1.9377,-1.8672,-1.8223,-1.8008,-1.8008,-1.8008,-1.8008,-1.8008,-1.8008,-1.8008,-1.8008,-1.8008,-1.7891,-1.7448,-1.7585,-1.7902,-1.7783,-1.8075,-1.8448,-1.8482,-1.8482,-1.8448,-1.8448,-1.8313,-1.8178,-1.8042,-1.811,-1.8178,-1.8042,-1.8178,-1.8482,-1.8844,-1.8911,-1.9077,-1.9552,-1.954,-1.9474,-1.9474,-1.9167,-1.8828,-1.8668,-1.845,-1.8014,-1.7305,-1.7035,-1.6382,-1.5266,-1.493,-1.4491,-1.3753,-1.3363,-1.2926,-1.2379,-1.2354,-1.2299,-1.2138,-1.2138,-1.1873,-1.1343,-1.0942,-1.0485,-2.4361,-2.4768,-2.5187,-2.419,-2.1597,-1.8913,-1.7284,-1.5157,-1.3404,-1.3067,-1.3279,-1.3391,-1.306,-1.4691,-1.6039,-1.5831,-1.6682,-1.7969,-1.9668,-2.0293,-2.1055,-2.2383,-2.293,-2.3867,-2.5538,-2.6152,-2.6035,-2.5184,-2.4277,-2.3789,-2.3789,-2.3379,-2.3101,-2.3101,-2.3101,-2.3101,-2.3101,-2.3101,-2.3101,-2.3101,-2.3101,-2.2867,-2.248,-2.207,-2.1641,-2.1171,-2.0762,-2.0605,-2.0605,-2.0586,-1.994,-1.8926,-1.918,-1.875,-1.8008,-1.8008,-1.8008,-1.8008,-1.8008,-1.8008,-1.8008,-1.8008,-1.8008,-1.8008,-1.8008,-1.8008,-1.791,-1.7533,-1.7842,-1.8347,-1.8482,-1.8414,-1.8313,-1.8313,-1.8144,-1.8008,-1.8008,-1.8008,-1.8008,-1.8008,-1.8008,-1.8008,-1.8008,-1.8008,-1.8008,-1.8008,-1.8008,-1.8008,-1.8008,-1.8008,-1.8259,-1.8924,-1.899,-1.8437,-1.7006,-1.6105,-1.5618,-1.5596,-1.4787,-1.4307,-1.4284,-1.4302,-1.4012,-1.3481,-1.3481,-1.3216,-1.2692,-1.2692,-1.2403,-1.1897,-1.1897,-1.1608,-2.4052,-2.4237,-2.3836,-2.2333,-2.0184,-1.7902,-1.5948,-1.4311,-1.314,-1.3023,-1.2917,-1.2904,-1.3294,-1.3883,-1.4547,-1.5217,-1.5626,-1.6412,-1.8005,-1.9126,-2.0623,-2.312,-2.4422,-2.4826,-2.3996,-2.3619,-2.3353,-2.3205,-2.2689,-2.2656,-2.3296,-2.3179,-2.3101,-2.3101,-2.3101,-2.3101,-2.3101,-2.3101,-2.3101,-2.3101,-2.3101,-2.2773,-2.209,-2.1953,-2.1484,-2.0762,-2.0664,-2.0605,-2.0586,-2.0234,-1.9629,-1.8887,-1.8848,-1.8461,-1.8008,-1.8008,-1.8008,-1.8008,-1.8008,-1.8008,-1.8008,-1.8008,-1.8008,-1.8008,-1.8008,-1.8008,-1.7988,-1.7852,-1.7944,-1.8144,-1.8313,-1.8245,-1.8144,-1.8279,-1.8144,-1.8008,-1.8008,-1.8008,-1.8008,-1.8008,-1.8008,-1.8008,-1.8008,-1.8008,-1.8008,-1.8008,-1.8008,-1.8008,-1.8008,-1.8008,-1.8076,-1.8293,-1.8327,-1.821,-1.8008,-1.773,-1.7276,-1.6552,-1.5655,-1.5204,-1.5175,-1.4293,-1.3707,-1.3486,-1.3141,-1.2676,-1.2162,-1.2162,-1.1704,-1.0798,-1.0437,-1.0365,-2.2266,-2.2745,-2.2411,-2.0968,-1.9001,-1.7001,-1.5309,-1.3805,-1.2862,-1.298,-1.2711,-1.2583,-1.2882,-1.3384,-1.3878,-1.4313,-1.4849,-1.5549,-1.667,-1.7812,-1.9331,-2.1577,-2.3329,-2.3695,-2.1884,-2.1867,-2.1878,-2.1524,-2.1284,-2.1561,-2.2511,-2.2555,-2.2731,-2.3101,-2.3101,-2.3023,-2.2867,-2.2847,-2.2789,-2.2676,-2.2676,-2.2383,-2.1875,-2.1719,-2.1348,-2.082,-2.0683,-2.0507,0.0,-2.0019,-1.9512,-1.8867,-1.8769,-1.8437,-1.8008,-1.8008,-1.8008,-1.8008,-1.8008,-1.8008,-1.8008,-1.8008,-1.8008,-1.8008,-1.8008,-1.8008,-1.8008,-1.8008,-1.8008,-1.8042,-1.8144,-1.8076,-1.8042,-1.8178,-1.8076,-1.8008,-1.8008,-1.8008,-1.8008,-1.8008,-1.8008,-1.8008,-1.8008,-1.8008,-1.8008,-1.8008,-1.8008,-1.8008,-1.8008,-1.8008,-1.8008,-1.8008,-1.8008,-1.8095,-1.8289,-1.803,-1.7541,-1.687,-1.6035,-1.5416,-1.5094,-1.4283,-1.3627,-1.3069,-1.2869,-1.2422,-1.168,-1.1623,-1.1255,-1.0591,-1.0255,-1.0279,0.0,-2.0308,-2.0799,-1.9748,-1.7928,-1.6025,-1.4988,-1.3572,0.0,-1.2906,-1.2716,-1.2375,-1.2142,-1.3129,-1.3789,-1.3299,-1.4313,-1.5291,-1.5631,-1.6712,-1.7792,-1.8619,-2.0486,-2.1038,-1.9424,-2.0745,-2.1244,-2.0172,-2.0104,-2.0557,-2.1561,-2.1606,-2.1987,-2.2824,-2.2911,-2.2823,-2.2519,-2.248,-2.2266,-2.1894,-2.1894,-2.1875,-2.1816,-2.1387,-2.1151,-2.1112,-2.0723,-2.0293,-1.9922,-1.9922,-1.9512,-1.8867,-1.8867,-1.8516,-1.8008,-1.8008,-1.8008,-1.8008,-1.8008,-1.8008,-1.8008,-1.8008,-1.8008,-1.8008,-1.8008,-1.8008,-1.8008,-1.8008,-1.8008,-1.8008,-1.8008,-1.8008,-1.8008,-1.8008,-1.8008,-1.8008,-1.8008,-1.8008,-1.8008,-1.8008,-1.8008,-1.8008,-1.8008,-1.8008,-1.8008,-1.8008,-1.8008,-1.8008,-1.8008,-1.8008,-1.8008,-1.7969,-1.7969,-1.7949,-1.793,-1.7213,-1.6785,-1.6785,-1.6016,-1.5198,-1.4332,-1.4273,-1.3629,-1.2331,-1.2589,-1.2238,-1.1223,-1.1088,-1.1001,-1.096,-1.0984,-1.1023,-1.7243,0.0,-1.7297,-1.6813,-1.5667,-1.4464,0.0,-1.274,-1.2215,-1.2536,-1.2346,-1.2317,-1.3023,-1.2794,-1.2688,-1.3334,-1.3701,-1.4274,-1.5276,-1.8272,-2.0281,-2.0006,-2.0927,-2.0657,-1.8421,-1.8573,-1.8876,-1.9104,-1.9101,-1.9559,-2.0512,-2.0557,-2.0552,-2.058,-2.1236,-2.1868,-2.2477,-2.2187,-2.1973,-2.1894,-2.1894,-2.1699,-2.1327,-2.0918,-2.0723,-2.0742,-2.0254,-2.0,-1.9922,-1.9922,-1.9397,-1.8656,-1.8656,-1.8418,-1.8008,-1.8008,-1.8008,-1.8008,-1.8008,-1.8008,-1.8008,-1.8008,-1.8008,-1.8008,-1.8008,-1.8008,-1.8008,-1.8008,-1.8008,-1.8008,-1.8008,-1.8008,-1.8008,-1.8008,-1.8008,-1.8008,-1.8008,-1.8008,-1.8008,-1.8008,-1.8008,-1.8008,-1.8008,-1.8008,-1.8008,-1.8008,-1.8008,-1.8008,-1.8008,-1.8008,-1.7891,-1.7559,-1.7539,-1.7402,-1.7038,-1.7408,-1.7681,-1.7681,-1.6892,-1.6048,-1.5225,-1.422,-1.324,-1.2331,-1.1579,-1.0935,-1.03,-1.0206,-0.9972,-0.9587,-0.9886,-1.0205,-1.5468,-1.5951,-1.6338,-1.5618,-1.4741,-1.387,-1.3079,-1.2444,-1.2022,-1.2163,-1.1978,-1.1996,-1.2599,-1.208,-1.1923,-1.2941,-1.2953,-1.3341,-1.492,-1.7565,-1.9304,-1.9244,-1.9718,-1.9497,-1.815,-1.7911,-1.7915,-1.8087,-1.8102,-1.8519,-1.9513,-1.9393,-1.948,-1.978,-1.9911,-2.0371,-2.1313,-2.1494,-2.1484,-2.131,-2.131,-2.1152,-2.0918,-2.0723,-2.0488,-2.0254,-2.0019,-1.965,-1.9299,-1.9299,-1.8909,-1.8325,-1.8325,-1.8169,-1.8008,-1.8008,-1.8008,-1.8008,-1.8008,-1.8008,-1.8008,-1.8008,-1.8008,-1.8008,-1.8008,-1.8008,-1.8008,-1.8008,-1.8144,-1.8227,-1.8066,-1.8144,-1.8208,-1.8047,-1.8008,-1.8008,-1.8008,-1.8008,-1.8008,-1.8008,-1.8008,-1.8008,-1.8008,-1.8008,-1.8008,-1.8008,-1.8008,-1.8008,-1.8008,-1.7832,-1.7637,-1.7402,-1.7207,-1.6992,-1.6726,-1.7116,-1.7324,-1.7129,-1.6484,-1.5713,-1.4894,-1.3978,-1.311,-1.2274,-1.1044,-1.0396,-1.0325,-1.0042,-0.9754,-0.9463,-0.9507,-0.9709,-1.4113,-1.5342,-1.628,-1.5087,-1.4287,-1.3585,-1.2773,-1.2227,-1.184,-1.1743,-1.1667,-1.1641,-1.1829,-1.1536,-1.1597,-1.2598,-1.268,-1.3251,-1.5107,-1.6477,-1.7416,-1.7765,-1.8145,-1.8291,-1.8101,-1.7867,-1.7604,-1.7282,-1.7252,-1.7594,-1.8408,-1.8171,-1.8382,-1.9171,-1.8676,-1.8735,-1.938,-2.027,-2.062,-2.0411,-2.0294,-2.0333,-2.0605,-2.0314,-2.0081,-1.9902,-1.9766,-1.9243,-1.8421,-1.8421,-1.8205,-1.7837,-1.7837,-1.7906,-1.8008,-1.8008,-1.8008,-1.8008,-1.8008,-1.8008,-1.8008,-1.8008,-1.8008,-1.8008,-1.8008,-1.8008,-1.8008,-1.8008,-1.8227,-1.8422,-1.8105,-1.8247,-1.8422,-1.8086,-1.8008,-1.8027,-1.8086,-1.8047,-1.8027,-1.8086,-1.8047,-1.8027,-1.8086,-1.8047,-1.8027,-1.8086,-1.8047,-1.7988,-1.793,-1.7598,-1.7357,-1.722,-1.6855,-1.657,-1.6512,-1.6492,-1.6348,-1.5928,-1.5703,-1.5167,-1.425,-1.3516,-1.2784,-1.2126,-1.0817,-1.0249,-1.0541,-1.0152,-0.9919,-0.9819,-0.9547,-0.9495,-1.3852,-1.4353,-1.4642,-1.37,-1.2908,-1.2207,-1.1783,-1.1446,-1.1255,-1.135,-1.1457,-1.1666,-1.2126,-1.2131,-1.2269,-1.2999,-1.4369,-1.5806,-1.7227,-1.8288,-1.8628,-1.7896,-1.835,-1.8291,-1.7226,-1.7282,-1.7267,-1.6991,-1.6976,-1.6904,-1.6788,-1.6728,-1.6624,-1.6485,-1.7074,-1.733,-1.7188,-1.8042,-1.8829,-1.949,-1.8758,-1.9155,-2.0547,-1.9071,-1.8939,-1.9883,-1.9104,-1.8359,-1.7674,-1.7674,-1.7415,-1.7079,-1.7079,-1.7442,-1.8008,-1.8008,-1.8008,-1.8008,-1.8008,-1.8008,-1.8008,-1.8008,-1.8008,-1.8008,-1.8008,-1.8008,-1.8008,-1.8008,-1.8047,-1.8086,-1.8027,-1.8066,-1.8086,-1.8027,-1.8008,-1.8105,-1.8422,-1.8227,-1.8105,-1.8442,-1.8227,-1.8125,-1.8442,-1.8242,-1.8125,-1.8461,-1.8208,-1.7871,-1.7519,-1.7422,-1.7122,-1.6378,-1.6242,-1.6016,-1.5615,-1.5605,-1.543,-1.5028,-1.5957,-1.5946,-1.4727,-1.252,-1.143,-1.1674,-1.0745,-1.0094,-0.9774,-1.0091,-0.9981,-0.9489,-0.9819,-0.9751,-1.2069,-1.2453,-1.2663,-1.1992,-1.2139,-1.2312,-1.1736,-1.1455,-1.1311,-1.1265,-1.1642,-1.1963,-1.1983,-1.2123,-1.2522,-1.336,-1.4907,-1.6218,-1.6775,-1.7534,-1.7934,-1.7804,-1.7925,-1.7838,-1.7413,-1.7194,-1.6945,-1.6653,-1.6639,-1.6507,-1.614,-1.595,-1.5789,-1.5615,-1.5842,-1.5959,-1.5989,-1.6386,-1.7286,-1.8598,-1.803,-1.8228,-1.9177,-1.7975,-1.7744,-1.8245,-1.7661,-1.7063,-1.651,-1.651,-1.6404,-1.6298,-1.6715,-1.7113,-1.7442,-1.7872,-1.8008,-1.8008,-1.8008,-1.8008,-1.794,-1.7545,-1.7407,-1.732,-1.6872,-1.6768,-1.6788,-1.6971,-1.7828,-1.8652,-1.8383,-1.8516,-1.8633,-1.8364,-1.8184,-1.8125,-1.85,-1.8442,-1.8364,-1.8559,-1.8442,-1.8364,-1.8559,-1.8247,-1.8144,-1.8539,-1.8247,-1.7949,-1.7754,-1.7324,-1.6875,-1.6465,-1.5996,-1.5625,-1.543,-1.541,-1.5234,-1.4833,-1.5352,-1.541,-1.4805,-1.2969,-1.207,-1.2289,-1.0978,-1.0176,-0.998,-1.0176,-1.0154,-0.9888,-0.9848,-0.9785,-1.068,-1.1089,-1.141,-1.0921,-1.1676,-1.2392,-1.1867,-1.1662,-1.1619,-1.1703,-1.2128,-1.2378,-1.197,-1.2287,-1.2916,-1.3896,-1.5408,-1.6453,-1.6554,-1.7023,-1.7503,-1.7882,-1.7606,-1.7428,-1.7601,-1.7156,-1.6663,-1.6271,-1.6242,-1.6038,-1.5546,-1.5285,-1.5153,-1.5122,-1.4906,-1.4947,-1.5204,-1.5236,-1.6073,-1.758,-1.7096,-1.7181,-1.7746,-1.6924,-1.6618,-1.6767,-1.6409,-1.5939,-1.5419,-1.5419,-1.5419,-1.549,-1.6123,-1.6472,-1.6698,-1.727,-1.7442,-1.7442,-1.7442,-1.7442,-1.7373,-1.6802,-1.6611,-1.6507,-1.5877,-1.5702,-1.5735,-1.6024,-1.7369,-1.8689,-1.851,-1.8735,-1.8889,-1.8526,-1.8219,-1.8069,-1.8256,-1.8383,-1.8488,-1.8584,-1.8592,-1.8637,-1.8734,-1.8359,-1.8144,-1.8539,-1.8247,-1.7969,-1.7871,-1.7285,-1.6804,-1.6707,-1.6035,-1.5527,-1.541,-1.541,-1.5273,-1.4941,-1.4844,-1.4813,-1.4813,-1.3678,-1.3027,-1.3027,-1.1447,-1.0606,-1.0606,-1.041,-1.0293,-1.0293,-0.9941,-0.9837,-1.0889,-1.143,-1.1792,-1.1436,-1.1423,-1.1578,-1.1819,-1.1895,-1.211,-1.3058,-1.3006,-1.2712,-1.2549,-1.301,-1.3789,-1.4906,-1.64,-1.7596,-1.8142,-1.8506,-1.8678,-1.8397,-1.7839,-1.738,-1.7064,-1.679,-1.6401,-1.5796,-1.5754,-1.5373,-1.4472,-1.4402,-1.4356,-1.4309,-1.4514,-1.4609,-1.4585,-1.4823,-1.5398,-1.6325,-1.5488,-1.5795,-1.7049,-1.5781,-1.5692,-1.6409,-1.5942,-1.5346,-1.4673,-1.4673,-1.4673,-1.4673,-1.4744,-1.5171,-1.5772,-1.5842,-1.5877,-1.5877,-1.5877,-1.5877,-1.5842,-1.5807,-1.5772,-1.5772,-1.5702,-1.5702,-1.5719,-1.5736,-1.6392,-1.7206,-1.7879,-1.8082,-1.8101,-1.8064,-1.8027,-1.7896,-1.7548,-1.7756,-1.8137,-1.8522,-1.8597,-1.8734,-1.916,-1.8555,-1.8144,-1.8539,-1.8247,-1.7871,-1.748,-1.7383,-1.7187,-1.6746,-1.6309,-1.587,-1.5449,-1.541,-1.5391,-1.5371,-1.5,-1.4813,-1.4813,-1.3926,-1.3457,-1.3457,-1.2171,-1.1508,-1.1508,-1.0684,-1.0293,-1.0293,-1.0273,-1.0038,-1.072,-1.1055,-1.1289,-1.1182,-1.1156,-1.1329,-1.1984,-1.2425,-1.2784,-1.297,-1.3642,-1.3963,-1.3333,-1.34,-1.3884,-1.4892,-1.6028,-1.705,-1.7998,-1.8271,-1.8293,-1.8184,-1.7964,-1.7442,-1.6608,-1.6364,-1.5959,-1.5147,-1.4909,-1.4573,-1.4027,-1.3817,-1.3825,-1.3934,-1.3903,-1.4041,-1.4351,-1.432,-1.4334,-1.4466,-1.4379,-1.4641,-1.5227,-1.4462,-1.4325,-1.468,-1.4304,-1.397,-1.3731,-1.3571,-1.3608,-1.3804,-1.435,-1.5029,-1.5702,-1.5702,-1.5702,-1.5702,-1.5702,-1.5702,-1.5631,-1.5171,-1.5029,-1.4922,-1.4474,-1.4346,-1.4392,-1.4558,-1.4844,-1.5433,-1.6928,-1.7318,-1.7389,-1.7597,-1.7243,-1.6994,-1.7312,-1.7523,-1.7663,-1.7803,-1.7861,-1.8058,-1.8732,-1.8189,-1.7972,-1.8893,-1.8672,-1.8208,-1.7832,-1.7773,-1.7617,-1.7187,-1.6515,-1.5909,-1.5449,-1.541,-1.541,-1.541,-1.5273,-1.5176,-1.5176,-1.4328,-1.3743,-1.3516,-1.25,-1.1699,-1.1152,-1.084,-1.0547,-1.0293,-1.0293,-1.0195,-1.0559,-1.06,-1.0621,-1.0841,-1.0929,-1.1276,-1.2345,-1.2986,-1.344,-1.3829,-1.4338,-1.4536,-1.3973,-1.38,-1.4108,-1.5084,-1.6027,-1.6827,-1.7609,-1.7707,-1.7688,-1.7496,-1.7377,-1.6967,-1.604,-1.5814,-1.5456,-1.4682,-1.431,-1.391,-1.3496,-1.3134,-1.306,-1.3307,-1.3195,-1.3387,-1.3845,-1.3772,-1.3561,-1.3252,-1.3529,-1.3719,-1.3791,-1.3474,-1.3351,-1.3426,-1.3212,-1.3127,-1.309,-1.2966,-1.2966,-1.32,-1.3897,-1.4474,-1.4939,-1.4974,-1.501,-1.501,-1.501,-1.501,-1.4939,-1.4438,-1.4258,-1.415,-1.3637,-1.3492,-1.3565,-1.3924,-1.41,-1.4477,-1.5899,-1.6481,-1.674,-1.6952,-1.6679,-1.6415,-1.669,-1.6987,-1.7186,-1.7186,-1.7299,-1.7566,-1.811,-1.7634,-1.7424,-1.8209,-1.8057,-1.7685,-1.7307,-1.727,-1.7101,-1.6707,-1.6064,-1.5524,-1.5259,-1.5165,-1.5206,-1.5381,-1.541,-1.5352,-1.5215,-1.4757,-1.4309,-1.3926,-1.3042,-1.232,-1.1738,-1.1172,-1.0762,-1.0488,-1.0371,-1.0293,-1.0506,-1.0157,-0.9863,-1.0452,-1.0814,-1.1383,-1.2879,-1.34,-1.4106,-1.5899,-1.511,-1.4188,-1.4469,-1.4295,-1.4482,-1.5584,-1.6567,-1.715,-1.7118,-1.7171,-1.6972,-1.6354,-1.6021,-1.5712,-1.5418,-1.5169,-1.4874,-1.4522,-1.3919,-1.336,-1.2811,-1.2221,-1.197,-1.2197,-1.2521,-1.276,-1.2907,-1.3252,-1.3201,-1.2893,-1.2893,-1.2893,-1.2893,-1.2893,-1.2893,-1.2893,-1.2893,-1.2893,-1.2893,-1.2893,-1.2893,-1.2929,-1.3127,-1.32,-1.3236,-1.3419,-1.3492,-1.3492,-1.3492,-1.3492,-1.3492,-1.3492,-1.3492,-1.3492,-1.3492,-1.3492,-1.3565,-1.3887,-1.4247,-1.4531,-1.4812,-1.5553,-1.6158,-1.6214,-1.6444,-1.6453,-1.559,-1.6057,-1.6698,-1.6698,-1.707,-1.7371,-1.7371,-1.6987,-1.6577,-1.626,-1.6209,-1.6073,-1.5753,-1.5702,-1.553,-1.5121,-1.478,-1.4696,-1.4857,-1.4629,-1.4765,-1.5352,-1.5381,-1.5206,-1.4805,-1.5195,-1.5215,-1.4813,-1.3945,-1.3516,-1.3496,-1.1777,-1.0897,-1.0898,-1.0508,-1.0312,-1.0341,-1.0127,-1.018,-1.0969,-1.1236,-1.1797,-1.3694,-1.384,-1.4039,-1.5645,-1.5297,-1.478,-1.4861,-1.4923,-1.5124,-1.5471,-1.6259,-1.6857,-1.6827,-1.7018,-1.6871,-1.6034,-1.6067,-1.5698,-1.4589,-1.4402,-1.3961,-1.3026,-1.2612,-1.2318,-1.2181,-1.177,-1.1779,-1.2267,-1.2173,-1.2344,-1.2838,-1.2679,-1.2584,-1.2489,-1.2489,-1.2562,-1.2673,-1.282,-1.282,-1.2673,-1.2673,-1.2673,-1.2673,-1.2673,-1.2673,-1.2709,-1.2893,-1.2966,-1.3003,-1.32,-1.3309,-1.3309,-1.3455,-1.3492,-1.3492,-1.3492,-1.3492,-1.3492,-1.3492,-1.3492,-1.3521,-1.3609,-1.3711,-1.3857,-1.4179,-1.4445,-1.4817,-1.5468,-1.5403,-1.5188,-1.5377,-1.559,-1.5782,-1.5782,-1.5913,-1.6205,-1.6782,-1.6571,-1.637,-1.6652,-1.6675,-1.6576,-1.6235,-1.5908,-1.5462,-1.483,-1.4659,-1.4399,-1.3948,-1.3834,-1.3872,-1.4052,-1.4064,-1.4414,-1.5206,-1.5352,-1.5215,-1.4813,-1.4531,-1.3965,-1.3091,-1.2559,-1.1947,-1.1236,-1.1229,-1.0995,-1.0434,-1.0301,-1.0323,-1.1356,-1.1784,-1.2398,-1.4122,-1.479,-1.5324,-1.6313,-1.5778,-1.533,-1.5799,-1.5591,-1.5551,-1.6019,-1.654,-1.6794,-1.6567,-1.6737,-1.6442,-1.5271,-1.5391,-1.5044,-1.3722,-1.3601,-1.3253,-1.2358,-1.1931,-1.169,-1.169,-1.1303,-1.1343,-1.1931,-1.1784,-1.1971,-1.2596,-1.2385,-1.2305,-1.2305,-1.2305,-1.2378,-1.2489,-1.2599,-1.2599,-1.2489,-1.2489,-1.2489,-1.2489,-1.2489,-1.2489,-1.2489,-1.2709,-1.2783,-1.282,-1.3003,-1.309,-1.309,-1.3236,-1.3273,-1.3273,-1.3273,-1.3273,-1.3273,-1.3273,-1.3273,-1.3302,-1.3431,-1.346,-1.3532,-1.3863,-1.3925,-1.4117,-1.4988,-1.494,-1.4794,-1.5279,-1.5382,-1.5382,-1.5382,-1.5382,-1.559,-1.6098,-1.597,-1.5839,-1.5938,-1.5729,-1.547,-1.5259,-1.4997,-1.467,-1.4201,-1.404,-1.3851,-1.3536,-1.3368,-1.3358,-1.348,-1.3511,-1.3842,-1.4599,-1.4913,-1.5032,-1.5039,-1.4863,-1.4316,-1.3379,-1.2998,-1.2401,-1.1634,-1.1506,-1.1253,-1.0635,-1.0568,-1.0488,-1.1725,-1.2556,-1.3347,-1.4389,-1.5939,-1.7259,-1.7382,-1.6406,-1.5832,-1.6898,-1.6179,-1.5818,-1.6911,-1.7099,-1.6924,-1.6362,-1.6206,-1.5671,-1.4255,-1.4322,-1.4001,-1.2824,-1.2703,-1.2556,-1.2171,-1.165,-1.1343,-1.1343,-1.0848,-1.0854,-1.1375,-1.1389,-1.1703,-1.2291,-1.2305,-1.2305,-1.2305,-1.2305,-1.2305,-1.2305,-1.2278,-1.2251,-1.2225,-1.2251,-1.2265,-1.2265,-1.2291,-1.2305,-1.2342,-1.2489,-1.2562,-1.2599,-1.2783,-1.2856,-1.2856,-1.2893,-1.2893,-1.2893,-1.2893,-1.2893,-1.2893,-1.2893,-1.2893,-1.2963,-1.328,-1.3365,-1.3435,-1.3783,-1.3757,-1.3825,-1.4616,-1.4856,-1.4944,-1.5279,-1.5367,-1.5382,-1.5382,-1.5382,-1.5382,-1.5382,-1.5367,-1.516,-1.4555,-1.3887,-1.3492,-1.3492,-1.3492,-1.3477,-1.3448,-1.3184,-1.3105,-1.3353,-1.3089,-1.3027,-1.3316,-1.3329,-1.3359,-1.339,-1.4052,-1.4677,-1.5206,-1.4868,-1.4463,-1.3992,-1.3189,-1.2521,-1.2054,-1.1624,-1.1375,-1.0301,-1.0555,-1.1142,-1.2572,-1.4055,-1.5231,-1.5438,-1.638,-1.7018,-1.6339,-1.6326,-1.6353,-1.6152,-1.6099,-1.6086,-1.6112,-1.6313,-1.6388,-1.5979,-1.5725,-1.5217,-1.4202,-1.4135,-1.3627,-1.2234,-1.21,-1.1779,-1.1028,-1.0854,-1.0774,-1.0774,-1.0667,-1.0854,-1.1375,-1.1389,-1.1703,-1.2291,-1.2305,-1.2305,-1.2305,-1.2305,-1.2305,-1.2291,-1.2064,-1.1837,-1.1623,-1.1864,-1.1993,-1.202,-1.2211,-1.2305,-1.2305,-1.2342,-1.2378,-1.2378,-1.2599,-1.2673,-1.2673,-1.2856,-1.2893,-1.2893,-1.2893,-1.2893,-1.2893,-1.2893,-1.2893,-1.2921,-1.2977,-1.3005,-1.3075,-1.3421,-1.3304,-1.3308,-1.4141,-1.4456,-1.4662,-1.4929,-1.5206,-1.5382,-1.5382,-1.5382,-1.5382,-1.5382,-1.5177,-1.4783,-1.4179,-1.3755,-1.3492,-1.3492,-1.3492,-1.3404,-1.314,-1.3053,-1.2809,-1.2354,-1.2268,-1.2153,-1.2011,-1.2027,-1.2166,-1.2551,-1.3282,-1.3782,-1.3902,-1.3814,-1.3556,-1.314,-1.3347,-1.3095,-1.2564,-1.2958,-1.2739,-0.9983,-1.0461,-1.1204,-1.2603,-1.3811,-1.4714,-1.5089,-1.5783,-1.6219,-1.5851,-1.6299,-1.6486,-1.5752,-1.5858,-1.5965,-1.5671,-1.5752,-1.5845,-1.5832,-1.5458,-1.491,-1.4175,-1.3961,-1.3347,-1.2033,-1.1899,-1.1658,-1.1022,-1.0848,-1.0801,-1.0801,-1.0667,-1.0854,-1.1375,-1.1389,-1.1703,-1.2291,-1.2305,-1.2305,-1.2305,-1.2305,-1.2225,-1.2091,-1.198,-1.1864,-1.185,-1.1864,-1.198,-1.2091,-1.2238,-1.2305,-1.2305,-1.2305,-1.2305,-1.2305,-1.2415,-1.2452,-1.2489,-1.2562,-1.2599,-1.2599,-1.2599,-1.2599,-1.2599,-1.2599,-1.2599,-1.2599,-1.2599,-1.2599,-1.264,-1.2828,-1.2893,-1.3047,-1.3341,-1.393,-1.4481,-1.4827,-1.5163,-1.5382,-1.5382,-1.5382,-1.5382,-1.5382,-1.5028,-1.4604,-1.4306,-1.3799,-1.3492,-1.3492,-1.3492,-1.3433,-1.3258,-1.3243,-1.298,-1.2288,-1.2229,-1.204,-1.1495,-1.1466,-1.156,-1.1732,-1.2135,-1.2689,-1.3342,-1.3342,-1.3173,-1.2743,-1.2946,-1.2712,-1.2125,-1.2739,-1.2744,-0.9547,-1.017,-1.1004,-1.2189,-1.3033,-1.3652,-1.4192,-1.491,-1.5498,-1.5545,-1.6072,-1.6206,-1.5337,-1.5444,-1.5565,-1.5231,-1.5177,-1.5271,-1.5518,-1.5017,-1.4445,-1.3908,-1.3587,-1.2947,-1.194,-1.1873,-1.1744,-1.1415,-1.1156,-1.0995,-1.0995,-1.0801,-1.0875,-1.1375,-1.1476,-1.1757,-1.2291,-1.2305,-1.2305,-1.2305,-1.2305,-1.2171,-1.198,-1.1926,-1.1971,-1.2144,-1.1993,-1.2047,-1.2225,-1.2278,-1.2305,-1.2305,-1.2305,-1.2305,-1.2305,-1.2305,-1.2305,-1.2305,-1.2305,-1.2305,-1.2305,-1.2305,-1.2305,-1.2305,-1.2305,-1.2305,-1.2305,-1.2305,-1.2305,-1.2318,-1.2358,-1.2671,-1.292,-1.2804,-1.3495,-1.4273,-1.4631,-1.4947,-1.518,-1.5221,-1.5221,-1.5206,-1.5107,-1.4696,-1.4331,-1.4234,-1.3768,-1.3419,-1.3455,-1.3455,-1.3455,-1.3492,-1.3492,-1.3258,-1.2658,-1.2521,-1.2163,-1.1425,-1.1307,-1.1216,-1.1059,-1.1059,-1.1608,-1.2765,-1.2826,-1.2679,-1.2327,-1.2314,-1.2036,-1.156,-1.2072,-1.231,-0.8522,-0.9546,-1.0846,-1.1503,-1.2897,-1.4016,-1.3616,-1.4676,-1.5518,-1.4799,-1.5164,-1.5297,-1.4429,-1.471,-1.4897,-1.4349,-1.4255,-1.4362,-1.4656,-1.3748,-1.3052,-1.2971,-1.2665,-1.2211,-1.1509,-1.1717,-1.1744,-1.1415,-1.1156,-1.0995,-1.0995,-1.0955,-1.1089,-1.1375,-1.1677,-1.1971,-1.2305,-1.2305,-1.2305,-1.2305,-1.2305,-1.2278,-1.2238,-1.202,-1.1744,-1.1522,-1.177,-1.1926,-1.198,-1.2198,-1.2305,-1.2305,-1.2305,-1.2305,-1.2305,-1.2305,-1.2305,-1.2305,-1.2305,-1.2305,-1.2305,-1.2305,-1.2305,-1.2305,-1.2305,-1.2305,-1.2305,-1.2305,-1.2305,-1.2358,-1.2663,-1.2795,-1.2914,-1.3285,-1.3718,-1.4003,-1.3863,-1.4122,-1.4392,-1.4589,-1.4643,-1.4462,-1.4031,-1.3863,-1.3644,-1.3172,-1.3022,-1.3039,-1.3236,-1.3236,-1.3309,-1.3492,-1.3492,-1.3345,-1.298,-1.255,-1.2164,-1.1772,-1.134,-1.1028,-1.0839,-1.0839,-1.0933,-1.1108,-1.131,-1.1344,-1.1301,-1.1704,-1.1828,-1.1752,-1.2255,-1.2308,-0.8003,-0.8592,-0.9343,-0.9938,-1.09,-1.1673,-1.1573,-1.2862,-1.3837,-1.2983,-1.3287,-1.3673,-1.3612,-1.3948,-1.4135,-1.3878,-1.3975,-1.4188,-1.4482,-1.3641,-1.2985,-1.2811,-1.2663,-1.2355,-1.173,-1.1944,-1.2064,-1.1931,-1.165,-1.1511,-1.1511,-1.1329,-1.1369,-1.1663,-1.1832,-1.1966,-1.2051,-1.2225,-1.2305,-1.2305,-1.2305,-1.2305,-1.2305,-1.2171,-1.2037,-1.1917,-1.1877,-1.1993,-1.2118,-1.2251,-1.2305,-1.2305,-1.2305,-1.2305,-1.2305,-1.2305,-1.2305,-1.2305,-1.2305,-1.2305,-1.2305,-1.2305,-1.2305,-1.2305,-1.2305,-1.2305,-1.2305,-1.2305,-1.2305,-1.2331,-1.2465,-1.2663,-1.2849,-1.306,-1.3235,-1.334,-1.3296,-1.3903,-1.4399,-1.4345,-1.4355,-1.4219,-1.3881,-1.3672,-1.344,-1.3224,-1.3005,-1.2929,-1.3017,-1.3053,-1.3019,-1.2956,-1.2942,-1.2777,-1.2376,-1.2035,-1.1723,-1.1443,-1.1097,-1.087,-1.0681,-1.0681,-1.0681,-1.0681,-1.0839,-1.0933,-1.0933,-1.1153,-1.1216,-1.1153,-1.1701,-1.1828,-0.7177,-0.7398,-0.7706,-0.8345,-0.9039,-0.9631,-0.9794,-1.1144,-1.2089,-1.1405,-1.1449,-1.1822,-1.2382,-1.2853,-1.3262,-1.3569,-1.3707,-1.3881,-1.4199,-1.3467,-1.2786,-1.2596,-1.2489,-1.2301,-1.194,-1.2064,-1.2198,-1.2198,-1.1917,-1.173,-1.1685,-1.1436,-1.1423,-1.1672,-1.1832,-1.1873,-1.1757,-1.2051,-1.2198,-1.2198,-1.2265,-1.2305,-1.2305,-1.2225,-1.2198,-1.2184,-1.2037,-1.2104,-1.2305,-1.2305,-1.2305,-1.2305,-1.2305,-1.2305,-1.2305,-1.2305,-1.2305,-1.2305,-1.2305,-1.2305,-1.2305,-1.2305,-1.2305,-1.2305,-1.2305,-1.2305,-1.2305,-1.2305,-1.2305,-1.2345,-1.2492,-1.2677,-1.2837,-1.3065,-1.3012,-1.2916,-1.2988,-1.3624,-1.4123,-1.402,-1.392,-1.3824,-1.3593,-1.3359,-1.3167,-1.313,-1.2898,-1.2783,-1.282,-1.282,-1.2772,-1.2621,-1.2522,-1.2367,-1.1988,-1.1638,-1.1358,-1.1167,-1.0911,-1.0713,-1.0586,-1.0586,-1.0586,-1.0586,-1.0713,-1.0744,-1.0744,-1.0744,-1.0713,-1.0631,-1.1059,-1.1264,-0.5486,-0.5858,-0.6416,-0.696,-0.8205,-0.9311,-0.9172,-1.0264,-1.1153,-1.0638,-1.0037,-0.9737,-1.0343,-1.1334,-1.2423,-1.3437,-1.3173,-1.3065,-1.3573,-1.2679,-1.1966,-1.1953,-1.1663,-1.1597,-1.1873,-1.1913,-1.1926,-1.1926,-1.1623,-1.1329,-1.1049,-1.1022,-1.1022,-1.1035,-1.1618,-1.173,-1.1415,-1.1744,-1.1926,-1.1926,-1.2171,-1.2305,-1.2291,-1.206,-1.1926,-1.194,-1.2171,-1.2291,-1.2305,-1.2305,-1.2305,-1.2305,-1.2305,-1.2305,-1.2305,-1.2305,-1.2305,-1.2305,-1.2305,-1.2305,-1.2305,-1.2305,-1.2305,-1.2305,-1.2305,-1.2305,-1.2305,-1.2305,-1.2305,-1.2438,-1.3013,-1.2998,-1.2998,-1.3856,-1.3587,-1.3146,-1.3029,-1.2995,-1.3047,-1.3289,-1.3145,-1.2912,-1.2691,-1.2627,-1.259,-1.2405,-1.2355,-1.2415,-1.2599,-1.2636,-1.2673,-1.2879,-1.2649,-1.2501,-1.2473,-1.1756,-1.1291,-1.1311,-1.0875,-1.0631,-1.0586,-1.0586,-1.0586,-1.0586,-1.0631,-1.0618,-1.0618,-1.0618,-1.0631,-1.0586,-1.0618,-1.0649,-0.523,-0.5571,-0.6114,-0.6505,-0.7119,-0.767,-0.7848,-0.8826,-0.9457,-0.8552,-0.8628,-0.8961,-0.9211,-1.0426,-1.163,-1.2423,-1.2857,-1.312,-1.3333,-1.2665,-1.2078,-1.1926,-1.177,-1.1677,-1.1597,-1.1583,-1.1583,-1.1583,-1.149,-1.1349,-1.1242,-1.1276,-1.1276,-1.1276,-1.1698,-1.1859,-1.1717,-1.1859,-1.1899,-1.1913,-1.2171,-1.2305,-1.2291,-1.1997,-1.1899,-1.1899,-1.1784,-1.185,-1.2074,-1.2225,-1.2305,-1.2305,-1.2305,-1.2305,-1.2305,-1.2305,-1.2305,-1.2305,-1.2305,-1.2305,-1.2305,-1.2305,-1.2305,-1.2305,-1.2305,-1.2305,-1.2345,-1.2569,-1.2623,-1.2717,-1.3106,-1.3133,-1.3133,-1.3454,-1.3507,-1.3454,-1.3387,-1.3314,-1.3261,-1.3141,-1.303,-1.2855,-1.2479,-1.2415,-1.2378,-1.2305,-1.2305,-1.2342,-1.2415,-1.2415,-1.2303,-1.196,-1.1859,-1.1676,-1.1426,-1.1062,-1.0875,-1.0971,-1.0749,-1.0586,-1.0586,-1.0586,-1.0586,-1.0586,-1.0586,-1.0586,-1.0586,-1.0586,-1.0586,-1.0586,-1.0399,-1.0381,-0.4946,-0.5295,-0.5791,-0.6148,-0.6335,-0.6513,-0.6836,-0.7554,-0.7942,-0.7174,-0.759,-0.8098,-0.8187,-0.9223,-1.0441,-1.1627,-1.213,-1.2556,-1.2987,-1.2625,-1.2198,-1.194,-1.1899,-1.1792,-1.1415,-1.1389,-1.1349,-1.1255,-1.1276,-1.1236,-1.1142,-1.1129,-1.1223,-1.1389,-1.153,-1.1698,-1.1899,-1.1899,-1.1899,-1.1913,-1.2171,-1.2305,-1.2291,-1.1997,-1.1899,-1.1899,-1.1663,-1.169,-1.1913,-1.2078,-1.2211,-1.2305,-1.2305,-1.2305,-1.2305,-1.2305,-1.2305,-1.2305,-1.2305,-1.2305,-1.2305,-1.2305,-1.2305,-1.2305,-1.2305,-1.2305,-1.2345,-1.2583,-1.2703,-1.2851,-1.3133,-1.336,-1.3454,-1.3253,-1.3507,-1.372,-1.3626,-1.3481,-1.3357,-1.3223,-1.3072,-1.2831,-1.2529,-1.2371,-1.2305,-1.2305,-1.2305,-1.2265,-1.2171,-1.2158,-1.1971,-1.1442,-1.1309,-1.1162,-1.0889,-1.0703,-1.0649,-1.0713,-1.0649,-1.0586,-1.0586,-1.0586,-1.0586,-1.0586,-1.0586,-1.0586,-1.0586,-1.0586,-1.0586,-1.0586,-1.0354,-1.0399,0.0,0.0,0.0,-0.5783,-0.5872,-0.5969,-0.6319,-0.6522,-0.6678,-0.6686,-0.6833,-0.702,-0.7163,-0.7699,-0.8872,-1.1018,-1.107,-1.1253,-1.2601,-1.2516,-1.2198,-1.1953,-1.1913,-1.1792,-1.1415,-1.1389,-1.1289,-1.1009,-1.0982,-1.0862,-1.06,-1.0586,-1.0868,-1.1389,-1.1142,-1.1276,-1.1886,-1.1899,-1.1899,-1.1899,-1.2158,-1.2305,-1.2291,-1.1997,-1.1899,-1.1899,-1.1899,-1.1899,-1.1899,-1.1913,-1.2087,-1.2305,-1.2305,-1.2305,-1.2305,-1.2305,-1.2305,-1.2305,-1.2305,-1.2305,-1.2305,-1.2305,-1.2305,-1.2305,-1.2305,-1.2305,-1.2305,-1.2318,-1.2569,-1.2878,-1.316,-1.3654,-1.3948,-1.3373,-1.3667,-1.4015,-1.368,-1.34,-1.332,-1.3547,-1.316,-1.2797,-1.2784,-1.2529,-1.2305,-1.2305,-1.2305,-1.2198,-1.194,-1.1899,-1.1757,-1.1429,-1.1169,-1.1009,-1.0995,-1.076,-1.06,-1.0586,-1.0586,-1.0586,-1.0586,-1.0586,-1.0586,-1.0586,-1.0586,-1.0586,-1.0586,-1.0586,-1.0586,-1.0586,-1.0586,-1.0586,-0.4636,0.0,0.0,0.0,0.0,0.0,-0.5815,-0.5872,-0.5945,-0.6075,-0.6278,-0.6449,-0.6465,-0.6706,-0.7299,-0.8554,-0.991,-1.1116,-1.2018,-1.2261,-1.2278,-1.2184,-1.2033,-1.1792,-1.1415,-1.1236,-1.0995,-1.0734,-1.0707,-1.068,-1.06,-1.0586,-1.0961,-1.1752,-1.1249,-1.1169,-1.1543,-1.1792,-1.1792,-1.1557,-1.2064,-1.2305,-1.2291,-1.1997,-1.1899,-1.1899,-1.1637,-1.1677,-1.1926,-1.2091,-1.2225,-1.2305,-1.2305,-1.2305,-1.2305,-1.2305,-1.2305,-1.2305,-1.2305,-1.2305,-1.2305,-1.2305,-1.2305,-1.2305,-1.2305,-1.2305,-1.2345,-1.2596,-1.2878,-1.32,-1.3707,-1.3961,-1.4041,-1.3881,-1.3975,-1.4068,-1.3988,-1.3895,-1.3801,-1.3626,-1.3307,-1.3013,-1.2824,-1.2529,-1.2305,-1.2305,-1.2305,-1.2198,-1.194,-1.1899,-1.1757,-1.1429,-1.1322,-1.1223,-1.1009,-1.0915,-1.0814,-1.06,-1.0586,-1.0586,-1.0586,-1.0586,-1.0586,-1.0586,-1.0586,-1.0586,-1.0586,-1.0586,-1.0586,-1.0586,-1.0586,-1.0479,-0.487,-0.5062,-0.5387,-0.5144,0.0,0.0,-0.5255,-0.5195,-0.5147,-0.5206,-0.5437,-0.5616,-0.5616,-0.5799,-0.6242,-0.7125,-0.8499,-0.9904,-1.1207,-1.1644,-1.1935,-1.2268,-1.2158,-1.1931,-1.1637,-1.1343,-1.1049,-1.0801,-1.0667,-1.064,-1.076,-1.1002,-1.1377,-1.1886,-1.1578,-1.1503,-1.1784,-1.1837,-1.1837,-1.1797,-1.2131,-1.2305,-1.2291,-1.2131,-1.2087,-1.2074,-1.1864,-1.1712,-1.1593,-1.171,-1.2009,-1.2268,-1.1922,-1.1787,-1.175,-1.144,-1.1279,-1.1279,-1.1279,-1.1279,-1.1279,-1.1279,-1.1279,-1.1366,-1.17,-1.1787,-1.1924,-1.243,-1.2879,-1.332,-1.3788,-1.4001,-1.4082,-1.4082,-1.4082,-1.4082,-1.4082,-1.3988,-1.3854,-1.364,-1.3373,-1.3106,-1.2837,-1.2529,-1.2305,-1.2305,-1.2198,-1.21,-1.1926,-1.1792,-1.157,-1.1276,-1.1249,-1.1182,-1.1009,-1.0908,-1.0827,-1.0774,-1.0667,-1.0586,-1.0586,-1.0586,-1.0586,-1.0586,-1.0586,-1.0586,-1.0586,-1.0586,-1.0586,-1.0586,-1.0586,-1.0506,-0.5321,-0.5327,-0.5418,-0.5217,-0.4973,0.0,-0.4735,-0.463,-0.4492,-0.4335,-0.4572,-0.4824,-0.4808,-0.5131,-0.5651,-0.6473,-0.71,-0.8209,-1.0207,-1.0839,-1.1366,-1.2031,-1.2241,-1.2184,-1.194,-1.1623,-1.1356,-1.1062,-1.0827,-1.0814,-1.1076,-1.1564,-1.1859,-1.1953,-1.1859,-1.1966,-1.2251,-1.1971,-1.1971,-1.2251,-1.2178,-1.2117,-1.2157,-1.207,-1.2033,-1.2033,-1.2033,-1.1626,-1.0956,-1.0956,-1.1403,-1.1959,-1.1254,-1.0956,-1.0881,-1.0158,-0.9895,-0.9895,-0.9895,-0.9895,-0.9895,-0.9895,-0.9895,-1.0045,-1.0769,-1.0956,-1.1117,-1.1887,-1.2491,-1.2988,-1.3235,-1.3563,-1.3786,-1.3786,-1.3786,-1.3828,-1.3913,-1.3688,-1.3464,-1.356,-1.336,-1.308,-1.2878,-1.2518,-1.2305,-1.2305,-1.2078,-1.194,-1.1913,-1.161,-1.1322,-1.1156,-1.1076,-1.1049,-1.1089,-1.0854,-1.0774,-1.0929,-1.0734,-1.0586,-1.0586,-1.0586,-1.0586,-1.0586,-1.0586,-1.0586,-1.0586,-1.0586,-1.0586,-1.0586,-1.0586,-1.0586,-0.6479,-0.6748,-0.6827,-0.5831,-0.6015,0.0,-0.4705,-0.4572,-0.4662,-0.4359,-0.4702,-0.4978,-0.4832,-0.5486,-0.6014,-0.6057,-0.6535,-0.7434,-0.9026,-1.0312,-1.1107,-1.1093,-1.1816,-1.2184,-1.194,-1.1859,-1.1663,-1.1369,-1.1255,-1.1383,-1.1712,-1.139,-1.149,-1.2198,-1.153,-1.1423,-1.198,-1.1663,-1.1663,-1.1957,-1.1333,-1.1132,-1.1292,-1.0645,-1.0383,-1.0383,-1.0383,-1.0271,-1.0121,-1.0121,-1.0233,-1.0346,-1.0196,-1.0121,-1.0121,-0.997,-0.9895,-0.9895,-0.9895,-0.9895,-0.9895,-0.9895,-0.9895,-0.9933,-1.0083,-1.0121,-1.0202,-1.0582,-1.0903,-1.1156,-1.1434,-1.1694,-1.1843,-1.1843,-1.1843,-1.2057,-1.2796,-1.2757,-1.2704,-1.3173,-1.3053,-1.2931,-1.308,-1.2665,-1.2305,-1.2305,-1.2251,-1.2131,-1.194,-1.161,-1.1583,-1.1997,-1.1623,-1.1436,-1.1712,-1.1423,-1.1089,-1.0707,-1.0626,-1.0586,-1.0586,-1.0586,-1.0586,-1.0586,-1.0586,-1.0586,-1.0586,-1.0586,-1.0586,-1.0586,-1.0586,-1.0586,-0.7047,-0.7218,-0.728,-0.6542,-0.653,0.0,0.0,-0.5048,-0.4947,-0.4902,-0.4723,-0.4635,-0.4857,-0.5225,-0.551,-0.551,-0.5856,-0.6493,-0.7494,-0.8799,-0.976,-1.0065,-1.0836,-1.1352,-1.1352,-1.1519,-1.1583,-1.1402,-1.1389,-1.1557,-1.1886,-1.2011,-1.2091,-1.2091,-1.1797,-1.165,-1.165,-1.1356,-1.1436,-1.1899,-1.1078,-1.0852,-1.1068,-1.0271,-0.9895,-0.9895,-0.9895,-0.9669,-0.9301,-0.9301,-0.9074,-0.8732,-0.915,-0.9301,-0.9263,-0.8836,-0.8694,-0.8694,-0.8694,-0.8694,-0.8694,-0.8694,-0.8694,-0.877,-0.9188,-0.9593,-0.9916,-1.0073,-1.0278,-1.0516,-1.0724,-1.0961,-1.1176,-1.1295,-1.123,-1.1304,-1.1895,-1.1718,-1.1735,-1.2741,-1.2588,-1.2466,-1.2934,-1.2757,-1.2556,-1.2556,-1.2278,-1.2181,-1.2328,-1.1953,-1.1757,-1.2051,-1.1824,-1.1597,-1.145,-1.1289,-1.1089,-1.0827,-1.0667,-1.0586,-1.0586,-1.0586,-1.0586,-1.0586,-1.0452,-1.0439,-1.0586,-1.0439,-1.0452,-1.0586,-1.0586,-1.0586,-0.7635,-0.7743,-0.7745,-0.7241,-0.7044,-0.6795,0.0,0.0,0.0,-0.5502,-0.495,-0.4587,-0.504,-0.5105,-0.5098,-0.5184,-0.5482,-0.5839,-0.6213,-0.7178,-0.815,-0.9016,-0.9662,-1.0224,-1.0693,-1.1037,-1.1303,-1.1389,-1.1335,-1.1503,-1.1886,-1.2505,-1.2532,-1.1846,-1.1957,-1.1753,-1.1139,-1.0934,-1.1036,-1.1436,-1.0647,-1.0377,-1.0619,-0.982,-0.9442,-0.9442,-0.9442,-0.9074,-0.8475,-0.8475,-0.8093,-0.7557,-0.8208,-0.8475,-0.8399,-0.7748,-0.748,-0.748,-0.748,-0.748,-0.748,-0.748,-0.748,-0.7633,-0.8284,-0.8922,-0.9453,-0.9494,-0.9638,-0.9882,-1.0121,-1.0326,-1.0521,-1.0714,-1.0665,-1.0605,-1.092,-1.0627,-1.0713,-1.198,-1.1834,-1.1821,-1.2711,-1.2878,-1.2851,-1.2797,-1.2435,-1.2342,-1.2811,-1.2355,-1.2033,-1.2154,-1.1917,-1.1637,-1.1276,-1.1089,-1.0995,-1.0995,-1.0747,-1.0586,-1.0586,-1.0586,-1.0586,-1.0586,-1.0327,-1.0314,-1.0586,-1.0314,-1.0358,-1.0586,-1.0586,-1.0586,-0.8938,-0.9379,-0.9288,-0.7874,-0.8091,-0.8149,-0.6243,0.0,-0.6135,-0.5674,0.0,-0.5959,-0.5658,0.0,0.0,-0.5608,-0.5878,-0.6024,-0.5742,-0.6211,-0.6965,-0.7947,-0.8506,-0.9247,-1.0353,-1.0573,-1.0908,-1.1349,-1.1182,-1.1289,-1.1873,-1.1717,-1.1549,-1.1442,-1.1263,-1.0836,-1.0159,-1.0244,-1.0137,-0.9841,-0.8978,-0.8728,-0.8932,-0.8131,-0.7787,-0.7787,-0.7787,-0.771,-0.7633,-0.7633,-0.7595,-0.7518,-0.7595,-0.7633,-0.7633,-0.7518,-0.748,-0.748,-0.748,-0.748,-0.748,-0.748,-0.748,-0.7518,-0.7595,-0.771,-0.7821,-0.7998,-0.8057,-0.815,-0.8464,-0.8564,-0.8674,-0.8869,-0.8894,-0.9052,-0.9748,-0.9603,-0.9595,-1.0401,-1.0522,-1.1054,-1.2831,-1.316,-1.3066,-1.2824,-1.2919,-1.308,-1.3146,-1.2625,-1.2465,-1.2999,-1.2104,-1.1663,-1.2118,-1.1436,-1.0995,-1.0995,-1.0747,-1.0586,-1.0586,-1.0586,-1.0586,-1.0586,-1.0559,-1.0559,-1.0586,-1.0559,-1.0559,-1.0586,-1.0586,-1.0586,-0.9354,-0.9722,-0.9732,-0.9095,-0.907,-0.8895,-0.7793,-0.74,-0.7269,-0.7241,0.0,0.0,0.0,0.0,0.0,0.0,-0.5901,-0.575,-0.547,-0.5446,-0.5818,-0.681,-0.7332,-0.8104,-0.9355,-0.9999,-1.0408,-1.0616,-1.0715,-1.0961,-1.1377,-1.1396,-1.1276,-1.0942,-1.0606,-1.0138,-0.9495,-0.9409,-0.9397,-0.9357,-0.8626,-0.8431,-0.8665,-0.7863,-0.748,-0.748,-0.748,-0.748,-0.748,-0.748,-0.748,-0.748,-0.748,-0.748,-0.748,-0.748,-0.748,-0.748,-0.748,-0.748,-0.748,-0.748,-0.748,-0.748,-0.748,-0.748,-0.7559,-0.7747,-0.7796,-0.7886,-0.8195,-0.8292,-0.8341,-0.8563,-0.8531,-0.8543,-0.8957,-0.8853,-0.8938,-0.9784,-0.9997,-1.0398,-1.1496,-1.1571,-1.1468,-1.1349,-1.1301,-1.1397,-1.1666,-1.1331,-1.1402,-1.2276,-1.179,-1.1597,-1.2028,-1.1717,-1.1356,-1.1009,-1.0747,-1.0586,-1.0586,-1.0586,-1.0586,-1.0586,-1.0425,-1.0412,-1.0586,-1.0381,-1.0425,-1.0586,-1.0586,-1.0586,-0.9496,-0.9757,-0.9792,-0.9688,-0.9535,-0.9275,-0.8881,-0.8483,-0.8284,-0.8436,-0.7814,0.0,0.0,0.0,-0.6488,-0.6286,0.0,-0.576,-0.5381,-0.5242,-0.5389,-0.5902,-0.65,-0.732,-0.839,-0.8925,-0.9288,-0.9517,-0.9697,-0.9962,-1.0362,-1.0797,-1.0835,-1.0372,-0.9989,-0.9444,-0.8683,-0.8549,-0.8525,-0.8609,-0.8244,-0.8187,-0.836,-0.7748,-0.748,-0.748,-0.748,-0.748,-0.748,-0.748,-0.748,-0.748,-0.748,-0.748,-0.748,-0.748,-0.748,-0.748,-0.748,-0.748,-0.748,-0.748,-0.748,-0.748,-0.748,-0.748,-0.7529,-0.7804,-0.7796,-0.7829,-0.8251,-0.8292,-0.8276,-0.8555,-0.8506,-0.839,-0.8514,-0.839,-0.8471,-0.9072,-0.9292,-0.9489,-0.9776,-1.0197,-1.0484,-1.0484,-1.0293,-1.0336,-1.0756,-1.0565,-1.0679,-1.1474,-1.1167,-1.1073,-1.1401,-1.1413,-1.1348,-1.1109,-1.0868,-1.0747,-1.0827,-1.068,-1.0626,-1.0707,-1.0474,-1.0421,-1.0586,-1.0421,-1.0421,-1.0586,-1.0586,-1.0586,-0.9414,-0.9597,-0.9536,-0.9199,-0.9279,-0.9284,-0.8817,-0.8878,-0.8975,-0.8734,-0.9028,-0.9108,-0.8508,-0.8142,-0.759,-0.6568,-0.6533,0.0,0.0,-0.584,-0.5959,-0.5402,-0.6249,-0.7109,-0.7683,-0.7223,-0.724,-0.8006,-0.7904,-0.807,-0.8745,-0.9656,-1.002,-0.9755,-0.947,-0.8774,-0.7647,-0.7717,-0.7501,-0.7059,-0.7384,-0.7518,-0.7518,-0.7518,-0.748,-0.748,-0.748,-0.748,-0.748,-0.748,-0.748,-0.748,-0.748,-0.748,-0.748,-0.748,-0.748,-0.748,-0.748,-0.748,-0.748,-0.748,-0.748,-0.748,-0.748,-0.748,-0.7553,-0.791,-0.7756,-0.7659,-0.8416,-0.8292,-0.8113,-0.8522,-0.8604,-0.8555,-0.8341,-0.8292,-0.8229,-0.7926,-0.7951,-0.8016,-0.7917,-0.9591,-1.0981,-1.0908,-1.0939,-1.1057,-1.1262,-1.1059,-1.0877,-1.0919,-1.0218,-0.9888,-1.0218,-1.026,-1.0563,-1.1341,-1.1142,-1.1102,-1.1349,-1.0894,-1.072,-1.0969,-1.0969,-1.0868,-1.0586,-1.0835,-1.0822,-1.0586,-1.0586,-1.0586,-0.9743,-0.997,-0.997,-0.9655,-0.9687,-0.9644,-0.9084,-0.9179,-0.9251,-0.8794,-0.8975,-0.9108,-0.8837,-0.8532,-0.8181,-0.7736,-0.7281,-0.6666,0.0,-0.5389,-0.5161,-0.521,-0.5859,-0.6345,-0.6425,-0.6555,-0.6597,-0.6541,-0.6841,-0.7349,-0.8073,-0.8707,-0.896,-0.8843,-0.8585,-0.798,-0.7012,-0.7031,-0.7008,-0.6988,-0.7196,-0.7374,-0.748,-0.748,-0.748,-0.748,-0.748,-0.748,-0.748,-0.748,-0.748,-0.748,-0.748,-0.748,-0.748,-0.748,-0.748,-0.748,-0.748,-0.748,-0.748,-0.748,-0.748,-0.748,-0.748,-0.7608,-0.7755,-0.7951,-0.8016,-0.8105,-0.8514,-0.8514,-0.8414,-0.858,-0.8612,-0.8596,-0.8531,-0.8514,-0.8441,-0.8162,-0.826,-0.8325,-0.8138,-0.8749,-0.9163,-0.8986,-0.9009,-0.9081,-0.9289,-0.9253,-0.9432,-1.0172,-0.9817,-0.9817,-1.0418,-1.0028,-0.9862,-1.0136,-0.9869,-0.9696,-0.9683,-1.0089,-1.0234,-1.0013,-1.0843,-1.1049,-1.0586,-1.0881,-1.0848,-1.0586,-1.0586,-1.0586,-0.958,-0.9799,-0.9932,-0.9748,-0.9772,-0.9723,-0.9319,-0.9456,-0.9528,-0.9083,-0.9203,-0.9331,-0.9199,-0.8925,-0.8608,-0.8357,-0.7632,-0.6786,0.0,-0.5136,-0.484,-0.5217,-0.5481,-0.5642,-0.5753,-0.5742,-0.5601,-0.5283,-0.5712,-0.6212,-0.6742,-0.7473,-0.7889,-0.7823,-0.7691,-0.733,-0.6703,-0.6636,-0.6676,-0.6898,-0.7106,-0.7285,-0.7391,-0.7456,-0.748,-0.748,-0.748,-0.748,-0.748,-0.748,-0.748,-0.748,-0.748,-0.748,-0.748,-0.748,-0.748,-0.748,-0.748,-0.748,-0.748,-0.748,-0.748,-0.748,-0.748,-0.7608,-0.7739,-0.787,-0.8008,-0.8146,-0.8325,-0.8422,-0.8514,-0.8514,-0.8514,-0.8514,-0.8514,-0.8514,-0.8441,-0.8154,-0.84,-0.8531,-0.8235,-0.83,-0.8349,-0.8227,-0.8154,-0.8178,-0.8365,-0.839,-0.8664,-0.9268,-0.9099,-0.9247,-0.9875,-0.9483,-0.9337,-0.9632,-0.9335,-0.9186,-0.9192,-0.9555,-0.9719,-0.957,-1.0321,-1.0526,-1.0159,-1.03,-1.0222,-0.9961,-1.0117,-1.0206]},{"header":{"parameterUnit":"m.s-1","parameterCategory":1,"la1":30.6,"la2":29.2853,"lo1":-89.7004,"lo2":-87.6739,"dy":0.0162,"dx":0.0183,"nx":112,"ny":82,"refTime":"2023-05-12T06:00:00:Z","depth":0,"parameterNumber":3,"parameterNumberName":"V-component_of_WINDS"},"data":[0.0,0.0,0.0,0.0,0.0,0.0,0.0,0.0,0.0,0.0,0.0,0.0,0.0,0.0,0.0,0.0,0.0,0.0,0.0,0.0,0.0,0.0,0.0,0.0,0.0,0.0,0.0,0.0,0.0,0.0,0.0,0.0,0.0,0.0,0.0,0.0,0.0,0.0,0.0,0.0,0.0,0.0,0.0,0.0,0.0,0.0,0.0,0.0,0.0,0.0,0.0,0.0,0.0,0.0,0.0,0.0,0.0,0.0,0.0,0.0,0.0,0.0,0.0,0.0,0.0,0.0,0.0,0.0,0.0,0.0,0.0,0.0,0.0,0.0,0.0,0.0,0.0,0.0,0.0,0.0,0.0,0.0,0.0,0.0,0.0,0.0,0.0,0.0,0.0,0.0,0.3312,0.2536,0.2633,0.2706,0.2477,0.2113,0.1625,0.104,0.0,0.0,0.0,0.0,0.0,0.0,0.0,0.0,0.0,0.0,0.0,0.0,0.0,0.0,0.0,0.0,0.0,0.0,0.0,0.0,0.0,0.0,0.0,0.0,0.0,0.0,0.0,0.0,0.0,0.0,0.0,0.0,0.0,0.0,0.0,0.0,0.0,0.0,0.0,0.0,0.0,0.0,0.0,0.0,0.0,0.0,0.0,0.0,0.0,0.0,0.0,0.0,0.0,0.0,0.0,0.0,0.0,0.0,0.0,0.0,0.0,0.0,0.0,0.0,0.0,0.0,0.0,0.0,0.0,0.0,0.0,0.0,0.0,0.0,0.0,0.0,0.0,0.0,0.0,0.0,0.0,0.0,0.0,0.0,0.0,0.0,0.0,0.0,0.0,0.0,0.0,0.0,0.0,0.0,0.0,0.0,0.0,0.0,0.0,0.0,0.0,0.0,0.0,0.0,0.3758,0.3956,0.3154,0.2693,0.2813,0.2418,0.1965,0.1524,0.0,0.0,0.0,0.0,0.0,0.0,0.0,0.0,0.0,0.0,0.0,0.0,0.0,0.0,0.0,0.0,0.0,0.0,0.0,0.0,0.0,0.0,0.0,0.0,0.0,0.0,0.0,0.0,0.0,0.0,0.0,0.0,0.0,0.0,0.0,0.0,0.0,0.0,0.0,0.0,0.0,0.0,0.0,0.0,0.0,0.0,0.0,0.0,0.0,0.0,0.0,0.0,0.0,0.0,0.0,0.0,0.0,0.0,0.0,0.0,0.0,0.0,0.0,0.0,0.0,0.0,0.0,0.0,0.0,0.0,0.0,0.0,0.0,0.0,0.0,0.0,0.0,0.0,0.0,0.0,0.0,0.0,0.0,0.0,0.0,0.0,0.0,0.0,0.0,0.0,0.0,0.0,0.0,0.0,0.0,0.0,0.0,0.0,0.0,0.0,0.0,0.0,0.0,0.3833,0.3944,0.4752,0.4091,0.3427,0.3038,0.2752,0.2301,0.1647,0.1156,0.0,0.0,0.0,0.0,0.0,0.0,0.0,0.0,0.0,0.0,0.0,0.0,0.0,0.0,0.0,0.0,0.0,0.0,0.0,0.0,0.0,0.0,0.0,0.0,0.0,0.0,0.0,0.0,0.0,0.0,0.0,0.0,0.0,0.0,0.0,0.0,0.0,0.0,0.0,0.0,0.0,0.0,0.0,0.0,0.0,0.0,0.0,0.0,0.0,0.0,0.0,0.0,0.0,0.0,0.0,0.0,0.0,0.0,0.0,0.0,0.0,0.0,0.0,0.0,0.0,0.0,0.0,0.0,0.0,0.0,0.0,0.0,0.0,0.0,0.0,0.0,0.0,0.0,0.0,0.0,0.0,0.0,0.0,0.0,0.0,0.0,0.0,0.0,0.0,0.0,0.0,0.0,0.0,0.0,0.0,0.0,0.0,0.0,0.0,0.0,0.0,0.0,0.4179,0.4121,0.5274,0.4789,0.4061,0.3311,0.315,0.2687,0.1726,0.1585,0.0,0.0,0.0,0.0,0.0,0.0,0.0,0.0,0.0,0.0,0.0,0.0,0.0,0.0,0.0,0.0,0.0,0.0,0.0,0.0,0.0,0.0,0.0,0.0,0.0,0.0,0.0,0.0,0.0,0.0,0.0,0.0,0.0,0.0,0.0,0.0,0.0,0.0,0.0,0.0,0.0,0.0,0.0,0.0,0.0,0.0,0.0,0.0,0.0,0.0,0.0,0.0,0.0,0.0,0.0,0.0,0.0,0.0,0.0,0.0,0.0,0.0,0.0,0.0,0.0,0.0,0.0,0.0,0.0,0.0,0.0,0.0,0.0,0.0,0.0,0.0,0.0,0.0,0.0,0.0,0.0,0.0,0.0,0.0,0.0,0.0,0.0,0.0,0.0,0.0,0.0,0.0,0.0,0.0,0.0,0.0,0.0,0.0,0.0,0.0,0.0,0.0,0.4084,0.4341,0.5545,0.484,0.415,0.3781,0.3687,0.3139,0.1949,0.1758,0.0,0.0,0.0,0.0,0.0,0.0,0.0,0.0,0.0,0.0,0.0,0.0,0.0,0.0,0.0,0.0,0.0,0.0,0.0,0.0,0.0,0.0,0.0,0.0,0.0,0.0,0.0,0.0,0.0,0.0,0.0,0.0,0.0,0.0,0.0,0.0,0.0,0.0,0.0,0.0,0.0,0.0,0.0,0.0,0.0,0.0,0.0,0.0,0.0,0.0,0.0,0.0,0.0,0.0,0.0,0.0,0.0,0.0,0.0,0.0,0.0,0.0,0.0,0.0,0.0,0.0,0.0,0.0,0.0,0.0,0.0,0.0,0.0,0.0,0.0,0.0,0.0,0.0,0.0,0.0,0.0,0.0,0.0,0.0,0.0,0.0,0.0,0.0,0.0,0.0,0.0,0.0,0.0,0.0,0.0,0.0,0.0,0.0,0.0,0.0,0.0,0.0,0.4346,0.4816,0.5606,0.5457,0.502,0.4292,0.3649,0.2933,0.2133,0.0,0.0,0.0,0.0,0.0,0.0,0.0,0.0,0.0,0.0,0.0,0.0,0.0,0.0,0.0,0.0,0.0,0.0,0.0,0.0,0.0,0.0,0.0,0.0,0.0,0.0,0.0,0.0,0.0,0.0,0.0,0.0,0.0,0.0,0.0,0.0,0.0,0.0,0.0,0.0,0.0,0.0,0.0,0.0,0.0,0.0,0.0,0.0,0.0,0.0,0.0,0.0,0.0,0.0,0.0,0.0,0.0,0.0,0.0,0.0,0.0,0.0,0.0,0.0,0.0,0.0,0.0,0.0,0.0,0.0,0.0,0.0,0.0,0.0,0.0,0.0,0.0,0.0,0.0,0.0,0.0,0.0,0.0,0.0,0.0,0.0,0.0,0.0,0.0,0.0,0.0,0.0,0.0,0.0,0.0,0.0,0.0,0.0,0.0,0.0,0.0,0.0,0.3965,0.4478,0.4997,0.5681,0.5719,0.5361,0.4449,0.3666,0.2893,0.2123,0.0,0.0,0.0,0.0,0.0,0.0,0.0,0.0,0.0,0.0,0.0,0.0,0.0,0.0,0.0,0.0,0.0,0.0,0.0,0.0,0.0,0.0,0.0,0.0,0.0,0.0,0.0,0.0,0.0,0.0,0.0,0.0,0.0,0.0,0.0,0.0,0.0,0.0,0.0,0.0,0.0,0.0,0.0,0.0,0.0,0.0,0.0,0.0,0.0,0.0,0.0,0.0,0.0,0.0,0.0,0.0,0.0,0.0,0.0,0.0,0.0,0.0,0.0,0.0,0.0,0.0,0.0,0.0,0.0,0.0,0.0,0.0,0.0,0.0,0.0,0.0,0.0,0.0,0.0,0.0,0.0,0.0,0.0,0.0,0.0,0.0,0.0,0.0,0.0,0.0,0.0,0.0,0.0,0.0,0.0,0.0,0.0,0.0,0.0,0.0,0.0,0.0,0.4178,0.4356,0.4774,0.5783,0.5528,0.4969,0.4173,0.385,0.3143,0.0,0.0,0.0,0.0,0.0,0.0,0.0,0.0,0.0,0.0,0.0,0.0,0.0,0.0,0.0,0.0,0.0,0.0,0.0,0.0,0.0,0.0,0.0,0.0,0.0,0.0,0.0,0.0,0.0,0.0,0.0,0.0,0.0,0.0,0.0,0.0,0.0,0.0,0.0,0.0,0.0,0.0,0.0,0.0,0.0,0.0,0.0,0.0,0.0,0.0,0.0,0.0,0.0,0.0,0.0,0.0,0.0,0.0,0.0,0.0,0.0,0.0,0.0,0.0,0.0,0.0,0.0,0.0,0.0,0.0,0.0,0.0,0.0,0.0,0.0,0.0,0.0,0.0,0.0,0.0,0.0,0.0,0.0,0.0,0.0,0.0,0.0,0.0,0.0,0.0,0.0,0.0,0.0,0.0,0.0,0.0,0.0,0.0,0.0,0.0,0.0,0.0,0.0,0.357,0.4058,0.4576,0.5014,0.4945,0.4637,0.4066,0.3485,0.2795,0.1992,0.0,0.0,0.0,0.0,0.0,0.0,0.0,0.0,0.0,0.0,0.0,0.0,0.0,0.0,0.0,0.0,0.0,0.0,0.0,0.0,0.0,0.0,0.0,0.0,0.0,0.0,0.0,0.0,0.0,0.0,0.0,0.0,0.0,0.0,0.0,0.0,0.0,0.0,0.0,0.0,0.0,0.0,0.0,0.0,0.0,0.0,0.0,0.0,0.0,0.0,0.0,0.0,0.0,0.0,0.0,0.0,0.0,0.0,0.0,0.0,0.0,0.0,0.0,0.0,0.0,0.0,0.0,0.0,0.0,0.0,0.0,0.0,0.0,0.0,0.0,0.0,0.0,0.0,0.0,0.0,0.0,0.0,0.0,0.0,0.0,0.0,0.0,0.0,0.0,0.0,0.0,0.0,0.0,0.0,0.0,0.0,0.0,0.0,0.0,0.0,0.0,0.0,0.3515,0.4014,0.4533,0.4968,0.4947,0.4706,0.4201,0.3478,0.282,0.2277,0.0,0.0,0.0,0.0,0.0,0.0,0.0,0.0,0.0,0.0,0.0,0.0,0.0,0.0,0.0,0.0,0.0,0.0,0.0,0.0,0.0,0.0,0.0,0.0,0.0,0.0,0.0,0.0,0.0,0.0,0.0,0.0,0.0,0.0,0.0,0.0,0.0,0.0,0.0,0.0,0.0,0.0,0.0,0.0,0.0,0.0,0.0,0.0,0.0,0.0,0.0,0.0,0.0,0.0,0.0,0.0,0.0,0.0,0.0,0.0,0.0,0.0,0.0,0.0,0.0,0.0,0.0,0.0,0.0,0.0,0.0,0.0,0.0,0.0,0.0,0.0,0.0,0.0,0.0,0.0,0.0,0.0,0.0,0.0,0.0,0.0,0.0,0.0,0.0,0.0,0.0,0.0,0.0,0.0,0.0,0.0,0.0,0.0,0.0,0.0,0.0,0.0,0.3814,0.4102,0.456,0.5324,0.5232,0.4918,0.4377,0.3669,0.3071,0.2623,0.0,0.0,0.0,0.0,0.0,0.0,0.0,0.0,0.0,0.0,0.0,0.0,0.0,0.0,0.0,0.0,0.0,0.0,0.0,0.0,0.0,0.0,0.0,0.0,0.0,0.0,0.0,0.0,0.0,0.0,0.0,0.0,0.0,0.0,0.0,0.0,0.0,0.0,0.0,0.0,0.0,0.0,0.0,0.0,0.0,0.0,0.0,0.0,0.0,0.0,0.0,0.0,0.0,0.0,0.0,0.0,0.0,0.0,0.0,0.0,1.0344,0.9621,0.0,0.0,0.0,0.0,0.0,0.0,0.0,0.0,0.0,0.0,0.0,0.0,0.0,0.0,0.0,0.0,0.0,0.0,0.0,0.0,0.0,0.0,0.0,0.0,0.0,0.0,0.0,0.0,0.0,0.0,0.0,0.0,0.0,0.0,0.0,0.0,0.0,0.0,0.0,0.0,0.3562,0.3872,0.4237,0.467,0.467,0.441,0.3817,0.3283,0.2859,0.2541,0.2425,0.0,0.0,0.0,0.0,0.0,0.0,0.0,0.0,0.0,0.0,0.0,0.0,0.0,0.0,0.0,0.0,0.0,0.0,0.0,0.0,0.0,0.0,0.0,0.0,0.0,0.0,0.0,0.0,0.0,0.0,0.0,0.0,0.0,0.0,0.0,0.0,0.0,0.0,0.0,0.0,0.0,0.0,0.0,0.0,0.0,0.0,0.0,0.0,0.0,0.0,0.0,0.0,0.0,0.0,0.0,0.0,0.0,0.0,0.0,1.262,1.155,0.0,0.0,0.0,0.0,0.0,0.0,0.0,0.0,0.0,0.0,0.0,0.0,0.0,0.0,0.0,0.0,0.0,0.0,0.0,0.0,0.0,0.0,0.0,0.0,0.0,0.0,0.0,0.0,0.0,0.0,0.0,0.0,0.0,0.0,0.0,0.0,0.0,0.0,0.0,0.0,0.3995,0.4149,0.4513,0.5237,0.4997,0.4663,0.4357,0.3685,0.3104,0.2668,0.2521,0.0,0.0,0.0,0.0,0.0,0.0,0.0,0.0,0.0,0.0,0.0,0.0,0.0,0.0,0.0,0.0,0.0,0.0,0.0,0.0,0.0,0.0,0.0,0.0,0.0,0.0,0.0,0.0,0.0,0.0,0.0,0.0,0.0,0.0,0.0,0.0,0.0,0.0,0.0,0.0,0.0,0.0,0.0,0.0,0.0,0.0,0.0,0.0,0.0,0.0,0.0,0.0,0.0,1.9975,2.0241,2.0595,1.9953,1.9002,1.7795,1.6079,1.4457,1.2984,1.234,0.0,0.0,0.0,0.0,0.0,0.0,0.0,0.0,0.0,0.0,0.0,0.0,0.0,0.0,0.0,0.0,0.0,0.0,0.0,0.0,0.0,0.0,0.7642,0.8004,0.8335,0.8273,0.7091,0.0,0.0,0.0,0.0,0.0,0.0,0.0,0.0,0.0,0.0,0.0,0.4414,0.4503,0.4891,0.5824,0.545,0.5078,0.4953,0.4147,0.3418,0.292,0.2569,0.246,0.0,0.0,0.0,0.0,0.0,0.0,0.0,0.0,0.0,0.0,0.0,0.0,0.0,0.0,0.0,0.0,0.0,0.0,0.0,0.0,0.0,0.0,0.0,0.0,0.0,0.0,0.0,0.0,0.0,0.0,0.0,0.0,1.6049,1.7543,0.0,0.0,0.0,0.0,0.0,0.0,0.0,0.0,0.0,0.0,0.0,0.0,0.0,1.87,2.0204,2.1229,2.2335,2.3416,2.3839,2.414,2.4254,2.3668,2.3256,2.303,2.2743,0.0,1.3936,1.3044,0.0,0.0,0.0,0.0,0.0,0.0,0.0,0.0,0.0,0.0,0.0,0.0,0.0,0.0,0.0,0.0,0.0,0.0,0.0,0.0,0.0,0.0,0.9606,0.8915,0.9074,0.9217,0.8674,0.7855,0.6944,0.6086,0.5694,0.5348,0.0,0.0,0.0,0.0,0.0,0.0,0.3872,0.4348,0.4731,0.4885,0.5075,0.4949,0.4359,0.3718,0.3317,0.3243,0.2657,0.2455,0.276,0.2811,0.0,0.0,0.0,0.0,0.0,0.0,0.0,0.0,0.0,0.0,0.0,0.0,0.0,0.0,0.0,0.0,0.0,0.0,0.0,0.0,0.0,0.0,0.0,0.0,0.0,0.0,0.0,0.0,0.0,1.6435,1.7329,1.7173,1.7783,1.7522,0.0,0.0,0.0,0.0,0.0,0.0,0.0,0.0,0.0,2.1428,2.2495,2.356,2.4544,2.5721,2.6688,2.7478,2.7697,2.7825,2.7834,2.654,2.5585,2.4888,2.388,2.1287,1.7701,1.6995,1.5963,1.4699,0.0,0.0,0.0,0.0,1.223,1.1963,1.2178,1.1899,1.1388,1.1257,0.0,0.0,0.0,0.0,0.0,0.0,0.0,0.842,0.8385,0.9264,1.0063,0.9701,0.9981,1.0167,0.9733,0.9046,0.8136,0.6913,0.6508,0.6122,0.5336,0.4885,0.0,0.0,0.0,0.5225,0.5706,0.6063,0.6238,0.6118,0.5899,0.5514,0.4868,0.4,0.3464,0.3464,0.2772,0.2448,0.2628,0.2751,0.2959,0.0,0.0,0.0,0.0,0.0,0.0,0.0,0.0,0.0,0.0,0.0,0.0,0.0,0.0,0.0,0.0,0.0,0.0,0.0,0.0,0.0,0.0,0.0,0.0,0.0,0.0,0.0,0.0,1.9052,1.9561,1.8275,2.0251,2.0385,0.0,0.0,0.0,0.0,0.0,0.0,2.2349,2.2949,2.4073,2.5824,2.7262,2.8333,2.903,2.964,3.0294,3.0988,3.0675,3.0623,3.0727,2.9211,2.7819,2.6561,2.5045,2.3268,2.1327,2.0005,1.8406,1.668,1.5456,1.4513,1.3883,1.4086,1.3871,1.3541,1.3775,1.3481,1.2932,1.2409,1.1735,1.0859,0.9377,0.0,0.0,0.0,0.0,0.9177,0.9773,1.0289,1.0671,1.0684,1.0967,1.1141,1.0768,1.0162,0.9275,0.7895,0.743,0.7004,0.616,0.5576,0.0,0.5546,0.5935,0.6426,0.7017,0.7107,0.7065,0.6956,0.6349,0.5706,0.504,0.4164,0.3605,0.348,0.2839,0.2491,0.2534,0.2723,0.291,0.3117,0.0,0.0,0.0,0.0,0.0,0.0,0.0,0.0,0.0,0.0,0.0,0.0,0.0,0.0,0.0,0.0,0.0,0.0,0.0,0.0,0.0,0.0,0.0,0.0,0.0,0.0,0.0,0.0,0.0,2.2812,2.519,0.0,0.0,0.0,0.0,2.2901,2.397,2.5411,2.7072,2.7732,2.883,3.0581,3.1223,3.2084,3.3273,3.2215,3.2241,3.3404,3.2241,3.2006,3.2542,3.1902,3.0664,2.9082,2.8421,2.6544,2.3644,1.9978,1.8043,1.7225,1.5733,1.5399,1.556,1.47,1.4332,1.4118,1.3258,1.266,1.2382,1.3162,1.2668,1.1559,1.0612,0.9911,0.0,0.0,0.987,1.0303,1.0648,1.1462,1.2165,1.2031,1.2121,1.2191,1.2036,1.1039,0.9881,0.8984,0.8094,0.748,0.7405,0.0,0.6336,0.6113,0.6144,0.628,0.6509,0.6256,0.612,0.6231,0.5708,0.5022,0.423,0.3933,0.3595,0.3156,0.2839,0.2665,0.2597,0.2612,0.27,0.2915,0.3017,0.0,0.0,0.0,0.0,0.0,0.0,0.0,0.0,0.0,0.0,0.0,0.0,0.0,0.0,0.0,0.0,0.0,0.0,0.0,0.0,0.0,0.0,0.0,0.0,0.0,0.0,0.0,0.0,2.7655,3.0221,0.0,2.7108,2.7741,2.8474,2.8838,2.9603,3.0804,3.2498,3.2572,3.3235,3.462,3.4281,3.4267,3.4685,3.3875,3.3692,3.411,3.3692,3.3404,3.3221,3.1888,3.0346,2.8656,2.7314,2.5301,2.2897,2.1532,2.0399,1.9415,1.8524,1.7795,1.7291,1.7284,1.7076,1.6697,1.635,1.5877,1.5228,1.4067,1.2887,1.1807,1.1117,1.0788,1.0685,1.1069,1.1521,1.1958,1.2209,1.2492,1.2602,1.2306,1.2265,1.2302,1.2245,1.1827,1.1387,1.1085,0.9122,0.7597,0.7887,0.6997,0.6613,0.7742,0.7674,0.7727,0.8338,0.8309,0.7944,0.7122,0.6851,0.6137,0.467,0.4217,0.3796,0.3315,0.2913,0.2689,0.267,0.2697,0.2765,0.2846,0.2819,0.3035,0.0,0.0,0.0,0.0,0.0,0.0,0.0,0.0,0.0,0.0,0.0,0.0,0.0,0.0,0.0,0.0,0.0,0.0,0.0,0.0,0.0,0.0,0.0,0.0,0.0,2.9783,3.2046,3.1999,3.4695,3.5276,3.2034,3.2626,3.3355,3.372,3.4317,3.5273,3.6759,3.6615,3.6974,3.7992,3.7389,3.6839,3.6336,3.5584,3.4914,3.4397,3.4214,3.3927,3.3535,3.2176,3.0712,2.9205,2.7445,2.538,2.3239,2.2846,2.2009,2.0909,2.0334,1.963,1.8999,1.9159,1.9107,1.8921,1.8506,1.7748,1.665,1.4943,1.3696,1.2766,1.2247,1.2064,1.2143,1.2505,1.2865,1.3158,1.3243,1.3233,1.3113,1.2784,1.2643,1.2591,1.2696,1.2467,1.2224,1.22,1.0216,0.8652,0.8962,0.7934,0.7518,0.8839,0.8649,0.8611,0.9386,0.9117,0.8478,0.7597,0.7369,0.6532,0.4743,0.4711,0.4321,0.3305,0.3193,0.3032,0.2737,0.2785,0.2806,0.2829,0.305,0.3451,0.4046,0.0,0.0,0.0,0.0,0.0,0.0,0.0,0.0,0.0,0.0,0.0,0.0,0.0,0.0,0.0,0.0,0.0,0.0,0.0,0.0,0.0,0.0,0.0,3.1629,3.4532,3.6417,3.5848,3.8601,3.905,3.5192,3.6428,3.7499,3.7397,3.7853,3.8653,3.9773,3.9788,4.0027,4.0618,4.0547,3.984,3.8412,3.7259,3.595,3.4424,3.3916,3.3654,3.3561,3.296,3.2045,3.0869,2.9144,2.7138,2.494,2.3759,2.2608,2.1538,2.0936,2.0699,2.0646,2.0022,2.0177,2.0489,1.9316,1.7826,1.631,1.5709,1.5134,1.4533,1.4001,1.3817,1.3817,1.3801,1.3791,1.3758,1.3632,1.3708,1.3741,1.3547,1.331,1.3207,1.3446,1.2889,1.2324,1.2234,1.1359,1.0641,1.0609,0.9712,0.9077,0.932,0.8941,0.0,0.9451,0.8392,0.7553,0.754,0.7146,0.617,0.4405,0.5406,0.5208,0.3053,0.3647,0.37,0.2844,0.2801,0.2838,0.2939,0.3713,0.4505,0.5303,0.0,0.0,0.0,0.0,0.0,0.0,0.0,0.0,0.0,0.0,0.0,0.0,0.0,0.0,0.0,0.0,0.0,0.0,0.0,0.0,0.0,3.3921,3.6569,3.6084,3.8065,4.013,4.1683,4.3277,4.3557,4.1773,4.2058,4.2149,4.1635,4.1775,4.201,4.2283,4.1715,4.1472,4.1603,4.0107,3.9005,3.8412,3.7372,3.6238,3.5051,3.5086,3.4606,3.3561,3.2542,3.1406,3.0257,2.8961,2.7314,2.5563,2.5219,2.4409,2.321,2.1407,2.0699,2.0699,2.0491,1.9993,1.9394,1.9525,1.8427,1.6885,1.6336,1.6023,1.5709,1.4689,1.4393,1.4315,1.3922,1.3791,1.3775,1.3758,1.3758,1.3775,1.3725,1.3657,1.3641,1.3691,1.3463,1.3116,1.2698,1.1998,1.1323,1.0822,0.9624,0.9209,1.067,0.988,0.9428,1.0323,0.948,0.868,0.8396,0.8514,0.7677,0.5415,0.619,0.5737,0.3211,0.3621,0.3685,0.3054,0.3008,0.3239,0.3678,0.4311,0.4889,0.0,0.0,0.0,0.0,0.0,0.0,0.0,0.0,0.0,0.0,0.0,0.0,0.0,0.0,0.0,0.0,0.0,0.0,0.0,0.0,0.0,0.0,3.9289,4.2159,4.306,4.3203,4.3856,4.5623,4.5672,4.5361,4.4929,4.4267,4.3708,4.3319,4.329,4.329,4.329,4.282,4.2537,4.2537,4.1331,4.0179,3.9145,3.8535,3.7478,3.5993,3.6141,3.5608,3.4524,3.358,3.2674,3.1694,3.0201,2.8906,2.7714,2.6916,2.5914,2.4691,0.0,0.0,0.0,0.0,2.0518,1.9028,1.9865,1.8872,1.712,1.6571,1.6388,1.6205,1.5283,1.4794,1.455,1.4219,1.3975,1.3791,1.3791,1.3791,1.3791,1.3791,1.3791,1.3791,1.3791,1.3741,1.3587,1.3275,1.2699,0.0,1.1409,1.0142,0.9632,1.0859,1.0135,0.9692,1.0337,0.9779,0.9138,0.8695,0.9038,0.8403,0.6181,0.6998,0.0,0.0,0.0,0.4079,0.3131,0.3367,0.0,0.0,0.0,0.5434,0.5715,0.5962,0.0,0.0,0.6283,0.6141,0.0,0.0,0.0,0.0,0.0,0.0,0.0,0.0,0.0,0.0,0.0,0.0,0.0,0.0,0.0,0.0,4.4756,4.7642,5.0773,4.8988,4.7539,4.8072,4.6652,4.5691,4.5826,4.4449,4.3539,4.3449,4.3389,4.329,4.329,4.329,0.0,0.0,0.0,4.2248,4.0216,4.0188,3.9092,3.6978,3.7039,3.669,3.5975,3.5405,3.4787,3.4096,3.2231,3.104,3.0235,2.8577,2.7094,2.5728,2.3859,2.3208,2.3261,2.3027,2.1302,1.9264,2.0308,0.0,0.0,1.6728,1.6565,1.6362,1.5761,1.5178,1.4689,1.4611,1.4193,1.3791,1.3791,1.3791,1.3791,1.3791,1.3791,1.3791,1.3791,1.3791,1.3791,1.3713,1.3268,1.2703,1.2099,1.1001,1.0275,1.0462,1.0068,0.984,1.0025,0.9675,0.9253,0.886,0.9242,0.0,0.6911,0.7831,0.7297,0.4489,0.4923,0.4668,0.3296,0.3921,0.431,0.431,0.5481,0.6101,0.6101,0.6629,0.6908,0.6899,0.6483,0.6257,0.0,0.0,0.0,0.0,0.0,0.0,0.0,0.0,0.0,0.0,0.0,0.0,0.0,0.0,0.0,4.5946,4.9593,5.2254,5.3535,5.2509,5.0986,4.9171,4.8234,4.7441,4.68,4.5807,4.5021,4.4479,4.3738,4.329,4.329,4.329,4.329,4.329,4.2821,4.2011,4.0844,4.0515,3.9419,3.7613,3.7834,0.0,3.6669,3.5602,3.504,3.4843,3.3401,3.1584,2.9579,2.9202,2.7568,2.513,2.3568,2.3339,2.3707,2.1878,2.0831,2.0411,2.062,1.9156,1.7251,1.7643,1.7434,1.6937,1.6388,1.5787,0.0,1.476,1.4193,1.3791,1.3791,1.3791,1.3791,1.3791,1.3791,1.3791,1.3791,1.3791,1.366,1.3163,1.298,1.2703,1.2099,1.1447,1.1016,1.1039,1.0547,1.0367,1.0866,1.0456,1.0109,1.0112,1.0507,1.0096,0.8509,0.8831,0.8139,0.5772,0.5383,0.4875,0.4106,0.5067,0.5624,0.5624,0.6351,0.6716,0.6716,0.6847,0.6908,0.6908,0.6816,0.6681,0.0,0.0,0.0,0.0,0.0,0.0,0.0,0.0,0.0,0.0,0.0,3.7009,3.9614,0.0,4.5771,4.9492,5.2572,5.4742,5.5478,5.4793,5.3198,5.0362,4.8636,4.7535,4.7159,4.6052,4.5233,4.49,4.3997,4.3518,4.3518,4.3369,4.329,4.329,4.303,4.2326,4.1214,4.1016,4.0106,3.86,3.8722,3.8223,3.7121,3.6228,3.5648,3.5201,3.3527,3.2098,3.0884,2.9652,2.7798,2.56,2.4641,2.4929,2.5652,2.3554,2.2651,2.2346,2.1648,2.034,1.8869,1.8537,1.8072,1.7633,1.7574,1.6804,1.5871,1.5468,1.4814,1.4158,1.387,1.3791,1.3791,1.3791,1.3791,1.3791,1.3791,1.3791,1.3713,1.3425,1.3346,1.3147,1.2557,1.2233,1.1959,1.1657,1.1135,1.0847,1.1148,1.0926,1.0651,1.0413,1.0843,1.0612,0.9261,0.8493,0.7621,0.6516,0.5673,0.5075,0.4769,0.5561,0.5997,0.5997,0.6603,0.6908,0.6908,0.6908,0.6908,0.6908,0.6908,0.6849,0.0,0.0,0.0,0.0,0.0,0.0,0.0,3.3694,3.437,3.7188,3.958,4.1914,4.4423,4.7128,4.9965,5.2909,5.5074,5.6528,5.6934,5.6449,5.4771,5.1325,4.8938,4.764,4.7804,4.6253,4.5251,4.5251,4.4325,4.3754,4.3754,4.3518,4.3369,4.3369,4.3329,4.2701,4.1384,4.1422,4.0726,3.9373,3.929,3.8661,3.7554,3.6686,3.5998,3.5367,3.2981,3.1985,3.184,2.9024,2.7029,2.5753,2.536,2.588,2.6749,2.526,2.449,2.4003,2.2893,2.176,2.0676,1.9549,1.8806,1.8409,1.8587,1.7727,1.6563,1.6282,1.5532,1.4698,1.4149,1.4086,1.4149,1.4066,1.4155,1.419,1.4018,1.3948,1.3922,1.3817,1.3791,1.366,1.3163,1.3085,1.2834,1.2099,1.1617,1.1358,1.1358,1.1358,1.1161,1.0691,1.0978,1.0742,0.959,0.8096,0.7074,0.6742,0.585,0.5253,0.5049,0.5548,0.59,0.5997,0.6464,0.6794,0.6908,0.6908,0.6908,0.6908,0.6908,0.6908,3.2722,3.1011,3.093,3.5021,3.4641,3.5013,0.0,4.2557,4.2726,4.506,4.7293,4.9154,5.0168,5.1725,5.3856,5.6799,5.8051,5.8457,5.7848,5.7653,5.5951,5.1595,5.0197,4.9584,4.9615,4.749,4.6121,4.6121,4.4804,4.3988,4.3988,4.3754,4.3636,4.3636,4.3438,4.2701,4.1384,4.1422,4.0726,3.9373,3.8811,3.8422,3.8212,3.6417,3.5579,3.531,3.193,3.044,3.0135,2.5914,2.4082,2.3909,2.3844,2.3926,2.4072,2.4086,2.407,2.3994,2.3928,2.2767,2.1276,2.1068,2.0195,1.9154,1.8683,1.8039,1.7348,1.6722,1.6106,1.5501,1.4854,1.5121,1.5463,1.5033,1.5414,1.5586,1.4699,1.4507,1.4367,1.3896,1.3791,1.3791,1.3713,1.3713,1.3304,1.2177,1.1942,1.1916,1.1916,1.1916,1.189,1.1812,1.1435,1.0742,0.959,0.8835,0.7744,0.6206,0.5971,0.545,0.4438,0.4984,0.5502,0.5997,0.6075,0.6351,0.6908,0.6908,0.6908,0.6908,0.6908,0.6908,3.5188,3.4624,3.5015,3.6446,3.8024,4.0028,4.32,4.435,4.55,4.8173,5.0507,5.23,5.3044,5.4769,5.6325,5.7137,5.8592,5.9235,5.8051,5.7524,5.6026,5.2872,5.0996,4.977,4.9288,4.7983,4.6963,4.6577,4.5446,4.4617,4.422,4.3988,4.3871,4.3871,4.3793,4.3081,4.1761,4.1761,4.1023,3.9589,3.9288,3.8677,3.7764,3.6207,3.4651,3.3095,3.2138,3.1421,3.0703,2.732,2.5009,2.361,2.361,2.361,2.3656,2.4161,2.5086,2.5925,2.479,2.4234,2.387,2.3074,2.2038,2.1016,2.0598,1.9612,1.8482,1.7748,1.7203,1.6687,1.6084,1.6129,1.6264,1.6093,1.6254,1.6246,1.5449,1.5305,1.5046,1.4245,1.4089,1.4023,1.3825,1.4053,1.4001,1.3173,1.2755,1.252,1.252,1.252,1.252,1.252,1.2009,1.1344,1.0559,0.9657,0.8819,0.8086,0.7092,0.6456,0.6284,0.5881,0.5776,0.5997,0.5698,0.581,0.6378,0.6378,0.655,0.6908,0.6908,0.6908,3.6925,3.752,3.8655,3.9313,4.2202,4.5048,4.5698,4.7225,4.8951,5.0676,5.2672,5.4093,5.3991,5.5446,5.6697,5.6799,5.8321,5.9099,5.8051,5.7442,5.5953,5.2909,5.1061,4.9658,4.8651,4.8104,4.758,4.7039,4.6039,4.5221,4.4692,4.4305,4.4104,4.4104,4.4026,4.335,4.2014,4.1802,4.097,3.9496,3.9134,3.837,3.7241,3.5737,3.3934,3.2049,3.2318,3.2079,3.1241,2.7859,2.5345,2.361,2.361,2.361,2.367,2.4126,2.5495,2.6866,2.5585,2.558,2.5903,2.4734,2.3595,2.2608,2.2236,2.1005,1.9602,1.8841,1.8277,1.7756,1.7159,1.7119,1.7228,1.7106,1.7249,1.71,1.6214,1.6168,1.5972,1.491,1.4724,1.4697,1.4601,1.4774,1.4855,1.4631,1.4095,1.3576,1.3195,1.3163,1.3085,1.2928,1.2505,1.1904,1.103,1.0049,0.9301,0.8814,0.7441,0.6752,0.6996,0.6213,0.5776,0.5776,0.541,0.5384,0.5776,0.5919,0.6213,0.6655,0.6821,0.6908,3.747,3.8167,3.9984,4.4956,4.7444,4.924,5.1513,5.3788,5.504,5.3687,5.46,5.4972,5.2773,5.3078,5.4329,5.6461,5.7442,5.7949,5.7881,5.7881,5.5953,5.0811,5.0135,4.9528,4.8048,4.7835,4.7793,4.7758,4.6474,4.566,4.566,4.4768,4.4266,4.4266,4.4104,4.335,4.2014,4.1346,4.0345,3.9039,3.7701,3.7064,3.6942,3.4817,3.3728,3.3365,3.2079,3.154,3.1092,2.5884,2.367,2.361,2.361,2.361,2.361,2.361,2.4507,2.5764,2.6333,2.6542,2.6458,2.577,2.4664,2.3468,2.2862,2.1734,2.052,1.9821,1.9193,1.8519,1.7845,1.8143,1.8535,1.815,1.8542,1.8584,1.6937,1.7092,1.7195,1.5999,1.5745,1.5943,1.6507,1.6123,1.5954,1.6535,1.6112,1.5258,1.3944,1.3765,1.3556,1.2954,1.2875,1.218,1.0482,0.9828,0.8788,0.7091,0.6378,0.5803,0.5285,0.5239,0.5239,0.5239,0.5213,0.5213,0.5239,0.575,0.6023,0.6049,0.6629,0.6908,3.8295,4.2011,4.6252,4.8272,5.1442,5.4316,5.5128,5.5485,5.531,5.3822,5.3078,5.2334,5.1082,5.186,5.3281,5.504,5.7205,5.8287,5.7306,5.7171,5.5412,5.0642,5.0101,4.9526,4.8041,4.791,4.7866,4.7868,4.7436,4.7162,4.7159,4.6386,4.6176,4.6657,4.5691,4.4488,4.3118,4.1928,4.0594,3.912,3.7676,3.655,3.5639,3.4941,3.3698,3.2198,3.2647,3.2318,3.1241,2.7709,2.5219,2.361,2.361,2.361,2.361,2.361,2.4448,2.5621,2.5854,2.6213,2.6542,2.6333,2.5644,2.4717,2.361,2.2981,2.2413,2.1335,2.0528,1.9971,1.9761,1.954,1.9343,1.92,1.933,1.9205,1.8226,1.8532,1.8537,1.7031,1.7084,1.7234,1.6792,1.6863,1.7195,1.7786,1.6705,1.5494,1.4591,1.4461,1.4394,1.4175,1.4147,1.3765,1.2775,1.2165,1.1399,1.0409,0.9409,0.8749,0.8535,0.7803,0.7148,0.6604,0.6249,0.5956,0.5724,0.5969,0.6258,0.6603,0.6794,0.7126,4.22,4.6759,5.1286,5.3007,5.5718,5.7855,5.7661,5.6611,5.5006,5.2435,5.0676,4.9154,4.7597,4.7868,4.9187,5.1792,5.3822,5.5378,5.6292,5.5716,5.4228,5.1623,5.0574,4.9627,4.8409,4.8308,4.8293,4.8288,4.8297,4.8265,4.8284,4.7617,4.7413,4.7867,4.6471,4.5039,4.3671,4.2203,4.0578,3.884,3.7714,3.6598,3.5522,3.5125,3.3788,3.1856,3.2496,3.2288,3.1301,2.8667,2.6596,2.4956,2.435,2.3901,2.361,2.361,2.4298,2.5262,2.5525,2.6033,2.6632,2.6896,2.6333,2.5495,2.4866,2.4358,2.3789,2.2981,2.2113,2.1455,2.1695,2.1246,2.0756,2.0756,2.0756,2.0516,1.96,1.9929,1.9964,1.8413,1.8437,1.8514,1.7893,1.8083,1.8393,1.8529,1.7585,1.651,1.556,1.5274,1.5077,1.4836,1.4808,1.4458,1.3657,1.3232,1.2663,1.1864,1.0873,1.0264,1.0232,0.9313,0.8476,0.7788,0.7434,0.7041,0.6655,0.6635,0.6783,0.7088,0.7039,0.7185,4.8786,5.219,5.511,5.8951,6.0073,6.001,5.9144,5.7158,5.4228,4.9695,4.7496,4.55,4.2557,4.1576,4.2625,4.7022,4.8007,4.9968,5.5006,5.3957,5.2875,5.3484,5.1623,4.9932,4.9154,4.9052,4.9052,4.9018,4.8989,4.9028,4.9128,4.8386,4.8039,4.8072,4.6606,4.5145,4.3751,4.2166,4.0324,3.8278,3.7709,3.7148,3.6508,3.54,3.3959,3.2355,3.1796,3.1568,3.1359,2.8719,2.761,2.7435,2.5691,2.4462,2.3661,2.361,2.4029,2.4694,2.5322,2.6004,2.6632,2.7285,2.6662,2.5764,2.6363,2.5704,2.4694,2.4664,2.3759,2.2942,2.349,2.3191,2.2733,2.2733,2.2733,2.2343,2.1096,2.1306,2.1335,2.0007,1.9738,1.9708,1.9738,1.9738,1.948,1.8852,1.8762,1.8254,1.682,1.6202,1.5653,1.4968,1.4911,1.4406,1.323,1.3145,1.2684,1.1549,1.0865,1.047,1.0441,0.9857,0.9274,0.8714,0.8714,0.8434,0.7901,0.776,0.764,0.7506,0.7379,0.7259,5.2082,5.6681,6.0892,6.1343,6.2409,6.2439,5.8913,5.5532,5.1741,4.6733,4.3227,4.0392,3.8556,3.9851,4.2117,4.4959,4.9627,5.3551,5.5446,5.663,5.6562,5.4566,5.3315,5.1894,4.9999,4.983,4.9593,4.9052,4.8998,4.9476,5.0587,4.9954,4.9789,5.0325,4.8385,4.6662,4.5232,4.2183,3.9836,3.8306,3.8137,3.7737,3.705,3.623,3.4585,3.2382,3.2247,3.2191,3.1977,2.9287,2.7965,2.746,2.5778,2.4897,2.4439,2.3811,2.4103,2.4747,2.4837,2.5292,2.5884,2.6063,2.6213,2.6273,2.5944,2.5974,2.6004,2.5495,2.4754,2.4156,2.4306,2.3879,2.337,2.337,2.3032,2.2613,2.2254,2.2313,2.2044,2.0707,2.0049,1.9857,2.0348,2.0019,1.9648,1.945,1.9468,1.8932,1.7571,1.7305,1.6951,1.6272,1.6213,1.592,1.5151,1.5077,1.4778,1.4025,1.3357,1.2772,1.2321,1.1692,1.1002,1.0248,1.0248,0.9856,0.9084,0.9072,0.9046,0.8957,0.8921,0.916,5.6428,6.0484,6.3599,6.3164,6.3033,6.1722,5.6952,5.2974,4.8506,4.2411,3.8962,3.6468,3.4697,3.596,3.8362,4.1636,4.6109,5.0608,5.4668,5.5446,5.5716,5.5987,5.4532,5.2739,5.0777,5.0574,5.0135,4.9086,4.9289,4.983,5.0676,5.0642,5.0608,5.071,4.8852,4.6743,4.4302,4.1929,4.0205,3.9109,3.8805,3.8335,3.7615,3.7018,3.5711,3.3943,3.3841,3.3802,3.3584,3.0871,2.9289,2.8427,2.7114,2.6156,2.5447,2.5081,2.4724,2.4458,2.4619,2.4935,2.5272,2.5525,2.5854,2.6153,2.6063,2.6512,2.6956,2.6572,2.6004,2.5555,2.5854,2.5405,2.4926,2.4926,2.4657,2.432,2.4029,2.3969,2.367,2.2601,2.1665,2.1235,2.1874,2.1425,2.0936,2.0636,2.0557,2.0079,1.8762,1.8326,1.7878,1.7204,1.6876,1.6547,1.6219,1.5934,1.5677,1.5372,1.4696,1.4071,1.346,1.2792,1.2102,1.1384,1.1364,1.1142,1.0663,1.0383,1.0226,1.0121,0.9769,0.9829,6.0991,6.3563,6.4758,6.4359,6.263,5.9572,5.406,4.9641,4.4785,3.7759,3.5069,3.3322,3.1393,3.1921,3.402,3.843,4.117,4.5432,5.3213,5.2773,5.3078,5.6867,5.504,5.2875,5.1217,5.1082,5.0439,4.8984,4.9526,4.9999,5.0067,5.0608,5.0473,4.9526,4.8173,4.5771,4.2185,4.1508,4.0832,4.0113,3.9566,3.893,3.8199,3.772,3.6957,3.6059,3.5729,3.5498,3.5116,3.2563,3.0837,2.9751,2.878,2.771,2.6703,2.6755,2.5808,2.4551,2.4972,2.5141,2.5196,2.5385,2.5525,2.5734,2.6393,2.7016,2.7495,2.7555,2.7245,2.6964,2.7535,2.7264,2.6844,2.6844,2.6711,2.6422,2.5854,2.5585,2.5322,2.4844,2.3699,2.3002,2.352,2.3182,2.2583,2.1934,2.1924,2.1475,2.0145,1.9318,1.8583,1.7908,1.7324,1.6906,1.6711,1.6233,1.5932,1.5899,1.5309,1.4654,1.4062,1.3392,1.2756,1.2127,1.2096,1.2158,1.221,1.1574,1.1189,1.1061,1.0429,1.0084,6.3526,6.5627,6.675,6.407,6.2292,5.9116,5.1298,4.5754,4.0654,3.5132,3.2341,3.0751,3.0378,3.2374,3.5407,3.93,4.2828,4.6887,5.1995,5.345,5.4059,5.4228,5.3822,5.2672,5.0507,5.027,4.9695,4.8176,4.8781,4.9458,5.0067,4.9627,4.8477,4.6515,4.5602,4.3944,4.1407,4.1271,4.0832,4.0113,3.9978,3.9556,3.8814,3.8125,3.7461,3.6845,3.596,3.489,3.3664,3.2254,3.0991,2.987,2.8941,2.8415,2.8147,2.7496,2.7155,2.6963,2.6967,2.6957,2.6725,2.5235,2.5143,2.5734,2.6393,2.6686,2.6896,2.7435,2.7819,2.8045,2.8167,2.8106,2.8014,2.8014,2.7303,2.6596,2.6452,2.5555,2.4903,2.5322,2.4358,2.346,2.358,2.352,2.3221,2.2613,2.3056,2.2947,2.1603,2.0314,1.9271,1.8612,1.8416,1.7908,1.6801,1.6698,1.6487,1.5998,1.5415,1.4783,1.4185,1.3521,1.2856,1.219,1.219,1.22,1.22,1.2077,1.2005,1.1974,1.1851,1.178,6.4577,6.617,6.6714,6.3889,6.0829,5.6632,4.9471,4.3731,3.833,3.2775,3.0329,2.9057,2.8647,3.09,3.3626,3.6197,3.9445,4.347,4.868,4.9729,5.0676,5.2638,5.2536,5.1725,5.0236,4.9729,4.9221,4.8545,4.8443,4.8409,4.8376,4.7665,4.6616,4.5162,4.4384,4.3098,4.1238,4.1204,4.0832,4.0113,4.0113,3.9537,3.843,3.8058,3.7313,3.6299,3.5802,3.5194,3.4428,3.3125,3.225,3.1653,3.0419,2.9593,2.9059,2.9017,2.8457,2.7741,2.7941,2.7791,2.7355,2.6355,2.62,2.6368,2.6293,2.6795,2.7388,2.7727,2.8256,2.8724,2.8724,2.8724,2.8724,2.8724,2.8326,2.7961,2.8031,2.7511,2.7117,2.7503,2.6691,2.5971,2.6138,2.5848,2.5332,2.4453,2.467,2.4463,2.3111,2.2063,2.0877,1.9502,1.9049,1.8597,1.7948,1.762,1.7213,1.6617,1.6311,1.571,1.4763,1.4067,1.3401,1.2724,1.2724,1.2724,1.2724,1.2724,1.2724,1.2724,1.2354,1.22,6.4765,6.6062,6.6134,6.3382,5.9246,5.417,4.7806,4.2098,3.6594,3.1119,2.9081,2.8128,2.7542,2.9226,3.136,3.3322,3.5487,3.9073,4.5196,4.5737,4.6921,5.0879,5.1116,5.0676,4.9932,4.9357,4.8883,4.8545,4.7564,4.6853,4.6583,4.5703,4.479,4.3904,4.3267,4.232,4.0967,4.0967,4.0663,4.0113,4.0113,3.9309,3.7922,3.7922,3.7077,3.56,3.56,3.5498,3.5194,3.41,3.3355,3.2848,3.1833,3.0777,2.9929,3.0442,2.9728,2.8575,2.9009,2.8813,2.8343,2.8046,2.7598,2.7062,2.6459,2.7127,2.8066,2.8075,2.8672,2.9303,2.9303,2.928,2.9234,2.9143,2.918,2.9262,2.9384,2.9339,2.9262,2.9384,2.8857,2.8401,2.8459,2.8162,2.7549,2.6504,2.6581,2.6301,2.4945,2.4338,2.3269,2.1277,2.0093,1.9307,1.9017,1.852,1.799,1.7364,1.7196,1.6612,1.547,1.4763,1.4098,1.3432,1.3421,1.3421,1.3421,1.3421,1.334,1.3186,1.2662,1.2323,6.4101,6.5627,6.5881,6.2005,5.8178,5.335,4.5652,3.9807,3.4865,3.0842,2.9081,2.83,2.8231,2.8766,3.033,3.3829,3.4066,3.6129,4.2794,4.4282,4.5602,4.8007,4.9424,4.9898,4.9187,4.9052,4.8443,4.709,4.5026,4.439,4.5737,4.4418,4.297,4.1576,4.1441,4.1035,4.0214,4.0214,4.018,4.0113,4.0113,3.9309,3.7922,3.7922,3.7077,3.56,3.56,3.5115,3.4324,3.437,3.322,3.1461,3.1989,3.1732,3.105,3.1098,3.103,3.0889,3.0937,3.0903,3.0769,3.0075,2.8722,2.7366,2.7198,2.7731,2.834,2.8307,2.9059,2.9924,2.9924,2.9815,2.9639,2.9262,2.9284,2.9384,2.9406,2.9384,2.9384,2.9406,2.9352,2.9096,2.851,2.8882,2.8965,2.8253,2.8766,2.879,2.7439,2.7316,2.6635,2.472,2.2319,2.0309,1.9095,1.901,1.874,1.8037,1.747,1.687,1.6147,1.547,1.4793,1.4129,1.4098,1.4098,1.4098,1.4098,1.379,1.3217,1.3155,1.2785,6.0333,6.285,6.3801,5.9757,5.5805,5.1321,4.5287,3.9301,3.4197,3.1222,2.9686,2.8695,2.806,2.8694,2.9723,3.0978,3.0939,3.2442,3.7347,3.8328,4.0189,4.466,4.6143,4.7361,4.8849,4.8206,4.7056,4.5596,4.3775,4.2997,4.3606,4.2658,4.161,4.0561,4.0527,4.0417,4.0113,4.0113,4.0113,4.0113,4.0113,3.9309,3.7922,3.7922,3.7077,3.56,3.56,3.5363,3.4979,3.4167,3.3491,3.2903,3.1989,3.1481,3.119,3.119,3.119,3.119,3.119,3.119,3.1157,3.0852,3.0281,2.951,2.8497,2.8702,2.9255,2.9214,2.9865,3.0531,3.0531,3.051,3.0426,3.0267,3.0309,3.0393,3.0477,3.0414,3.0393,3.0477,3.0372,3.0147,2.9629,2.9761,2.9751,2.922,2.9436,2.9523,2.8995,2.8605,2.7968,2.6824,2.472,2.2742,2.1136,2.1013,2.0404,1.8929,1.8592,1.7976,1.684,1.6163,1.5501,1.4837,1.4793,1.4793,1.4793,1.4793,1.4467,1.379,1.339,1.2847,5.576,5.9065,6.0831,5.7275,5.33,4.9039,4.444,3.8645,3.3719,3.1727,3.0456,2.9362,2.8349,2.9092,2.9679,2.9208,2.9234,3.0533,3.3998,3.4675,3.6637,4.1542,4.2794,4.4418,4.7394,4.6955,4.5838,4.435,4.2828,4.1982,4.1982,4.1271,4.0629,4.0113,4.0113,4.0113,4.0113,4.0113,4.0113,4.0113,4.0113,3.9436,3.8227,3.799,3.7212,3.596,3.5701,3.56,3.5532,3.4484,3.3931,3.3647,3.2341,3.1562,3.119,3.119,3.119,3.119,3.119,3.119,3.119,3.119,3.119,3.0987,2.9844,2.9854,3.0166,2.9964,3.0381,3.0932,3.0912,3.0912,3.0932,3.0932,3.1012,3.1092,3.1171,3.1131,3.1092,3.1171,3.1092,3.0912,3.0601,3.0559,3.0456,3.0107,3.0161,3.0204,3.0204,2.9798,2.9272,2.8678,2.7417,2.5726,2.3494,2.2917,2.2039,2.063,1.9857,1.9014,1.8004,1.722,1.6471,1.5808,1.5777,1.5672,1.5501,1.5501,1.5162,1.4486,1.4006,1.3421,5.0788,5.4349,5.7072,5.4651,5.0879,4.6664,4.2646,3.7397,3.3176,3.2343,3.1283,3.0255,2.9419,3.0037,3.0404,2.9541,2.9787,3.1123,3.4066,3.5148,3.6468,3.8768,3.9715,4.1339,4.4344,4.5297,4.5094,4.3511,4.2049,4.1204,4.1204,4.0493,4.0113,4.0113,4.0113,4.0113,4.0113,4.0113,4.0113,4.0113,4.0113,3.9706,3.8937,3.8227,3.7483,3.6761,3.596,3.56,3.56,3.5566,3.445,3.278,3.322,3.2476,3.119,3.119,3.119,3.119,3.119,3.119,3.119,3.119,3.119,3.119,3.119,3.119,3.1021,3.0292,3.0518,3.0992,3.0912,3.0952,3.1012,3.1012,3.1112,3.119,3.119,3.119,3.119,3.119,3.119,3.119,3.119,3.119,3.119,3.119,3.119,3.119,3.119,3.119,3.0998,3.0506,3.0464,2.9151,2.5938,2.4332,2.3484,2.3452,2.1167,1.9783,1.9751,1.8765,1.7854,1.7178,1.7178,1.684,1.6208,1.6208,1.5839,1.5193,1.5193,1.4824,4.4413,4.7186,4.8872,4.6691,4.4676,4.2433,3.9226,3.5421,3.2524,3.2234,3.1476,3.0678,3.0212,3.0376,3.0584,3.0605,3.075,3.1443,3.3162,3.4953,3.7205,4.0146,4.372,4.6082,4.6343,4.5615,4.4388,4.2517,4.1464,4.0768,4.0451,4.0248,4.0113,4.0113,4.0113,4.0113,4.0113,4.0113,4.0113,4.0113,4.0113,3.9445,3.8261,3.8024,3.7212,3.596,3.5701,3.56,3.5566,3.5047,3.3998,3.2713,3.2645,3.2056,3.119,3.119,3.119,3.119,3.119,3.119,3.119,3.119,3.119,3.119,3.119,3.119,3.1157,3.092,3.1002,3.1112,3.1012,3.1052,3.1112,3.1032,3.1112,3.119,3.119,3.119,3.119,3.119,3.119,3.119,3.119,3.119,3.119,3.119,3.119,3.119,3.119,3.119,3.1151,3.0978,3.0958,2.9935,2.7336,2.6724,2.604,2.5067,2.3318,2.2019,2.1323,2.0225,1.8866,1.7223,1.7439,1.686,1.5531,1.5531,1.4947,1.3821,1.3359,1.3267,3.8565,4.1567,4.3513,4.2055,4.0748,3.9335,3.7419,3.4277,3.1836,3.2125,3.156,3.0853,3.0348,3.0599,3.0808,3.0521,3.0872,3.1531,3.2541,3.4677,3.7234,4.0156,4.4577,4.663,4.4869,4.4834,4.4001,4.1904,4.1325,4.0873,4.0402,4.0377,4.0279,4.0113,4.0113,3.9977,3.9706,3.9673,3.9571,3.9276,3.9276,3.8768,3.7889,3.7618,3.6975,3.6062,3.5735,3.543,0.0,3.4675,3.3795,3.2679,3.251,3.1935,3.119,3.119,3.119,3.119,3.119,3.119,3.119,3.119,3.119,3.119,3.119,3.119,3.119,3.119,3.119,3.1171,3.1112,3.1151,3.1171,3.1092,3.1151,3.119,3.119,3.119,3.119,3.119,3.119,3.119,3.119,3.119,3.119,3.119,3.119,3.119,3.119,3.119,3.119,3.119,3.119,3.0642,2.9198,2.8576,2.7869,2.6998,2.517,2.357,2.2377,2.1275,1.9689,1.7542,1.7592,1.6903,1.536,1.5011,1.4406,1.3586,1.3155,1.3186,0.0,3.7112,4.0169,3.9826,3.8447,3.7076,3.6749,3.3698,0.0,3.1944,3.1473,3.0726,3.0147,3.0837,3.1061,2.9783,3.0521,3.1526,3.2317,3.4744,3.7302,3.959,4.3071,4.4107,4.1068,4.3251,4.3921,4.1706,4.1565,4.1343,4.0873,4.0849,4.0601,4.0136,4.0086,3.9731,3.9005,3.8937,3.8565,3.7922,3.7922,3.7889,3.7787,3.7043,3.6728,3.666,3.5893,3.5148,3.4506,3.4506,3.3795,3.2679,3.2679,3.207,3.119,3.119,3.119,3.119,3.119,3.119,3.119,3.119,3.119,3.119,3.119,3.119,3.119,3.119,3.119,3.119,3.119,3.119,3.119,3.119,3.119,3.119,3.119,3.119,3.119,3.119,3.119,3.119,3.119,3.119,3.119,3.119,3.119,3.119,3.119,3.119,3.119,3.1123,3.1123,3.1089,3.1055,2.989,2.9145,2.9145,2.6788,2.468,2.3103,2.2031,2.035,1.8068,1.765,1.6844,1.5553,1.4682,1.4208,1.4091,1.4122,1.4141,3.0323,0.0,3.3228,3.4,3.3597,3.3069,0.0,3.1632,3.0328,3.1125,3.0654,3.0581,3.2234,3.1273,3.0726,3.2191,3.2673,3.3024,3.3519,3.8415,4.252,4.4027,4.6054,4.6261,4.3528,4.3888,4.3673,4.2163,4.2035,4.1825,4.1366,4.1343,4.0996,4.0282,3.9939,3.9552,3.9029,3.843,3.8058,3.7922,3.7922,3.7584,3.7032,3.6231,3.5893,3.5836,3.5081,3.4641,3.4506,3.4506,3.3681,3.2395,3.2395,3.1901,3.119,3.119,3.119,3.119,3.119,3.119,3.119,3.119,3.119,3.119,3.119,3.119,3.119,3.119,3.119,3.119,3.119,3.119,3.119,3.119,3.119,3.119,3.119,3.119,3.119,3.119,3.119,3.119,3.119,3.119,3.119,3.119,3.119,3.119,3.119,3.119,3.0987,3.0412,3.0378,3.0142,2.9585,3.0228,3.0702,3.0702,2.9038,2.7042,2.4663,2.3492,2.1344,1.8068,1.6926,1.5947,1.5056,1.4884,1.4143,1.2927,1.3483,1.3635,2.9556,3.0318,3.1218,3.1671,3.1701,3.1709,3.2169,3.0994,2.9942,3.0391,2.9834,2.9784,3.1479,3.0087,2.9603,3.2436,3.2262,3.2611,3.5042,3.9685,4.3358,4.4791,4.6033,4.6212,4.4782,4.4331,4.3654,4.2609,4.2518,4.2338,4.1846,4.1471,4.0955,4.0332,3.9395,3.8718,3.8252,3.7702,3.7212,3.6817,3.6817,3.6637,3.6231,3.5802,3.5397,3.5081,3.4675,3.4121,3.3512,3.3512,3.2835,3.1819,3.1819,3.1549,3.119,3.119,3.119,3.119,3.119,3.119,3.119,3.119,3.119,3.119,3.119,3.119,3.119,3.119,3.1427,3.165,3.1292,3.1427,3.1616,3.1258,3.119,3.119,3.119,3.119,3.119,3.119,3.119,3.119,3.119,3.119,3.119,3.119,3.119,3.119,3.119,3.0886,3.0548,3.0142,2.9803,2.9431,2.9044,2.9721,3.0006,2.9668,2.8552,2.7012,2.491,2.3909,2.1927,1.8811,1.7048,1.5932,1.5416,1.5136,1.4529,1.3641,1.3705,1.3611,2.9925,3.111,3.1951,3.1278,3.1351,3.1619,3.1914,3.0744,2.9678,2.9717,2.9243,2.9085,2.9935,2.8916,2.8976,3.1983,3.1783,3.29,3.7627,4.0782,4.2972,4.3969,4.491,4.5273,4.4802,4.4222,4.357,4.2774,4.2701,4.2477,4.196,4.1296,4.0689,4.0193,3.8828,3.7886,3.7428,3.7043,3.6446,3.5711,3.5778,3.5756,3.56,3.5452,3.5045,3.4472,3.4235,3.3499,3.2394,3.2394,3.1933,3.1288,3.1288,3.1249,3.119,3.119,3.119,3.119,3.119,3.119,3.119,3.119,3.119,3.119,3.119,3.119,3.119,3.119,3.165,3.1989,3.136,3.1684,3.1989,3.1326,3.119,3.1224,3.1326,3.1258,3.1224,3.1326,3.1258,3.1224,3.1326,3.1258,3.1224,3.1326,3.1258,3.1157,3.1055,3.048,2.9987,2.9751,2.9194,2.8773,2.8671,2.8637,2.8315,2.7519,2.7199,2.6336,2.4745,2.341,2.1757,1.9691,1.7652,1.6442,1.6117,1.5671,1.531,1.5048,1.4527,1.4044,3.0047,3.205,3.3375,3.1228,3.0972,3.1088,3.0498,2.9624,2.8943,2.8906,2.9368,2.9999,3.0784,3.0698,3.1147,3.3001,3.5903,3.9367,4.3594,4.5695,4.6106,4.4295,4.5417,4.5273,4.2501,4.2774,4.2737,4.1922,4.1886,4.1578,4.0781,4.0637,4.0257,3.9554,3.8919,3.8249,3.7498,3.7095,3.6658,3.6178,3.6519,3.6312,3.5588,3.4671,3.4343,3.4438,3.3173,3.2699,3.2808,3.2808,3.2326,3.162,3.162,3.1466,3.119,3.119,3.119,3.119,3.119,3.119,3.119,3.119,3.119,3.119,3.119,3.119,3.119,3.119,3.1258,3.1326,3.1224,3.1292,3.1326,3.1224,3.119,3.136,3.1989,3.165,3.136,3.2022,3.165,3.1393,3.2022,3.1596,3.1393,3.2056,3.1616,3.0954,3.0345,3.0176,2.9582,2.8297,2.806,2.774,2.7114,2.7029,2.6725,2.5964,2.7638,2.769,2.5507,2.1684,1.9697,1.9917,1.8378,1.7266,1.6593,1.7132,1.6652,1.5259,1.579,1.5232,2.9502,3.1116,3.2251,3.0249,3.1114,3.2178,3.0976,3.0038,2.9466,2.9442,3.0427,3.1266,3.1217,3.1581,3.2516,3.4579,3.8211,4.1305,4.2723,4.4229,4.4953,4.4205,4.4367,4.415,4.3099,4.2556,4.194,4.1089,4.1053,4.0727,3.9948,3.9478,3.9079,3.877,3.8129,3.7826,3.7898,3.7685,3.7281,3.66,3.6361,3.6262,3.6256,3.4901,3.4361,3.4495,3.339,3.2778,3.2579,3.2579,3.237,3.1986,3.177,3.1601,3.1466,3.1269,3.119,3.119,3.119,3.119,3.123,3.1408,3.1485,3.1488,3.1731,3.1786,3.1908,3.2341,3.2413,3.2307,3.1921,3.207,3.2273,3.1887,3.1495,3.1393,3.2124,3.2022,3.1887,3.2226,3.2022,3.1887,3.2226,3.1684,3.1427,3.2192,3.1684,3.1089,3.0751,3.0006,2.9228,2.8518,2.7706,2.7063,2.6725,2.6691,2.6387,2.5626,2.659,2.6691,2.5642,2.2462,2.0906,2.1231,1.8966,1.7625,1.7287,1.7625,1.7412,1.6662,1.6595,1.6086,2.9244,3.0467,3.1347,2.9904,3.1333,3.2816,3.1845,3.1088,3.077,3.1406,3.2331,3.278,3.2015,3.2647,3.4205,3.68,4.0404,4.2722,4.2432,4.3633,4.4577,4.4679,4.399,4.3683,4.4118,4.2866,4.1633,4.0654,4.0581,4.0074,3.8966,3.8313,3.7861,3.7664,3.7245,3.7229,3.7631,3.7828,3.7523,3.6754,3.6249,3.6122,3.6283,3.4989,3.4356,3.4283,3.3458,3.2862,3.2418,3.2418,3.2418,3.2384,3.2074,3.1896,3.1822,3.156,3.1466,3.1466,3.1466,3.1466,3.1504,3.1768,3.1824,3.1878,3.2196,3.2282,3.244,3.3038,3.3455,3.3543,3.2883,3.3114,3.3386,3.2828,3.2284,3.21,3.2935,3.2909,3.276,3.2931,3.2612,3.2361,3.253,3.1799,3.1427,3.2192,3.1684,3.1123,3.0954,2.9939,2.9179,2.901,2.7774,2.6894,2.6691,2.6691,2.6454,2.5879,2.571,2.5592,2.5592,2.3632,2.2564,2.2564,1.9778,1.8324,1.8324,1.7986,1.7783,1.7783,1.7219,1.6783,2.9916,3.1298,3.2289,3.1421,3.1384,3.1702,3.2362,3.246,3.3046,3.5278,3.5255,3.4573,3.3675,3.4796,3.6881,4.0134,4.3286,4.584,4.7262,4.8211,4.8186,4.6702,4.5872,4.5128,4.4454,4.3597,4.2449,4.0883,4.0773,3.979,3.7458,3.7275,3.6916,3.6095,3.6728,3.6733,3.5985,3.6689,3.6833,3.6346,3.671,3.6111,3.4667,3.4233,3.3844,3.3458,3.2687,3.2539,3.2763,3.2763,3.2763,3.2763,3.2731,3.2535,3.2248,3.2214,3.2196,3.2196,3.2196,3.2196,3.2214,3.2231,3.2248,3.2248,3.2282,3.2282,3.2318,3.2353,3.3423,3.4415,3.3982,3.3919,3.3953,3.3884,3.3815,3.4105,3.5292,3.4662,3.4111,3.4835,3.355,3.253,3.3186,3.2138,3.1427,3.2192,3.1684,3.0954,3.0277,3.0108,2.977,2.9077,2.8247,2.7418,2.6759,2.6691,2.6657,2.6623,2.5981,2.5592,2.5592,2.412,2.3308,2.3308,2.1028,1.9833,1.9833,1.8459,1.7783,1.7783,1.7749,1.7343,2.9354,3.0271,3.1017,3.0723,3.065,3.1127,3.2926,3.4137,3.5004,3.5394,3.7228,3.8233,3.6384,3.6567,3.7888,4.0639,4.33,4.5754,4.7819,4.8384,4.8125,4.6911,4.6494,4.5439,4.3123,4.2631,4.1573,3.9458,3.8838,3.7963,3.6541,3.5994,3.5781,3.5948,3.5751,3.5991,3.6667,3.6469,3.6043,3.5358,3.5478,3.5455,3.5335,3.4175,3.3851,3.4167,3.3394,3.3111,3.3253,3.3276,3.3262,3.3223,3.2905,3.2601,3.2282,3.2282,3.2282,3.2282,3.2282,3.2282,3.2317,3.2535,3.2601,3.265,3.2894,3.2993,3.31,3.3582,3.4139,3.4562,3.4422,3.4359,3.4498,3.5006,3.4396,3.4084,3.5495,3.5435,3.5234,3.5514,3.4959,3.4506,3.45,3.324,3.2422,3.2889,3.2341,3.1616,3.0886,3.0784,3.0514,2.977,2.8534,2.7486,2.6759,2.6691,2.6691,2.6691,2.6454,2.6285,2.6285,2.488,2.3864,2.341,2.1651,2.0264,1.9316,1.8775,1.8268,1.7783,1.7783,1.7659,2.8913,2.9023,2.9182,2.9684,3.0026,3.098,3.3917,3.5679,3.6927,3.7866,3.9261,3.9937,3.8521,3.8043,3.8762,4.1442,4.3884,4.592,4.7255,4.7677,4.7309,4.5878,4.5715,4.4784,4.2337,4.1879,4.0929,3.9008,3.7896,3.6836,3.574,3.4666,3.4359,3.4892,3.46,3.4987,3.6067,3.576,3.5213,3.4411,3.4345,3.4606,3.5124,3.3989,3.3786,3.4302,3.3756,3.3538,3.3553,3.3559,3.3559,3.3509,3.3142,3.2894,3.2685,3.2669,3.2653,3.2653,3.2653,3.2653,3.2685,3.291,3.2988,3.3034,3.3334,3.3393,3.3574,3.4356,3.479,3.5058,3.5295,3.5243,3.5294,3.5842,3.5366,3.5101,3.6308,3.6429,3.6336,3.6336,3.6066,3.5719,3.5446,3.433,3.3471,3.3451,3.3,3.2402,3.1629,3.156,3.1252,3.0532,2.9281,2.8152,2.7316,2.701,2.6808,2.6708,2.6691,2.659,2.6353,2.5625,2.4846,2.412,2.2646,2.1393,2.0331,1.935,1.864,1.8121,1.7918,1.7783,2.8767,2.7813,2.7005,2.862,2.961,3.1274,3.5385,3.6942,3.8888,4.3681,4.1515,3.8982,3.9753,3.9276,3.979,4.2964,4.5516,4.68,4.5937,4.6543,4.6158,4.3596,4.3428,4.3167,4.2359,4.1535,4.0728,3.99,3.8374,3.6707,3.5078,3.3463,3.2557,3.2514,3.3268,3.3679,3.3623,3.4411,3.4389,3.3587,3.3587,3.3587,3.3587,3.3587,3.3587,3.3587,3.3587,3.3587,3.3587,3.3587,3.3587,3.3573,3.3538,3.3509,3.3495,3.3422,3.3393,3.3393,3.3393,3.3393,3.3393,3.3393,3.3393,3.3393,3.3393,3.3393,3.3574,3.4371,3.5152,3.5965,3.6777,3.664,3.6292,3.631,3.6934,3.7614,3.8106,3.7827,3.7505,3.7505,3.6606,3.5814,3.5814,3.5219,3.4463,3.3618,3.3512,3.3231,3.2388,3.2282,3.2018,3.1262,3.0472,2.9556,2.8465,2.7659,2.7053,2.6725,2.6708,2.6403,2.5642,2.6319,2.6353,2.5592,2.4154,2.341,2.3376,2.0399,1.8922,1.8877,1.8155,1.7817,2.8411,2.7824,2.797,3.0136,3.087,3.2412,3.7624,3.8153,3.8704,4.2983,4.2029,4.0471,4.0691,4.1001,4.1552,4.2506,4.4672,4.6159,4.592,4.6599,4.6195,4.3756,4.3994,4.313,4.0084,3.957,3.8358,3.5789,3.4651,3.3844,3.3353,3.2339,3.2252,3.3363,3.3106,3.346,3.4568,3.4252,3.3996,3.3739,3.3739,3.3712,3.3671,3.3615,3.3615,3.3671,3.3671,3.3671,3.3671,3.3671,3.3671,3.3657,3.3587,3.3559,3.3545,3.3509,3.3466,3.3466,3.3408,3.3393,3.3393,3.3393,3.3393,3.3393,3.3393,3.3393,3.3465,3.3683,3.3936,3.4298,3.5095,3.5198,3.5551,3.7227,3.6958,3.6666,3.794,3.8106,3.7984,3.7984,3.7718,3.7381,3.7039,3.6363,3.551,3.4426,3.4285,3.3986,3.3195,3.2616,3.1791,3.0491,3.014,2.9441,2.8052,2.7672,2.7522,2.743,2.738,2.7109,2.6403,2.659,2.6353,2.5592,2.5169,2.4188,2.2617,2.1752,2.0797,1.9809,1.9498,1.9092,2.8668,2.8301,2.8459,3.1201,3.2375,3.4064,3.8799,4.0634,4.2103,4.4819,4.3351,4.1976,4.326,4.2837,4.2727,4.4011,4.5443,4.614,4.5516,4.5828,4.5021,4.1956,4.2286,4.1332,3.7573,3.7242,3.6288,3.3954,3.2779,3.2118,3.2118,3.1054,3.1164,3.2779,3.2375,3.2889,3.4491,3.4027,3.3807,3.3807,3.3807,3.378,3.3739,3.3698,3.3698,3.3739,3.3739,3.3739,3.3739,3.3739,3.3739,3.3739,3.3657,3.3629,3.3615,3.3545,3.3553,3.3553,3.3495,3.3481,3.3481,3.3481,3.3481,3.3481,3.3481,3.3481,3.3553,3.388,3.3953,3.4134,3.4969,3.4903,3.5162,3.7212,3.6979,3.6616,3.7937,3.8191,3.8191,3.8191,3.8191,3.8106,3.7809,3.7397,3.6645,3.5278,3.4514,3.3946,3.3484,3.3002,3.2378,3.1433,3.1077,3.0305,2.8945,2.8505,2.8164,2.7716,2.7701,2.7537,2.7099,2.6972,2.6637,2.6048,2.5744,2.4797,2.3173,2.2626,2.1752,2.0616,2.0284,1.9889,2.9219,2.9035,2.8815,3.2106,3.438,3.6545,3.9533,4.3791,4.7259,4.7755,4.5076,4.3497,4.6269,4.4452,4.3461,4.6305,4.6819,4.6342,4.4801,4.4525,4.3057,3.9166,3.935,3.8469,3.5114,3.4784,3.438,3.344,3.2008,3.1164,3.1164,2.9806,2.9721,3.136,3.1397,3.2155,3.377,3.3807,3.3807,3.3807,3.3807,3.3807,3.3807,3.3733,3.366,3.3587,3.366,3.3697,3.3697,3.377,3.3807,3.3793,3.3739,3.3712,3.3698,3.3629,3.3601,3.3601,3.3587,3.3587,3.3587,3.3587,3.3587,3.3587,3.3587,3.3587,3.3769,3.4484,3.4703,3.4885,3.5672,3.5263,3.4985,3.652,3.6886,3.7104,3.7937,3.8154,3.8191,3.8191,3.8191,3.8191,3.8191,3.8154,3.7522,3.5912,3.4371,3.3393,3.3393,3.3393,3.3357,3.3284,3.2632,3.1737,3.0528,2.9748,2.892,2.7839,2.7789,2.7774,2.776,2.743,2.7101,2.6808,2.6146,2.5433,2.4667,2.3371,2.2358,2.1634,2.1024,2.0626,2.8301,2.8998,3.0613,3.4541,3.8615,4.1846,4.256,4.5002,4.6599,4.4892,4.4856,4.4929,4.4378,4.4232,4.4195,4.4268,4.4819,4.4874,4.3901,4.3204,4.1809,3.9019,3.8836,3.7441,3.35,3.3133,3.2252,3.0198,2.9721,2.95,2.95,2.9207,2.9721,3.136,3.1397,3.2155,3.377,3.3807,3.3807,3.3807,3.3807,3.3807,3.377,3.3146,3.2522,3.1935,3.2596,3.2839,3.2913,3.355,3.3807,3.3807,3.3793,3.378,3.378,3.3698,3.3671,3.3671,3.3601,3.3587,3.3587,3.3587,3.3587,3.3587,3.3587,3.3587,3.366,3.3806,3.3879,3.4061,3.4849,3.4433,3.4222,3.5784,3.6121,3.629,3.7067,3.7756,3.8191,3.8191,3.8191,3.8191,3.8191,3.7683,3.6705,3.5095,3.4045,3.3393,3.3393,3.3393,3.3176,3.2524,3.2306,3.1604,3.0103,2.98,2.934,2.8468,2.8419,2.8317,2.8106,2.7768,2.7567,2.7507,2.7332,2.6894,2.6141,2.564,2.5023,2.433,2.399,2.322,2.8993,3.0275,3.2539,3.6602,4.0111,4.2733,4.3513,4.4262,4.4562,4.3698,4.4782,4.5296,4.3277,4.3571,4.3864,4.3057,4.3277,4.3534,4.3497,4.247,4.0965,3.8946,3.8358,3.667,3.2949,3.2583,3.1922,3.0283,2.9806,2.9574,2.9574,2.9207,2.9721,3.136,3.1397,3.2155,3.377,3.3807,3.3807,3.3807,3.3807,3.3587,3.322,3.2803,3.2596,3.2559,3.2596,3.2803,3.322,3.3623,3.3807,3.3807,3.3807,3.3807,3.3807,3.3766,3.3753,3.3739,3.3712,3.3698,3.3698,3.3698,3.3698,3.3698,3.3698,3.3698,3.3698,3.3698,3.3698,3.3808,3.4196,3.4256,3.4323,3.4754,3.5363,3.6069,3.6814,3.7647,3.8191,3.8191,3.8191,3.8191,3.8191,3.7196,3.6146,3.5297,3.4154,3.3393,3.3393,3.3393,3.3248,3.2814,3.2777,3.2125,3.0509,3.0364,2.9893,2.8722,2.865,2.8612,2.85,2.8331,2.8087,2.7739,2.7739,2.7387,2.6641,2.6542,2.6135,2.542,2.5206,2.4677,2.9715,3.1771,3.4375,3.8221,4.0411,4.2017,4.3197,4.2996,4.258,4.2854,4.4158,4.4525,4.2139,4.2433,4.2763,4.1846,4.1699,4.1956,4.278,4.1258,3.9554,3.8212,3.7331,3.5693,3.2693,3.2509,3.2265,3.147,3.065,3.021,3.021,2.9574,2.9879,3.136,3.1531,3.2302,3.377,3.3807,3.3807,3.3807,3.3807,3.344,3.2803,3.2656,3.2889,3.3366,3.2839,3.2986,3.3587,3.3733,3.3807,3.3807,3.3807,3.3807,3.3807,3.3807,3.3807,3.3807,3.3807,3.3807,3.3807,3.3807,3.3807,3.3807,3.3807,3.3807,3.3807,3.3807,3.3807,3.3844,3.3954,3.4463,3.4788,3.4247,3.5155,3.6235,3.6556,3.7229,3.7809,3.7792,3.7792,3.7756,3.7627,3.6488,3.5582,3.5452,3.4292,3.3422,3.3408,3.3408,3.3408,3.3393,3.3393,3.2814,3.1329,3.1089,3.0391,2.9003,2.8797,2.8749,2.881,2.881,2.8551,2.801,2.7982,2.7662,2.705,2.7099,2.6796,2.6195,2.5963,2.5808,2.8316,3.1842,3.5897,3.8677,4.0905,4.235,4.1906,4.2622,4.278,4.0797,4.1662,4.2029,3.9643,4.0414,4.0928,3.9423,3.9166,3.946,4.0267,3.7771,3.5738,3.5518,3.4798,3.355,3.1727,3.2192,3.2265,3.147,3.065,3.021,3.021,3.0099,3.0467,3.136,3.2082,3.2889,3.3807,3.3807,3.3807,3.3807,3.3807,3.3733,3.3623,3.2913,3.2265,3.1764,3.2339,3.2656,3.2803,3.3513,3.3807,3.3807,3.3807,3.3807,3.3807,3.3807,3.3807,3.3807,3.3807,3.3807,3.3807,3.3807,3.3807,3.3807,3.3807,3.3807,3.3807,3.3807,3.3807,3.3954,3.4674,3.4917,3.5123,3.5652,3.6449,3.6717,3.5306,3.5623,3.6188,3.6109,3.613,3.5908,3.5281,3.4969,3.4636,3.3982,3.3704,3.353,3.3495,3.3495,3.3466,3.3393,3.3393,3.3031,3.2125,3.1456,3.0685,2.979,2.9162,2.8822,2.8893,2.8893,2.8858,2.8749,2.8712,2.8615,2.8506,2.8343,2.8206,2.8111,2.7853,2.7402,2.948,3.1789,3.4418,3.6928,3.8973,4.0378,4.0528,4.0794,4.0762,3.9811,3.9711,3.929,3.7654,3.9525,4.0619,3.8389,3.8395,3.8982,3.979,3.7477,3.5555,3.5078,3.4674,3.383,3.2228,3.2816,3.3146,3.2779,3.2008,3.1518,3.1518,3.1127,3.1237,3.2045,3.2399,3.2766,3.3109,3.3587,3.3807,3.3807,3.3807,3.3807,3.3807,3.344,3.3073,3.2742,3.2632,3.2839,3.3293,3.366,3.3807,3.3807,3.3807,3.3807,3.3807,3.3807,3.3807,3.3807,3.3807,3.3807,3.3807,3.3807,3.3807,3.3807,3.3807,3.3807,3.3807,3.3807,3.3807,3.388,3.4247,3.4674,3.5064,3.5402,3.5754,3.5798,3.498,3.5751,3.6438,3.5955,3.5867,3.5753,3.5466,3.5045,3.4674,3.4338,3.3879,3.3573,3.3581,3.3567,3.3371,3.2892,3.2855,3.2333,3.1021,3.0651,3.0145,2.9331,2.9004,2.8881,2.8952,2.8952,2.8952,2.8952,2.8893,2.8858,2.8858,2.8773,2.8749,2.8773,2.8513,2.8206,2.933,3.0522,3.2096,3.4594,3.6595,3.8098,3.8742,3.8863,3.8784,3.8503,3.8041,3.7353,3.6347,3.8414,3.9637,3.7794,3.7661,3.8138,3.9145,3.7,3.5128,3.4491,3.4197,3.3683,3.2693,3.3146,3.3513,3.3513,3.2742,3.2228,3.1995,3.1421,3.1384,3.1959,3.2399,3.2509,3.2302,3.3109,3.3513,3.3513,3.3697,3.3807,3.3807,3.3587,3.3513,3.3476,3.3073,3.3256,3.3807,3.3807,3.3807,3.3807,3.3807,3.3807,3.3807,3.3807,3.3807,3.3807,3.3807,3.3807,3.3807,3.3807,3.3807,3.3807,3.3807,3.3807,3.3807,3.3807,3.3807,3.3917,3.4321,3.4711,3.5151,3.5775,3.5628,3.5247,3.4971,3.5608,3.6084,3.5705,3.5451,3.5321,3.541,3.4914,3.4527,3.4542,3.4045,3.3629,3.3615,3.3615,3.3382,3.2771,3.2516,3.1906,3.0628,3.0219,2.9783,2.9187,2.8991,2.894,2.8987,2.8987,2.8987,2.8987,2.894,2.8929,2.8929,2.8929,2.894,2.9012,2.881,2.8688,2.567,2.7268,2.9706,3.2226,3.4507,3.6164,3.628,3.7325,3.7803,3.6204,3.6658,3.6982,3.5923,3.636,3.6993,3.7426,3.6193,3.5775,3.7419,3.4835,3.2766,3.2729,3.2045,3.1861,3.2509,3.2619,3.2656,3.2656,3.1935,3.1127,3.0356,3.0283,3.0283,3.032,3.1812,3.2228,3.147,3.2265,3.2656,3.2656,3.344,3.3807,3.377,3.3023,3.2656,3.2693,3.344,3.377,3.3807,3.3807,3.3807,3.3807,3.3807,3.3807,3.3807,3.3807,3.3807,3.3807,3.3807,3.3807,3.3807,3.3807,3.3807,3.3807,3.3807,3.3807,3.3807,3.3807,3.3807,3.4174,3.5752,3.5591,3.5591,3.794,3.7331,3.5995,3.508,3.43,3.3988,3.4732,3.4243,3.3747,3.3831,3.3771,3.3785,3.3853,3.383,3.3766,3.3698,3.3684,3.3671,3.355,3.2844,3.2356,3.2283,3.0927,3.01,3.0051,2.938,2.9012,2.8987,2.8987,2.8987,2.8987,2.9012,2.8975,2.8975,2.8975,2.9012,2.8987,2.8975,2.8964,2.4606,2.6211,2.8612,3.0605,3.2111,3.3388,3.4509,3.5401,3.5763,3.4784,3.4766,3.4964,3.5141,3.6509,3.7455,3.6993,3.6306,3.6046,3.6633,3.4798,3.3183,3.2656,3.2339,3.2082,3.1861,3.1825,3.1825,3.1825,3.1568,3.1286,3.0993,3.098,3.098,3.098,3.2032,3.2472,3.2192,3.2472,3.2583,3.2619,3.344,3.3807,3.377,3.2963,3.2583,3.2583,3.2375,3.2559,3.306,3.3587,3.3807,3.3807,3.3807,3.3807,3.3807,3.3807,3.3807,3.3807,3.3807,3.3807,3.3807,3.3807,3.3807,3.3807,3.3807,3.3807,3.3917,3.4417,3.4564,3.4821,3.6009,3.6083,3.6083,3.6964,3.711,3.6964,3.6655,3.5849,3.5119,3.4914,3.4621,3.427,3.3826,3.3766,3.378,3.3807,3.3807,3.3793,3.3766,3.3766,3.335,3.2311,3.1931,3.1333,3.0258,2.9685,2.938,2.9344,2.9135,2.8987,2.8987,2.8987,2.8987,2.8987,2.8987,2.8987,2.8987,2.8987,2.8987,2.8987,2.8473,2.8521,2.3269,2.4912,2.7243,2.8924,2.9803,3.0643,3.2332,3.3214,3.3565,3.3218,3.3206,3.3568,3.4431,3.5501,3.6261,3.6186,3.5608,3.5335,3.5803,3.4688,3.3513,3.2693,3.2583,3.2289,3.147,3.1397,3.1286,3.1029,3.098,3.087,3.0613,3.0577,3.0834,3.1397,3.1678,3.2032,3.2583,3.2583,3.2583,3.2619,3.344,3.3807,3.377,3.2963,3.2583,3.2583,3.2045,3.2118,3.2619,3.3183,3.355,3.3807,3.3807,3.3807,3.3807,3.3807,3.3807,3.3807,3.3807,3.3807,3.3807,3.3807,3.3807,3.3807,3.3807,3.3807,3.3917,3.4454,3.4784,3.5188,3.6083,3.6707,3.6964,3.6413,3.711,3.7823,3.7566,3.6787,3.6084,3.5842,3.5314,3.4779,3.4307,3.399,3.3807,3.3807,3.3807,3.3697,3.344,3.3403,3.2889,3.1544,3.1176,3.0564,2.9416,2.911,2.8964,2.894,2.8964,2.8987,2.8987,2.8987,2.8987,2.8987,2.8987,2.8987,2.8987,2.8987,2.8987,2.8987,2.8448,2.8473,0.0,0.0,0.0,2.7205,2.7625,2.8083,2.9726,3.0682,3.1248,3.1286,3.1973,3.2852,3.37,3.302,3.2968,3.4945,3.3944,3.3389,3.4738,3.427,3.3513,3.2729,3.2619,3.2289,3.147,3.1397,3.1017,3.0246,3.0173,2.9843,2.9023,2.8987,2.9757,3.1397,3.0613,3.098,3.2546,3.2583,3.2583,3.2583,3.3403,3.3807,3.377,3.2963,3.2583,3.2583,3.2583,3.2583,3.2583,3.2619,3.3096,3.3807,3.3807,3.3807,3.3807,3.3807,3.3807,3.3807,3.3807,3.3807,3.3807,3.3807,3.3807,3.3807,3.3807,3.3807,3.3807,3.3844,3.4417,3.5261,3.6156,3.7514,3.8322,3.6743,3.7551,3.8505,3.7713,3.6942,3.6597,3.7345,3.6156,3.5041,3.5004,3.4307,3.3807,3.3807,3.3807,3.3513,3.2693,3.2583,3.2302,3.1507,3.0687,3.0246,3.021,2.9464,2.9023,2.8987,2.8987,2.8987,2.8987,2.8987,2.8987,2.8987,2.8987,2.8987,2.8987,2.8987,2.8987,2.8987,2.8987,2.8987,2.1578,0.0,0.0,0.0,0.0,0.0,2.7358,2.7625,2.7969,2.858,2.9376,3.0018,3.0254,3.0562,3.1148,3.2204,3.267,3.2982,3.3246,3.3573,3.3733,3.3476,3.2949,3.2289,3.147,3.087,3.021,2.939,2.9317,2.9244,2.9023,2.8987,3.0014,3.2179,3.0907,3.0687,3.1715,3.2289,3.2289,3.1751,3.3146,3.3807,3.377,3.2963,3.2583,3.2583,3.1971,3.2082,3.2656,3.322,3.3587,3.3807,3.3807,3.3807,3.3807,3.3807,3.3807,3.3807,3.3807,3.3807,3.3807,3.3807,3.3807,3.3807,3.3807,3.3807,3.3917,3.4491,3.5261,3.6266,3.7661,3.8358,3.8579,3.8138,3.8395,3.8652,3.8432,3.8175,3.7918,3.7566,3.6684,3.5752,3.5114,3.4307,3.3807,3.3807,3.3807,3.3513,3.2693,3.2583,3.2302,3.1507,3.1213,3.0834,3.0246,2.9989,2.961,2.9023,2.8987,2.8987,2.8987,2.8987,2.8987,2.8987,2.8987,2.8987,2.8987,2.8987,2.8987,2.8987,2.8987,2.8693,2.0885,2.2484,2.4173,2.3946,0.0,0.0,2.4721,2.4574,2.4345,2.4492,2.5441,2.6282,2.6282,2.7281,2.8304,2.8981,3.0518,3.1896,3.2662,3.3461,3.3939,3.382,3.3403,3.2779,3.1971,3.1164,3.0356,2.9574,2.9207,2.9133,2.9464,3.0124,3.1152,3.2546,3.1702,3.1604,3.2375,3.2522,3.2522,3.2412,3.333,3.3807,3.377,3.333,3.3096,3.306,3.2596,3.2733,3.3314,3.3769,3.3913,3.382,3.3902,3.3991,3.4004,3.4068,3.408,3.408,3.408,3.408,3.408,3.408,3.408,3.4093,3.3979,3.3991,3.4026,3.4385,3.5385,3.6597,3.7881,3.8469,3.8689,3.8689,3.8689,3.8689,3.8689,3.8432,3.8065,3.7603,3.6868,3.6009,3.5151,3.4307,3.3807,3.3807,3.3513,3.3133,3.2656,3.2289,3.1788,3.098,3.0907,3.0723,3.0246,2.9867,2.9647,2.95,2.9207,2.8987,2.8987,2.8987,2.8987,2.8987,2.8987,2.8987,2.8987,2.8987,2.8987,2.8987,2.8987,2.8767,2.021,2.0975,2.2039,2.341,2.2904,0.0,2.2276,2.1899,2.1249,2.0284,2.1512,2.2696,2.262,2.4268,2.5755,2.6205,2.8343,3.0638,3.2497,3.3608,3.4093,3.3739,3.3747,3.3476,3.2693,3.1935,3.1201,3.0393,2.9647,2.961,3.043,3.1665,3.2472,3.2729,3.2472,3.2766,3.366,3.2889,3.2889,3.366,3.3687,3.375,3.386,3.385,3.3863,3.3863,3.3863,3.4005,3.4227,3.4227,3.408,3.3889,3.413,3.4227,3.425,3.4431,3.4508,3.4508,3.4508,3.4508,3.4508,3.4508,3.4508,3.4464,3.4286,3.4227,3.4216,3.4039,3.5151,3.655,3.7374,3.8169,3.8795,3.8795,3.8795,3.878,3.875,3.8125,3.75,3.7382,3.6707,3.5936,3.5261,3.4394,3.3807,3.3807,3.3183,3.2693,3.2619,3.1898,3.1213,3.065,3.043,3.0356,3.0467,2.9721,2.95,3.0026,2.939,2.8987,2.8987,2.8987,2.8987,2.8987,2.8987,2.8987,2.8987,2.8987,2.8987,2.8987,2.8987,2.8987,2.2321,2.3828,2.4618,2.3063,2.4467,0.0,2.1443,2.1512,2.1932,2.0399,2.2003,2.3422,2.2734,2.567,2.7994,2.7465,2.9479,3.1116,3.1221,3.2956,3.3931,3.3154,3.3484,3.3476,3.2693,3.2472,3.2045,3.1237,3.1029,3.1274,3.2069,3.1188,3.1568,3.3513,3.1678,3.1384,3.2803,3.2045,3.2045,3.2852,3.3032,3.3512,3.4117,3.4284,3.4364,3.4364,3.4364,3.4398,3.4442,3.4442,3.4409,3.4375,3.442,3.4442,3.4442,3.4486,3.4508,3.4508,3.4508,3.4508,3.4508,3.4508,3.4508,3.4497,3.4453,3.4442,3.4581,3.5161,3.6084,3.7068,3.7841,3.8701,3.935,3.935,3.935,3.9285,3.9092,3.8405,3.7558,3.6691,3.5862,3.5408,3.5936,3.4798,3.3807,3.3807,3.366,3.333,3.2693,3.1898,3.1825,3.2963,3.1935,3.1421,3.2069,3.1384,3.0467,2.9317,2.9097,2.8987,2.8987,2.8987,2.8987,2.8987,2.8987,2.8987,2.8987,2.8987,2.8987,2.8987,2.8987,2.8987,2.2435,2.3609,2.4284,2.3197,2.3849,0.0,0.0,1.9877,1.966,1.8785,1.9394,2.0178,2.0527,2.3448,2.5785,2.5785,2.7549,2.9289,3.0338,3.2137,3.3082,3.2541,3.2622,3.2736,3.2736,3.2305,3.1825,3.1433,3.1397,3.1751,3.2546,3.2999,3.322,3.322,3.2412,3.2008,3.2008,3.1201,3.1421,3.2583,3.2871,3.3398,3.4191,3.4398,3.4508,3.4508,3.4508,3.4572,3.4713,3.4713,3.4773,3.486,3.4753,3.4713,3.4723,3.4794,3.487,3.487,3.487,3.487,3.487,3.487,3.487,3.4851,3.4743,3.4593,3.4583,3.4985,3.5698,3.6524,3.7399,3.8225,3.8976,3.9389,3.9164,3.8939,3.9212,3.8327,3.7504,3.7669,3.6689,3.5823,3.5656,3.4931,3.438,3.438,3.3733,3.3353,3.3757,3.2729,3.2302,3.3109,3.2485,3.1861,3.1458,3.1017,3.0467,2.9647,2.9207,2.8987,2.8987,2.8987,2.8987,2.8987,2.862,2.8583,2.8987,2.8583,2.862,2.8987,2.8987,2.8987,2.2737,2.3483,2.4016,2.3683,2.3498,2.2757,0.0,0.0,0.0,1.772,1.7477,1.7817,1.9314,2.1472,2.3356,2.4257,2.5791,2.7472,2.923,3.0936,3.1945,3.1834,3.1358,3.1467,3.2546,3.1605,3.1054,3.1397,3.125,3.1604,3.2546,3.4357,3.4431,3.2436,3.2852,3.2511,3.1238,3.0771,3.1274,3.2748,3.3013,3.3549,3.4333,3.4529,3.4634,3.4634,3.4634,3.4773,3.4964,3.4964,3.5054,3.5174,3.5028,3.4964,3.4982,3.5132,3.519,3.519,3.519,3.519,3.519,3.519,3.519,3.5157,3.501,3.4812,3.4672,3.4823,3.535,3.6093,3.7122,3.7875,3.8591,3.947,3.9119,3.8731,3.9211,3.8157,3.7361,3.8287,3.7391,3.6246,3.5404,3.5261,3.5188,3.5041,3.405,3.3793,3.5078,3.383,3.2949,3.328,3.2742,3.1971,3.098,3.0467,3.021,3.021,2.9427,2.8987,2.8987,2.8987,2.8987,2.8987,2.8374,2.8338,2.8987,2.8338,2.8363,2.8987,2.8987,2.8987,2.5594,2.6763,2.6878,2.4877,2.5956,2.6347,2.186,0.0,2.2215,1.9951,0.0,2.1858,2.2905,0.0,0.0,2.5964,2.7504,2.8192,2.7014,2.8911,3.0624,3.1151,2.9664,2.9441,3.163,3.0277,2.9867,3.1286,3.0723,3.1017,3.2509,3.2192,3.1837,3.1544,3.0944,3.0599,3.0583,3.1296,3.2151,3.3222,3.3505,3.4055,3.485,3.5046,3.5124,3.5124,3.5124,3.5141,3.5157,3.5157,3.5166,3.5182,3.5166,3.5157,3.5157,3.5182,3.519,3.519,3.519,3.519,3.519,3.519,3.519,3.5182,3.5166,3.5141,3.5276,3.6077,3.6344,3.6764,3.8375,3.8832,3.9128,4.0005,4.012,3.9804,3.8915,3.7985,3.71,3.6273,3.5953,3.5875,3.6108,3.6156,3.5899,3.5114,3.5495,3.5936,3.6119,3.4688,3.4247,3.5716,3.3256,3.2045,3.3293,3.1421,3.021,3.021,2.9427,2.8987,2.8987,2.8987,2.8987,2.8987,2.8913,2.8913,2.8987,2.8913,2.8913,2.8987,2.8987,2.8987,2.6234,2.7264,2.7675,2.6696,2.6911,2.6681,2.4165,2.347,2.3143,2.2537,0.0,0.0,0.0,0.0,0.0,0.0,2.6619,2.7052,2.5873,2.5759,2.6797,2.9497,2.8607,2.8032,2.8792,2.8533,2.8594,2.9267,2.9439,3.0014,3.1152,3.1311,3.098,3.0063,3.0266,2.9972,2.9116,3.0536,3.1723,3.263,3.3356,3.413,3.4917,3.5107,3.519,3.519,3.519,3.519,3.519,3.519,3.519,3.519,3.519,3.519,3.519,3.519,3.519,3.519,3.519,3.519,3.519,3.519,3.519,3.519,3.519,3.519,3.5373,3.6252,3.6481,3.6901,3.8553,3.9011,3.924,4.0072,3.9919,3.9557,3.9585,3.8928,3.8146,3.7494,3.7802,3.7815,3.6883,3.6285,3.5826,3.5454,3.5306,3.5603,3.6583,3.5665,3.5355,3.6424,3.4857,3.3561,3.3159,3.2192,3.1201,3.0246,2.9427,2.8987,2.8987,2.8987,2.8987,2.8987,2.8546,2.851,2.8987,2.8521,2.8546,2.8987,2.8987,2.8987,2.6722,2.7458,2.7943,2.7938,2.7495,2.6841,2.6068,2.5171,2.4579,2.494,2.3871,0.0,0.0,0.0,2.5315,2.5567,0.0,2.681,2.6012,2.5203,2.5491,2.7619,2.7604,2.756,2.7988,2.7165,2.6878,2.7543,2.748,2.7842,2.886,2.9866,2.9769,2.84,2.9322,2.9174,2.7858,2.9936,3.1403,3.227,3.3533,3.4431,3.4992,3.5132,3.519,3.519,3.519,3.519,3.519,3.519,3.519,3.519,3.519,3.519,3.519,3.519,3.519,3.519,3.519,3.519,3.519,3.519,3.519,3.519,3.519,3.519,3.542,3.6519,3.6481,3.6634,3.882,3.9011,3.8935,4.0034,3.9804,3.947,3.9843,3.947,3.8813,3.8155,3.8705,3.8778,3.7133,3.6614,3.6411,3.6411,3.5897,3.6047,3.7512,3.6998,3.6639,3.7094,3.5962,3.4722,3.3586,3.2797,3.1826,3.0625,2.9757,2.9427,2.9647,2.9244,2.9097,2.9317,2.8778,2.8631,2.8987,2.8631,2.8631,2.8987,2.8987,2.8987,2.7537,2.797,2.7991,2.8103,2.8036,2.7746,2.7036,2.7427,2.7724,2.6981,2.7378,2.7927,2.8157,2.6839,2.6147,2.7227,2.8158,0.0,0.0,2.9028,2.8804,2.5688,2.654,2.8381,3.0814,2.6494,2.454,2.6921,2.4786,2.4033,2.5578,2.708,2.753,2.6712,2.76,2.7829,2.7228,2.9839,3.1703,3.2684,3.4372,3.5182,3.5182,3.5182,3.519,3.519,3.519,3.519,3.519,3.519,3.519,3.519,3.519,3.519,3.519,3.519,3.519,3.519,3.519,3.519,3.519,3.519,3.519,3.519,3.519,3.519,3.5534,3.7215,3.6489,3.6031,3.9384,3.9011,3.8171,3.9881,4.0263,4.0034,3.924,3.9011,3.8506,3.6892,3.7207,3.7512,3.6655,3.7423,3.8138,3.8199,3.815,3.8401,3.9276,3.8725,3.8249,3.8237,3.6081,3.4916,3.5634,3.3299,3.1684,3.1372,3.0613,3.0503,3.1286,2.9831,2.9354,3.0136,3.0136,2.9757,2.8987,2.9769,2.9732,2.8987,2.8987,2.8987,2.8498,2.875,2.875,2.8857,2.8847,2.8614,2.7853,2.8356,2.8579,2.7167,2.7519,2.7927,2.7399,2.7373,2.7398,2.7203,2.8539,2.8729,0.0,2.605,2.6096,2.6046,2.6429,2.6557,2.6257,2.457,2.31,2.2262,2.2376,2.2872,2.3867,2.5467,2.6206,2.5957,2.7438,2.7945,2.7358,3.0007,3.1775,3.2699,3.3853,3.4694,3.519,3.519,3.519,3.519,3.519,3.519,3.519,3.519,3.519,3.519,3.519,3.519,3.519,3.519,3.519,3.519,3.519,3.519,3.519,3.519,3.519,3.519,3.519,3.5602,3.629,3.7406,3.7712,3.8132,3.9843,3.9843,3.9584,4.0148,4.0301,4.0225,3.9919,3.9843,3.9499,3.84,3.8858,3.9164,3.8285,3.8471,3.8535,3.7975,3.7889,3.8193,3.9067,3.8915,3.8912,3.9331,3.8131,3.7122,3.6633,3.4266,3.2767,3.2642,3.1907,3.1347,3.1065,3.0935,3.0476,2.9602,3.0514,3.0356,2.8987,2.9794,2.9806,2.8987,2.8987,2.8987,2.8223,2.8561,2.8846,2.9238,2.9312,2.9164,2.868,2.9211,2.9434,2.8059,2.843,2.8717,2.7897,2.7986,2.8045,2.7549,2.8609,2.8821,0.0,2.5822,2.58,2.6841,2.635,2.5716,2.5171,2.3689,2.1953,1.9977,2.0509,2.1056,2.1466,2.3611,2.4832,2.4811,2.6931,2.784,2.7395,2.9777,3.1408,3.2279,3.3433,3.4273,3.477,3.5076,3.519,3.519,3.519,3.519,3.519,3.519,3.519,3.519,3.519,3.519,3.519,3.519,3.519,3.519,3.519,3.519,3.519,3.519,3.519,3.519,3.519,3.5602,3.6214,3.7024,3.7674,3.8323,3.9164,3.9623,3.9843,3.9843,3.9843,3.9843,3.9843,3.9843,3.9499,3.8362,3.9308,3.9919,3.8744,3.9049,3.9279,3.8706,3.8362,3.8476,3.9355,3.947,3.949,3.9554,3.8831,3.7791,3.6379,3.4785,3.3812,3.373,3.2961,3.2435,3.219,3.2002,3.1667,3.1181,3.1764,3.1573,3.0583,3.0783,3.0439,2.9661,2.9278,2.9123]}]]